[[{"header":{"parameterUnit":"m.s-1","parameterCategory":1,"la1":31.0,"la2":29.5877,"lo1":-88.7671,"lo2":-86.6584,"dy":0.0162,"dx":0.0185,"nx":115,"ny":88,"refTime":"2023-09-20T12:00:00:Z","depth":0,"parameterNumber":2,"parameterNumberName":"U-component_of_WINDS"},"data":[0.0,0.0,0.0,0.0,0.0,0.0,0.0,0.0,0.0,0.0,0.0,0.0,0.0,0.0,0.0,0.0,0.0,0.0,0.0,0.0,0.0,0.0,0.0,0.0,0.0,0.0,0.0,0.0,0.0,0.0,0.0,0.0,0.0,0.0,0.0,0.0,0.0,0.0,0.0,0.0,0.0,0.0,0.0,0.0,0.0,0.0,0.0,0.0,0.0,0.0,0.0,0.0,0.0,0.0,0.0,0.0,0.0,0.0,0.0,0.0,0.0,0.0,0.0,0.0,0.0,0.0,0.0,0.0,0.0,0.0,0.0,0.0,0.0,0.0,0.0,0.0,0.0,0.0,0.0,0.0,0.0,0.0,0.0,0.0,0.0,0.0,0.0,0.0,0.0,0.0,0.0,0.0,0.0,0.0,0.0,0.0,0.0,0.0,0.0,0.0,0.0,0.0,0.0,0.0,0.0,0.0,0.0,0.0,0.0,0.0,0.0,0.0,0.0,0.0,0.0,0.0,0.0,0.0,0.0,0.0,0.0,0.0,0.0,0.0,0.0,0.0,0.0,0.0,0.0,0.0,0.0,0.0,0.0,0.0,0.0,0.0,0.0,0.0,0.0,0.0,0.0,0.0,0.0,0.0,0.0,0.0,0.0,0.0,0.0,0.0,0.0,0.0,0.0,0.0,0.0,0.0,0.0,0.0,0.0,0.0,0.0,0.0,0.0,0.0,0.0,0.0,0.0,0.0,0.0,0.0,0.0,0.0,0.0,0.0,0.0,0.0,0.0,0.0,0.0,0.0,0.0,0.0,0.0,0.0,0.0,0.0,0.0,0.0,0.0,0.0,0.0,0.0,0.0,0.0,0.0,0.0,0.0,0.0,0.0,0.0,0.0,0.0,0.0,0.0,0.0,0.0,0.0,0.0,0.0,0.0,0.0,0.0,0.0,0.0,0.0,0.0,0.0,0.0,0.0,0.0,0.0,0.0,0.0,0.0,0.0,0.0,0.0,0.0,0.0,0.0,0.0,0.0,0.0,0.0,0.0,0.0,0.0,0.0,0.0,0.0,0.0,0.0,0.0,0.0,0.0,0.0,0.0,0.0,0.0,0.0,0.0,0.0,0.0,0.0,0.0,0.0,0.0,0.0,0.0,0.0,0.0,0.0,0.0,0.0,0.0,0.0,0.0,0.0,0.0,0.0,0.0,0.0,0.0,0.0,0.0,0.0,0.0,0.0,0.0,0.0,0.0,0.0,0.0,0.0,0.0,0.0,0.0,0.0,0.0,0.0,0.0,0.0,0.0,0.0,0.0,0.0,0.0,0.0,0.0,0.0,0.0,0.0,0.0,0.0,0.0,0.0,0.0,0.0,0.0,0.0,0.0,0.0,0.0,0.0,0.0,0.0,0.0,0.0,0.0,0.0,0.0,0.0,0.0,0.0,0.0,0.0,0.0,0.0,0.0,0.0,0.0,0.0,0.0,0.0,0.0,0.0,0.0,0.0,0.0,0.0,0.0,0.0,0.0,0.0,0.0,0.0,0.0,0.0,0.0,0.0,0.0,0.0,0.0,0.0,0.0,0.0,0.0,0.0,0.0,0.0,0.0,0.0,0.0,0.0,0.0,0.0,0.0,0.0,0.0,0.0,0.0,0.0,0.0,0.0,0.0,0.0,0.0,0.0,0.0,0.0,0.0,0.0,0.0,0.0,0.0,0.0,0.0,0.0,0.0,0.0,0.0,0.0,0.0,0.0,0.0,0.0,0.0,0.0,0.0,0.0,0.0,0.0,0.0,0.0,0.0,0.0,0.0,0.0,0.0,0.0,0.0,0.0,0.0,0.0,0.0,0.0,0.0,0.0,0.0,0.0,0.0,0.0,0.0,0.0,0.0,0.0,0.0,0.0,0.0,0.0,0.0,0.0,0.0,0.0,0.0,0.0,0.0,0.0,0.0,0.0,0.0,0.0,0.0,0.0,0.0,0.0,0.0,0.0,0.0,0.0,0.0,0.0,0.0,0.0,0.0,0.0,0.0,0.0,0.0,0.0,0.0,0.0,0.0,0.0,0.0,0.0,0.0,0.0,0.0,0.0,0.0,0.0,0.0,0.0,0.0,0.0,0.0,0.0,0.0,0.0,0.0,0.0,0.0,0.0,0.0,0.0,0.0,0.0,0.0,0.0,0.0,0.0,0.0,0.0,0.0,0.0,0.0,0.0,0.0,0.0,0.0,0.0,0.0,0.0,0.0,0.0,0.0,0.0,0.0,0.0,0.0,0.0,0.0,0.0,0.0,0.0,0.0,0.0,0.0,0.0,0.0,0.0,0.0,0.0,0.0,0.0,0.0,0.0,0.0,0.0,0.0,0.0,0.0,0.0,0.0,0.0,0.0,0.0,0.0,0.0,0.0,0.0,0.0,0.0,0.0,0.0,0.0,0.0,0.0,0.0,0.0,0.0,0.0,0.0,0.0,0.0,0.0,0.0,0.0,0.0,0.0,0.0,0.0,0.0,0.0,0.0,0.0,0.0,0.0,0.0,0.0,0.0,0.0,0.0,0.0,0.0,0.0,0.0,0.0,0.0,0.0,0.0,0.0,0.0,0.0,0.0,0.0,0.0,0.0,0.0,0.0,0.0,0.0,0.0,0.0,0.0,0.0,0.0,0.0,0.0,0.0,0.0,0.0,0.0,0.0,0.0,0.0,0.0,0.0,0.0,0.0,0.0,0.0,0.0,0.0,0.0,0.0,0.0,0.0,0.0,0.0,0.0,0.0,0.0,0.0,0.0,0.0,0.0,0.0,0.0,0.0,0.0,0.0,0.0,0.0,0.0,0.0,0.0,0.0,0.0,0.0,0.0,0.0,0.0,0.0,0.0,0.0,0.0,0.0,0.0,0.0,0.0,0.0,0.0,0.0,0.0,0.0,0.0,0.0,0.0,0.0,0.0,0.0,0.0,0.0,0.0,0.0,0.0,0.0,0.0,0.0,0.0,0.0,0.0,0.0,0.0,0.0,0.0,0.0,0.0,0.0,0.0,0.0,0.0,0.0,0.0,0.0,0.0,0.0,0.0,0.0,0.0,0.0,0.0,0.0,0.0,0.0,0.0,0.0,0.0,0.0,0.0,0.0,0.0,0.0,0.0,0.0,0.0,0.0,0.0,0.0,0.0,0.0,0.0,0.0,0.0,0.0,0.0,0.0,0.0,0.0,0.0,0.0,0.0,0.0,0.0,0.0,0.0,0.0,0.0,0.0,0.0,0.0,0.0,0.0,0.0,0.0,0.0,0.0,0.0,0.0,0.0,0.0,0.0,0.0,0.0,0.0,0.0,0.0,0.0,0.0,0.0,0.0,0.0,0.0,0.0,0.0,0.0,0.0,0.0,0.0,0.0,0.0,0.0,0.0,0.0,0.0,0.0,0.0,0.0,0.0,0.0,0.0,0.0,0.0,0.0,0.0,0.0,0.0,0.0,0.0,0.0,0.0,0.0,0.0,0.0,0.0,0.0,0.0,0.0,0.0,0.0,0.0,0.0,0.0,0.0,0.0,0.0,0.0,0.0,0.0,0.0,0.0,0.0,0.0,0.0,0.0,0.0,0.0,0.0,0.0,0.0,0.0,0.0,0.0,0.0,0.0,0.0,0.0,0.0,0.0,0.0,0.0,0.0,0.0,0.0,0.0,0.0,0.0,0.0,0.0,0.0,0.0,0.0,0.0,0.0,0.0,0.0,0.0,0.0,0.0,0.0,0.0,0.0,0.0,0.0,0.0,0.0,0.0,0.0,0.0,0.0,0.0,0.0,0.0,0.0,0.0,0.0,0.0,0.0,0.0,0.0,0.0,0.0,0.0,0.0,0.0,0.0,0.0,0.0,0.0,0.0,0.0,0.0,0.0,0.0,0.0,0.0,0.0,0.0,0.0,0.0,0.0,0.0,0.0,0.0,0.0,0.0,0.0,0.0,0.0,0.0,0.0,0.0,0.0,0.0,0.0,0.0,0.0,0.0,0.0,0.0,0.0,0.0,0.0,0.0,0.0,0.0,0.0,0.0,0.0,0.0,0.0,0.0,0.0,0.0,0.0,0.0,0.0,0.0,0.0,0.0,0.0,0.0,0.0,0.0,0.0,0.0,0.0,0.0,0.0,0.0,0.0,0.0,0.0,0.0,0.0,0.0,0.0,0.0,0.0,0.0,0.0,0.0,0.0,0.0,0.0,0.0,0.0,0.0,0.0,0.0,0.0,0.0,0.0,0.0,0.0,0.0,0.0,0.0,0.0,0.0,0.0,0.0,0.0,0.0,1.9732,0.0,0.0,0.0,0.0,0.0,0.0,0.0,0.0,0.0,0.0,0.0,0.0,0.0,0.0,0.0,0.0,0.0,0.0,0.0,0.0,0.0,0.0,0.0,0.0,0.0,0.0,0.0,0.0,0.0,0.0,0.0,0.0,0.0,0.0,0.0,0.0,0.0,0.0,0.0,0.0,0.0,0.0,0.0,0.0,0.0,0.0,0.0,0.0,0.0,0.0,0.0,0.0,0.0,0.0,0.0,0.0,0.0,0.0,0.0,0.0,0.0,0.0,0.0,0.0,0.0,0.0,0.0,0.0,0.0,0.0,0.0,0.0,0.0,0.0,0.0,0.0,0.0,0.0,0.0,0.0,0.0,0.0,0.0,0.0,0.0,0.0,0.0,0.0,0.0,0.0,0.0,0.0,0.0,0.0,0.0,0.0,0.0,0.0,0.0,0.0,0.0,0.0,0.0,0.0,0.0,0.0,0.0,0.0,0.0,0.0,2.0391,2.0263,2.0153,2.0069,1.9969,0.0,0.0,0.0,0.0,0.0,0.0,0.0,0.0,0.0,0.0,0.0,0.0,0.0,0.0,0.0,0.0,0.0,0.0,0.0,0.0,0.0,0.0,0.0,0.0,0.0,0.0,0.0,0.0,0.0,0.0,0.0,0.0,0.0,0.0,0.0,0.0,0.0,0.0,0.0,0.0,0.0,0.0,0.0,0.0,0.0,0.0,0.0,0.0,0.0,0.0,0.0,0.0,0.0,0.0,0.0,0.0,0.0,0.0,0.0,0.0,0.0,0.0,0.0,0.0,0.0,0.0,0.0,0.0,0.0,0.0,0.0,0.0,0.0,0.0,0.0,0.0,0.0,0.0,0.0,0.0,0.0,0.0,0.0,0.0,0.0,0.0,0.0,0.0,0.0,0.0,0.0,0.0,0.0,0.0,0.0,0.0,0.0,0.0,0.0,0.0,0.0,0.0,0.0,0.0,0.0,0.0,0.0,0.0,0.0,0.0,0.0,0.0,2.0283,2.0223,2.0135,0.0,0.0,0.0,0.0,0.0,0.0,0.0,0.0,0.0,0.0,0.0,0.0,0.0,0.0,0.0,0.0,0.0,0.0,0.0,0.0,0.0,0.0,0.0,0.0,0.0,0.0,0.0,0.0,0.0,0.0,0.0,0.0,0.0,0.0,0.0,0.0,0.0,0.0,0.0,0.0,0.0,0.0,0.0,0.0,0.0,0.0,0.0,0.0,0.0,0.0,0.0,0.0,0.0,0.0,0.0,0.0,0.0,0.0,0.0,0.0,0.0,0.0,0.0,0.0,0.0,0.0,0.0,0.0,0.0,0.0,0.0,0.0,0.0,0.0,0.0,0.0,0.0,0.0,0.0,0.0,0.0,0.0,0.0,0.0,0.0,0.0,0.0,0.0,0.0,0.0,0.0,0.0,0.0,0.0,0.0,0.0,0.0,0.0,0.0,0.0,0.0,0.0,0.0,0.0,0.0,0.0,0.0,0.0,0.0,0.0,2.0497,2.0474,2.041,0.0,2.0282,0.0,0.0,0.0,0.0,0.0,0.0,0.0,0.0,0.0,0.0,0.0,0.0,0.0,0.0,0.0,0.0,0.0,0.0,0.0,0.0,0.0,0.0,0.0,0.0,0.0,0.0,0.0,0.0,0.0,0.0,0.0,0.0,0.0,0.0,0.0,0.0,0.0,0.0,0.0,0.0,0.0,0.0,0.0,0.0,0.0,0.0,0.0,0.0,0.0,0.0,0.0,0.0,0.0,0.0,0.0,0.0,0.0,0.0,0.0,0.0,0.0,0.0,0.0,0.0,0.0,0.0,0.0,0.0,0.0,0.0,0.0,0.0,0.0,0.0,0.0,0.0,0.0,0.0,0.0,0.0,0.0,0.0,0.0,0.0,0.0,0.0,0.0,0.0,0.0,0.0,0.0,0.0,0.0,0.0,0.0,0.0,0.0,0.0,0.0,0.0,0.0,0.0,0.0,0.0,0.0,0.0,0.0,0.0,0.0,0.0,2.1269,2.1271,2.0702,2.038,0.0,0.0,0.0,0.0,0.0,0.0,0.0,0.0,0.0,0.0,0.0,0.0,0.0,0.0,0.0,0.0,0.0,0.0,0.0,0.0,0.0,0.0,0.0,0.0,0.0,0.0,0.0,0.0,0.0,0.0,0.0,0.0,0.0,0.0,0.0,0.0,0.0,0.0,0.0,0.0,0.0,0.0,0.0,0.0,0.0,0.0,0.0,0.0,0.0,0.0,0.0,0.0,0.0,0.0,0.0,0.0,0.0,0.0,0.0,0.0,0.0,0.0,0.0,0.0,0.0,0.0,0.0,0.0,0.0,0.0,0.0,0.0,0.0,0.0,0.0,0.0,0.0,0.0,0.0,0.0,0.0,0.0,0.0,0.0,0.0,0.0,0.0,0.0,0.0,0.0,0.0,0.0,0.0,0.0,0.0,0.0,0.0,0.0,0.0,0.0,0.0,0.0,0.0,0.0,0.0,0.0,0.0,0.0,0.0,0.0,2.2449,2.2162,2.2121,2.15,2.115,2.1137,0.0,0.0,0.0,0.0,0.0,0.0,0.0,0.0,0.0,0.0,0.0,0.0,0.0,0.0,0.0,0.0,0.0,0.0,0.0,0.0,0.0,0.0,0.0,0.0,0.0,0.0,0.0,0.0,0.0,0.0,0.0,0.0,0.0,0.0,0.0,0.0,0.0,0.0,0.0,0.0,0.0,0.0,0.0,0.0,0.0,0.0,0.0,0.0,0.0,0.0,0.0,0.0,0.0,0.0,0.0,0.0,0.0,0.0,0.0,0.0,0.0,0.0,0.0,0.0,0.0,0.0,0.0,0.0,0.0,0.0,0.0,0.0,0.0,0.0,0.0,0.0,0.0,0.0,0.0,0.0,0.0,0.0,0.0,0.0,0.0,0.0,0.0,0.0,0.0,0.0,0.0,0.0,0.0,0.0,0.0,0.0,0.0,0.0,0.0,0.0,0.0,0.0,0.0,0.0,0.0,0.0,0.0,0.0,2.3035,2.305,2.3034,2.3019,2.2992,2.2979,0.0,0.0,0.0,0.0,0.0,0.0,0.0,0.0,0.0,0.0,0.0,0.0,0.0,0.0,0.0,0.0,0.0,0.0,0.0,0.0,0.0,0.0,0.0,0.0,0.0,0.0,0.0,0.0,0.0,0.0,0.0,0.0,0.0,0.0,0.0,0.0,0.0,0.0,0.0,0.0,0.0,0.0,0.0,0.0,0.0,0.0,0.0,0.0,0.0,0.0,0.0,0.0,0.0,0.0,0.0,0.0,0.0,0.0,0.0,0.0,0.0,0.0,0.0,0.0,0.0,0.0,0.0,0.0,0.0,0.0,0.0,0.0,0.0,0.0,0.0,0.0,0.0,0.0,0.0,0.0,0.0,0.0,0.0,0.0,0.0,0.0,0.0,0.0,0.0,0.0,0.0,0.0,0.0,0.0,0.0,0.0,0.0,0.0,0.0,0.0,0.0,0.0,0.0,0.0,0.0,0.0,0.0,0.0,0.0,2.4496,2.4151,2.3669,2.3124,2.3105,2.31,0.0,0.0,0.0,0.0,0.0,0.0,0.0,0.0,0.0,0.0,0.0,0.0,0.0,0.0,0.0,0.0,0.0,0.0,0.0,0.0,0.0,0.0,0.0,0.0,0.0,0.0,0.0,0.0,0.0,0.0,0.0,0.0,0.0,0.0,0.0,0.0,0.0,0.0,0.0,0.0,0.0,0.0,0.0,0.0,0.0,0.0,0.0,0.0,0.0,0.0,0.0,0.0,0.0,0.0,0.0,0.0,0.0,0.0,0.0,0.0,0.0,0.0,0.0,0.0,0.0,0.0,0.0,0.0,0.0,0.0,0.0,0.0,0.0,0.0,0.0,0.0,0.0,0.0,0.0,0.0,0.0,0.0,0.0,0.0,0.0,0.0,0.0,0.0,0.0,0.0,0.0,0.0,0.0,0.0,0.0,0.0,0.0,0.0,0.0,0.0,0.0,0.0,0.0,0.0,0.0,0.0,0.0,0.0,0.0,2.5398,0.0,2.4531,2.3985,2.3942,2.3945,0.0,0.0,0.0,0.0,0.0,0.0,0.0,0.0,0.0,0.0,0.0,0.0,0.0,0.0,0.0,0.0,0.0,0.0,0.0,0.0,0.0,0.0,0.0,0.0,0.0,0.0,0.0,0.0,0.0,0.0,0.0,0.0,0.0,0.0,0.0,0.0,0.0,0.0,0.0,0.0,0.0,0.0,0.0,0.0,0.0,0.0,0.0,0.0,0.0,0.0,0.0,0.0,0.0,0.0,0.0,0.0,0.0,0.0,0.0,0.0,0.0,0.0,0.0,0.0,0.0,0.0,0.0,0.0,0.0,0.0,0.0,0.0,0.0,0.0,0.0,0.0,0.0,0.0,0.0,0.0,0.0,0.0,0.0,0.0,0.0,0.0,0.0,0.0,0.0,0.0,0.0,0.0,0.0,0.0,0.0,0.0,0.0,0.0,0.0,0.0,0.0,0.0,0.0,0.0,0.0,0.0,0.0,0.0,2.5303,2.5493,2.5556,2.5559,2.5678,2.5625,2.5655,0.0,0.0,0.0,0.0,0.0,0.0,0.0,0.0,0.0,0.0,0.0,0.0,0.0,0.0,0.0,0.0,0.0,0.0,0.0,0.0,0.0,0.0,0.0,0.0,0.0,0.0,0.0,0.0,0.0,0.0,0.0,0.0,0.0,0.0,0.0,0.0,0.0,0.0,0.0,0.0,0.0,0.0,0.0,0.0,0.0,0.0,0.0,0.0,0.0,0.0,0.0,0.0,0.0,0.0,0.0,0.0,0.0,0.0,0.0,0.0,0.0,0.0,0.0,0.0,0.0,0.0,0.0,0.0,0.0,0.0,0.0,0.0,0.0,0.0,0.0,0.0,0.0,0.0,0.0,0.0,0.0,0.0,0.0,0.0,0.0,0.0,0.0,0.0,0.0,0.0,0.0,0.0,0.0,0.0,0.0,0.0,0.0,0.0,0.0,0.0,0.0,0.0,0.0,0.0,0.0,0.0,0.0,0.0,0.0,2.551,2.5556,2.5595,2.5624,2.5671,2.5693,0.0,0.0,0.0,0.0,0.0,0.0,0.0,0.0,0.0,0.0,0.0,0.0,0.0,0.0,0.0,0.0,0.0,0.0,0.0,0.0,0.0,0.0,0.0,0.0,0.0,0.0,0.0,0.0,0.0,0.0,0.0,0.0,0.0,0.0,0.0,0.0,0.0,0.0,0.0,0.0,0.0,0.0,0.0,0.0,0.0,0.0,0.0,0.0,0.0,0.0,0.0,0.0,0.0,0.0,0.0,0.0,0.0,0.0,0.0,0.0,0.0,0.0,0.0,0.0,0.0,0.0,0.0,0.0,0.0,0.0,0.0,0.0,0.0,0.0,0.0,0.0,0.0,0.0,0.0,0.0,0.0,0.0,0.0,0.0,0.0,0.0,0.0,0.0,0.0,0.0,0.0,0.0,0.0,0.0,0.0,0.0,0.0,0.0,0.0,0.0,0.0,0.0,0.0,0.0,0.0,0.0,0.0,0.0,0.0,2.6376,2.5846,2.5576,2.5609,2.5634,2.5664,2.5693,0.0,0.0,0.0,0.0,0.0,0.0,0.0,0.0,0.0,0.0,0.0,0.0,0.0,0.0,0.0,0.0,0.0,0.0,0.0,0.0,0.0,0.0,0.0,0.0,0.0,0.0,0.0,0.0,0.0,0.0,0.0,0.0,0.0,0.0,0.0,0.0,0.0,0.0,0.0,0.0,0.0,0.0,0.0,0.0,0.0,0.0,0.0,0.0,0.0,0.0,0.0,0.0,0.0,0.0,0.0,0.0,0.0,0.0,0.0,0.0,0.0,0.0,0.0,0.0,0.0,0.0,0.0,0.0,0.0,0.0,0.0,0.0,0.0,0.0,0.0,0.0,0.0,0.0,0.0,0.0,0.0,0.0,0.0,0.0,0.0,0.0,0.0,0.0,0.0,0.0,0.0,0.0,0.0,0.0,0.0,0.0,0.0,0.0,0.0,0.0,0.0,0.0,0.0,0.0,0.0,0.0,0.0,0.0,2.7883,2.6414,2.5691,2.5744,2.5765,2.5771,0.0,0.0,0.0,0.0,0.0,0.0,0.0,0.0,0.0,0.0,0.0,0.0,0.0,0.0,0.0,0.0,0.0,0.0,0.0,0.0,0.0,0.0,0.0,0.0,0.0,0.0,0.0,0.0,0.0,0.0,0.0,0.0,0.0,0.0,0.0,0.0,0.0,0.0,0.0,0.0,0.0,0.0,0.0,0.0,0.0,0.0,0.0,0.0,0.0,0.0,0.0,0.0,0.0,0.0,0.0,0.0,0.0,0.0,0.0,0.0,0.0,0.0,0.0,0.0,0.0,0.0,0.0,0.0,0.0,0.0,0.0,0.0,0.0,0.0,0.0,0.0,0.0,0.0,0.0,0.0,0.0,0.0,0.0,0.0,0.0,0.0,0.0,0.0,0.0,0.0,0.0,0.0,0.0,0.0,0.0,0.0,0.0,0.0,0.0,0.0,0.0,0.0,0.0,0.0,0.0,0.0,0.0,0.0,0.0,2.7874,2.7489,2.7305,2.7373,2.7401,2.749,0.0,0.0,0.0,0.0,0.0,0.0,0.0,0.0,0.0,0.0,0.0,0.0,0.0,0.0,0.0,0.0,0.0,0.0,0.0,0.0,0.0,0.0,0.0,0.0,0.0,0.0,0.0,0.0,0.0,0.0,0.0,0.0,0.0,0.0,0.0,0.0,0.0,0.0,0.0,0.0,0.0,0.0,0.0,0.0,0.0,0.0,0.0,0.0,0.0,0.0,0.0,0.0,0.0,0.0,0.0,0.0,0.0,0.0,0.0,0.0,0.0,0.0,0.0,0.0,0.0,0.0,0.0,0.0,0.0,0.0,0.0,0.0,0.0,0.0,0.0,0.0,0.0,0.0,0.0,0.0,0.0,0.0,0.0,0.0,0.0,0.0,0.0,0.0,0.0,0.0,0.0,0.0,0.0,0.0,0.0,0.0,0.0,0.0,0.0,0.0,0.0,0.0,0.0,0.0,0.0,0.0,0.0,0.0,2.8959,2.8951,2.8942,2.9003,2.9033,2.8415,2.8074,0.0,0.0,0.0,0.0,0.0,0.0,0.0,0.0,0.0,0.0,0.0,0.0,0.0,0.0,0.0,0.0,0.0,0.0,0.0,0.0,0.0,0.0,0.0,0.0,0.0,0.0,0.0,0.0,0.0,0.0,0.0,0.0,0.0,0.0,0.0,0.0,0.0,0.0,0.0,0.0,0.0,0.0,0.0,0.0,0.0,0.0,0.0,0.0,0.0,0.0,0.0,0.0,0.0,0.0,0.0,0.0,0.0,0.0,0.0,0.0,0.0,0.0,0.0,0.0,0.0,0.0,0.0,0.0,0.0,0.0,0.0,0.0,0.0,0.0,0.0,0.0,0.0,0.0,0.0,0.0,0.0,0.0,0.0,0.0,0.0,0.0,0.0,0.0,0.0,0.0,0.0,0.0,0.0,0.0,0.0,0.0,0.0,0.0,0.0,0.0,0.0,0.0,0.0,0.0,0.0,0.0,0.0,0.0,3.0398,3.0379,3.0394,3.0428,3.0441,2.9041,2.8303,0.0,0.0,0.0,0.0,0.0,0.0,0.0,0.0,0.0,0.0,0.0,0.0,0.0,0.0,0.0,0.0,0.0,0.0,0.0,0.0,0.0,0.0,0.0,0.0,0.0,0.0,0.0,0.0,0.0,0.0,0.0,0.0,0.0,0.0,0.0,0.0,0.0,0.0,0.0,0.0,0.0,0.0,0.0,0.0,0.0,0.0,0.0,0.0,0.0,0.0,0.0,0.0,0.0,0.0,0.0,0.0,0.0,0.0,0.0,0.0,0.0,0.0,0.0,0.0,0.0,0.0,0.0,0.0,0.0,0.0,0.0,0.0,0.0,0.0,0.0,0.0,0.0,0.0,0.0,0.0,0.0,0.0,0.0,0.0,0.0,0.0,0.0,0.0,0.0,0.0,0.0,0.0,0.0,0.0,0.0,0.0,0.0,0.0,0.0,0.0,0.0,0.0,0.0,0.0,0.0,0.0,0.0,0.0,3.0398,3.0398,3.039,3.0394,3.0428,3.0173,3.01,0.0,0.0,0.0,0.0,0.0,0.0,0.0,0.0,0.0,0.0,0.0,0.0,0.0,0.0,0.0,0.0,0.0,0.0,0.0,0.0,0.0,0.0,0.0,0.0,0.0,0.0,0.0,0.0,0.0,0.0,0.0,0.0,0.0,0.0,0.0,0.0,0.0,0.0,0.0,0.0,0.0,0.0,0.0,0.0,0.0,0.0,0.0,0.0,3.0785,0.0,0.0,0.0,0.0,0.0,0.0,0.0,0.0,0.0,0.0,0.0,0.0,0.0,0.0,0.0,0.0,0.0,0.0,0.0,0.0,0.0,0.0,0.0,0.0,0.0,0.0,0.0,0.0,0.0,0.0,0.0,0.0,0.0,0.0,0.0,0.0,0.0,0.0,0.0,0.0,0.0,0.0,0.0,0.0,0.0,0.0,0.0,0.0,0.0,0.0,0.0,0.0,0.0,0.0,0.0,0.0,0.0,0.0,0.0,3.0367,3.0367,3.0367,3.0359,3.0394,3.0509,3.0588,0.0,0.0,0.0,0.0,0.0,0.0,0.0,0.0,0.0,0.0,0.0,0.0,0.0,0.0,0.0,0.0,0.0,0.0,0.0,0.0,0.0,0.0,0.0,0.0,0.0,0.0,0.0,0.0,0.0,0.0,0.0,0.0,0.0,0.0,0.0,0.0,0.0,0.0,0.0,0.0,0.0,0.0,0.0,0.0,0.0,0.0,0.0,0.0,0.0,0.0,0.0,0.0,0.0,0.0,0.0,0.0,0.0,0.0,0.0,0.0,0.0,0.0,0.0,0.0,0.0,0.0,0.0,0.0,0.0,0.0,0.0,0.0,0.0,0.0,0.0,0.0,0.0,0.0,0.0,0.0,0.0,0.0,0.0,0.0,0.0,0.0,0.0,0.0,0.0,0.0,0.0,0.0,0.0,0.0,0.0,0.0,0.0,0.0,0.0,0.0,0.0,0.0,0.0,0.0,0.0,0.0,0.0,3.0451,3.0496,3.0503,3.0618,3.072,3.0782,3.0852,3.0907,3.0981,0.0,0.0,0.0,0.0,0.0,0.0,0.0,0.0,0.0,0.0,0.0,0.0,0.0,0.0,0.0,0.0,0.0,0.0,0.0,0.0,0.0,0.0,0.0,0.0,0.0,0.0,0.0,0.0,0.0,0.0,0.0,0.0,0.0,0.0,0.0,0.0,0.0,0.0,2.9789,3.0431,0.0,0.0,0.0,0.0,0.0,0.0,0.0,0.0,3.1201,0.0,0.0,0.0,0.0,0.0,0.0,0.0,0.0,0.0,0.0,0.0,0.0,0.0,0.0,0.0,0.0,0.0,0.0,0.0,0.0,0.0,0.0,0.0,0.0,0.0,0.0,0.0,0.0,0.0,0.0,0.0,0.0,0.0,0.0,0.0,0.0,0.0,0.0,0.0,0.0,0.0,0.0,0.0,0.0,0.0,0.0,0.0,0.0,0.0,0.0,0.0,0.0,0.0,0.0,0.0,0.0,3.0336,3.1034,3.1405,3.1404,3.2037,3.2428,3.2487,3.255,3.2632,3.2638,0.0,0.0,0.0,0.0,0.0,0.0,0.0,0.0,0.0,0.0,0.0,0.0,0.0,0.0,0.0,0.0,0.0,0.0,0.0,0.0,0.0,0.0,0.0,0.0,0.0,0.0,0.0,0.0,0.0,0.0,0.0,0.0,0.0,0.0,0.0,0.0,0.0,0.0,0.0,3.0738,3.0836,0.0,0.0,0.0,0.0,0.0,0.0,0.0,0.0,3.2982,0.0,0.0,0.0,0.0,0.0,0.0,0.0,0.0,0.0,0.0,0.0,0.0,0.0,0.0,0.0,0.0,0.0,0.0,0.0,0.0,0.0,0.0,0.0,0.0,0.0,0.0,0.0,0.0,0.0,0.0,0.0,0.0,0.0,0.0,0.0,0.0,0.0,0.0,0.0,0.0,0.0,0.0,0.0,0.0,0.0,0.0,0.0,0.0,0.0,0.0,0.0,0.0,0.0,0.0,0.0,3.1603,3.1985,3.2173,3.2178,3.2541,3.2766,3.2814,3.2904,3.2991,0.0,0.0,0.0,0.0,0.0,0.0,0.0,0.0,0.0,0.0,0.0,0.0,0.0,0.0,0.0,0.0,0.0,0.0,0.0,0.0,0.0,0.0,0.0,0.0,0.0,0.0,0.0,0.0,0.0,0.0,0.0,0.0,0.0,0.0,0.0,0.0,0.0,0.0,0.0,0.0,3.1471,3.1646,3.2121,0.0,0.0,0.0,0.0,0.0,0.0,3.3392,3.3383,0.0,0.0,0.0,0.0,0.0,0.0,0.0,0.0,0.0,0.0,0.0,0.0,0.0,0.0,0.0,0.0,0.0,0.0,0.0,0.0,0.0,0.0,0.0,0.0,0.0,0.0,0.0,0.0,0.0,0.0,0.0,0.0,0.0,0.0,0.0,0.0,0.0,0.0,0.0,0.0,0.0,0.0,0.0,0.0,0.0,0.0,0.0,0.0,0.0,0.0,0.0,0.0,0.0,0.0,0.0,3.2757,3.2875,3.2924,3.2924,3.3115,3.3191,3.3203,3.3336,3.3404,0.0,0.0,0.0,0.0,0.0,0.0,0.0,0.0,0.0,0.0,0.0,0.0,0.0,0.0,0.0,0.0,0.0,0.0,0.0,0.0,0.0,0.0,0.0,0.0,0.0,0.0,0.0,0.0,0.0,0.0,0.0,0.0,0.0,0.0,0.0,0.0,0.0,0.0,0.0,0.0,0.0,3.2631,3.3301,3.3392,0.0,0.0,0.0,0.0,3.389,3.3925,0.0,0.0,0.0,0.0,0.0,0.0,0.0,0.0,0.0,0.0,0.0,0.0,0.0,0.0,0.0,0.0,0.0,0.0,0.0,0.0,0.0,0.0,0.0,0.0,0.0,0.0,0.0,0.0,0.0,0.0,0.0,0.0,0.0,0.0,0.0,0.0,0.0,0.0,0.0,0.0,0.0,0.0,0.0,0.0,0.0,0.0,0.0,0.0,0.0,0.0,0.0,0.0,0.0,0.0,0.0,0.0,3.2726,3.3405,3.3718,3.3701,3.4406,3.484,3.4904,3.4963,3.5081,0.0,0.0,0.0,0.0,0.0,0.0,0.0,0.0,0.0,0.0,0.0,0.0,0.0,0.0,0.0,0.0,0.0,0.0,0.0,0.0,0.0,0.0,0.0,0.0,0.0,0.0,0.0,0.0,0.0,0.0,0.0,0.0,0.0,0.0,0.0,0.0,0.0,0.0,0.0,0.0,0.0,3.3278,3.3379,3.3383,3.3651,0.0,0.0,3.4824,3.5563,3.5691,0.0,0.0,0.0,0.0,0.0,0.0,0.0,0.0,0.0,0.0,0.0,0.0,0.0,0.0,0.0,0.0,0.0,0.0,0.0,0.0,0.0,0.0,0.0,0.0,0.0,0.0,0.0,0.0,0.0,0.0,0.0,0.0,0.0,0.0,0.0,0.0,0.0,0.0,0.0,0.0,0.0,0.0,0.0,0.0,0.0,0.0,0.0,0.0,0.0,0.0,0.0,0.0,0.0,0.0,0.0,3.3542,3.3989,3.4298,3.4395,3.4377,3.4737,3.4964,3.5037,3.5141,3.5251,0.0,0.0,0.0,0.0,0.0,0.0,0.0,0.0,0.0,0.0,0.0,0.0,0.0,0.0,0.0,0.0,0.0,0.0,0.0,0.0,0.0,0.0,0.0,0.0,0.0,0.0,0.0,0.0,0.0,0.0,0.0,0.0,0.0,0.0,0.0,0.0,0.0,0.0,0.0,0.0,0.0,0.0,3.474,3.4835,0.0,0.0,0.0,3.5582,3.5957,0.0,0.0,0.0,0.0,0.0,0.0,0.0,0.0,0.0,0.0,0.0,0.0,0.0,0.0,0.0,0.0,0.0,0.0,0.0,0.0,0.0,0.0,0.0,0.0,0.0,0.0,0.0,0.0,0.0,0.0,0.0,0.0,0.0,0.0,0.0,0.0,0.0,0.0,0.0,0.0,0.0,0.0,0.0,0.0,0.0,0.0,0.0,0.0,0.0,0.0,0.0,0.0,0.0,0.0,0.0,0.0,0.0,3.4908,3.4792,3.4771,3.4752,3.4752,3.4792,3.487,3.5001,0.0,0.0,0.0,0.0,0.0,0.0,0.0,0.0,0.0,0.0,0.0,0.0,0.0,0.0,0.0,0.0,0.0,0.0,0.0,0.0,0.0,0.0,0.0,0.0,0.0,0.0,0.0,3.1519,0.0,0.0,0.0,0.0,0.0,0.0,0.0,0.0,0.0,0.0,0.0,0.0,0.0,0.0,3.5168,3.5821,3.5948,3.5986,0.0,0.0,3.6021,3.6015,3.6012,3.6021,0.0,0.0,0.0,0.0,0.0,0.0,0.0,0.0,0.0,0.0,0.0,0.0,0.0,0.0,0.0,0.0,0.0,0.0,0.0,0.0,0.0,0.0,0.0,0.0,0.0,0.0,0.0,0.0,0.0,0.0,0.0,0.0,0.0,0.0,0.0,0.0,0.0,0.0,0.0,0.0,0.0,0.0,0.0,0.0,0.0,0.0,0.0,0.0,0.0,0.0,0.0,0.0,0.0,0.0,3.4722,3.4708,3.4666,3.4604,3.4604,3.4623,3.4687,3.4809,3.4888,3.5019,0.0,0.0,0.0,0.0,0.0,0.0,0.0,0.0,0.0,0.0,0.0,0.0,0.0,0.0,0.0,0.0,0.0,0.0,0.0,0.0,0.0,0.0,0.0,0.0,0.0,0.0,0.0,0.0,0.0,0.0,0.0,0.0,0.0,0.0,0.0,0.0,0.0,0.0,0.0,0.0,0.0,3.5833,3.5891,3.5903,3.5943,0.0,3.6001,3.6018,3.6012,3.6015,3.6013,3.6016,0.0,0.0,0.0,0.0,0.0,0.0,0.0,0.0,0.0,0.0,0.0,0.0,0.0,0.0,0.0,0.0,0.0,0.0,0.0,0.0,0.0,0.0,0.0,0.0,0.0,0.0,0.0,0.0,0.0,0.0,0.0,0.0,0.0,0.0,0.0,0.0,0.0,0.0,0.0,0.0,0.0,0.0,0.0,0.0,0.0,0.0,0.0,0.0,0.0,0.0,0.0,0.0,0.0,3.447,3.4431,3.4386,3.434,3.434,3.4358,3.4409,3.4558,3.4628,3.4811,0.0,0.0,0.0,0.0,0.0,0.0,0.0,0.0,0.0,0.0,0.0,0.0,0.0,0.0,0.0,0.0,0.0,0.0,0.0,0.0,0.0,0.0,0.0,0.0,0.0,0.0,0.0,0.0,3.389,3.4417,3.4925,0.0,0.0,0.0,0.0,0.0,0.0,0.0,0.0,0.0,0.0,3.5892,3.5892,3.6364,0.0,0.0,3.7207,3.7538,3.7546,3.7576,3.7597,3.7595,3.7606,0.0,0.0,0.0,0.0,0.0,0.0,0.0,0.0,0.0,0.0,0.0,0.0,0.0,0.0,0.0,0.0,0.0,0.0,0.0,0.0,0.0,0.0,0.0,0.0,0.0,0.0,0.0,0.0,0.0,0.0,0.0,0.0,0.0,0.0,0.0,0.0,0.0,0.0,0.0,0.0,0.0,0.0,0.0,0.0,0.0,0.0,0.0,0.0,0.0,0.0,0.0,0.0,3.4541,3.4501,3.471,3.477,3.4814,3.4814,3.4847,3.4995,3.5133,3.5293,0.0,0.0,0.0,0.0,0.0,0.0,0.0,0.0,0.0,0.0,0.0,0.0,0.0,0.0,0.0,0.0,0.0,0.0,0.0,0.0,0.0,0.0,0.0,0.0,0.0,0.0,0.0,0.0,3.4736,3.5321,3.5946,0.0,0.0,0.0,0.0,0.0,0.0,0.0,0.0,0.0,0.0,3.6358,3.6611,3.7164,3.7572,3.7584,3.8107,3.8521,3.8512,3.8545,3.8572,3.8613,0.0,0.0,0.0,0.0,0.0,0.0,0.0,0.0,0.0,0.0,0.0,0.0,0.0,0.0,0.0,0.0,0.0,0.0,0.0,0.0,0.0,0.0,0.0,0.0,0.0,0.0,0.0,2.6027,0.0,0.0,2.6449,0.0,0.0,0.0,0.0,0.0,0.0,0.0,0.0,0.0,0.0,0.0,0.0,0.0,0.0,0.0,0.0,0.0,0.0,0.0,0.0,0.0,0.0,3.5052,3.5018,3.5705,3.6127,3.6127,3.6164,3.6195,3.6297,3.6496,3.6652,3.6831,0.0,0.0,0.0,0.0,0.0,0.0,0.0,0.0,0.0,0.0,0.0,0.0,0.0,0.0,0.0,0.0,0.0,0.0,0.0,0.0,0.0,0.0,0.0,0.0,0.0,0.0,3.5888,3.597,3.5974,0.0,0.0,0.0,0.0,0.0,0.0,0.0,0.0,0.0,3.6985,3.7094,3.7386,3.8202,3.8354,3.8403,3.8474,3.8511,3.8532,3.8583,3.8567,3.852,0.0,0.0,0.0,0.0,0.0,0.0,0.0,0.0,0.0,0.0,0.0,0.0,0.0,0.0,0.0,0.0,0.0,0.0,0.0,0.0,0.0,0.0,0.0,0.0,0.0,0.0,0.0,2.836,2.8541,0.0,0.0,0.0,0.0,0.0,0.0,0.0,0.0,0.0,0.0,0.0,3.0559,3.0575,0.0,0.0,0.0,0.0,0.0,0.0,0.0,0.0,0.0,0.0,0.0,0.0,3.5478,3.5472,3.5726,3.5854,3.5872,3.5854,3.5945,3.6113,3.6229,3.6463,3.6833,0.0,0.0,0.0,0.0,0.0,0.0,0.0,0.0,0.0,0.0,0.0,0.0,0.0,0.0,0.0,0.0,0.0,0.0,0.0,0.0,0.0,0.0,0.0,0.0,0.0,3.6005,0.0,0.0,0.0,0.0,0.0,0.0,0.0,0.0,0.0,0.0,3.7235,3.7669,3.793,3.7972,3.8069,3.8372,3.8902,3.9276,0.0,0.0,0.0,0.0,0.0,0.0,0.0,0.0,0.0,0.0,0.0,0.0,0.0,0.0,3.9848,3.8701,3.8521,3.8517,3.8517,0.0,0.0,0.0,0.0,0.0,0.0,0.0,0.0,0.0,0.0,0.0,0.0,0.0,0.0,2.923,2.9471,2.9723,0.0,0.0,0.0,0.0,0.0,0.0,0.0,0.0,3.0422,3.0713,3.1058,3.1094,3.1546,3.2293,3.2347,3.2739,0.0,0.0,0.0,0.0,0.0,0.0,0.0,0.0,3.5933,3.5951,3.624,3.6366,3.6366,3.6399,3.6483,3.663,3.682,3.7085,3.753,3.7785,3.7995,0.0,0.0,0.0,0.0,0.0,0.0,0.0,0.0,0.0,0.0,0.0,0.0,0.0,0.0,0.0,0.0,0.0,0.0,0.0,0.0,0.0,0.0,0.0,3.6509,0.0,0.0,0.0,0.0,0.0,0.0,0.0,0.0,0.0,3.7734,3.807,3.8502,3.8788,3.8829,3.8917,3.9247,0.0,0.0,0.0,0.0,0.0,0.0,0.0,4.1101,4.1108,4.1116,4.1107,4.1113,4.1112,4.111,4.1108,0.0,0.0,3.9611,3.9412,3.9412,3.9408,3.9169,3.897,3.897,3.8716,3.8521,0.0,0.0,0.0,0.0,2.6808,0.0,0.0,0.0,2.8162,2.8565,0.0,2.9172,0.0,0.0,0.0,0.0,2.9929,3.0611,0.0,0.0,3.1345,3.1648,3.1665,3.1585,3.1983,3.2694,3.2711,3.3283,3.421,3.3969,0.0,0.0,0.0,0.0,0.0,0.0,3.6435,3.6453,3.7166,3.7559,3.7541,3.7613,3.7739,3.7881,3.8168,3.8541,3.8936,3.9055,3.9309,3.9614,3.9072,0.0,0.0,0.0,0.0,0.0,0.0,0.0,0.0,0.0,0.0,0.0,0.0,0.0,0.0,0.0,0.0,0.0,0.0,0.0,0.0,3.6683,0.0,0.0,0.0,0.0,0.0,0.0,0.0,0.0,0.0,3.9404,3.861,3.8513,3.8769,3.9539,0.0,0.0,0.0,0.0,4.0917,4.0963,4.0984,4.0993,4.0987,4.1056,4.11,4.1104,0.0,0.0,4.1113,4.1113,4.1113,4.1108,4.1101,4.1111,4.1072,4.0991,4.1026,4.1019,4.0364,3.9887,3.9809,3.9267,3.8721,2.5168,0.0,0.0,0.0,0.0,2.7546,2.7907,2.829,2.8634,2.9087,2.9543,2.9831,0.0,0.0,0.0,0.0,0.0,0.0,3.1452,3.1905,3.2043,3.232,3.2747,3.2747,3.2964,3.3192,3.3219,3.3516,3.3997,3.4431,3.4565,3.4446,0.0,0.0,0.0,0.0,3.6847,3.6847,3.7117,3.7261,3.7261,3.7354,3.7503,3.7667,3.7916,3.8174,3.8478,3.8652,3.8931,3.9229,3.9258,0.0,0.0,0.0,0.0,0.0,0.0,0.0,0.0,0.0,0.0,0.0,0.0,0.0,0.0,0.0,0.0,0.0,0.0,0.0,3.7619,3.7816,3.8061,0.0,0.0,0.0,0.0,0.0,0.0,0.0,0.0,0.0,4.017,4.016,4.0238,0.0,0.0,4.0546,4.0798,4.0858,4.0888,4.0917,4.0963,0.0,4.0987,4.1019,4.1037,4.1094,4.1104,4.1111,4.1099,4.1107,4.1112,4.1113,4.1112,4.111,4.1105,4.1116,4.1108,4.1085,4.089,4.073,4.0711,4.0516,4.034,2.5215,2.6004,2.6089,2.6361,2.6797,2.7195,2.755,2.8012,2.8647,2.925,2.9809,3.0506,3.0991,3.1355,3.1592,0.0,0.0,0.0,3.2215,3.263,3.2605,3.2757,3.3117,3.3177,3.3388,3.3717,3.3744,3.4041,3.4517,3.4925,3.5103,3.5036,0.0,3.6033,3.6107,3.6544,3.6829,3.6869,3.693,3.693,3.693,3.7105,3.7279,3.7484,3.7667,3.7882,3.8128,3.8372,3.8603,3.8884,3.9192,3.9433,0.0,0.0,0.0,0.0,0.0,0.0,0.0,0.0,0.0,0.0,0.0,3.8415,3.8415,0.0,0.0,0.0,3.8352,3.85,3.8782,3.8811,0.0,0.0,0.0,0.0,0.0,0.0,0.0,4.0801,4.0859,4.0839,4.0796,4.0837,4.0828,4.0796,4.0804,4.0804,4.0804,0.0,4.0867,4.0888,4.0917,4.0971,4.0979,4.0981,4.1006,4.109,4.1097,4.1104,4.1108,4.1116,4.1103,4.1108,4.1112,4.1113,4.1112,4.1128,4.1123,4.1099,4.1114,4.1108,4.1108,4.1108,4.1108,2.5294,2.5444,2.5213,2.5452,2.5979,2.6332,2.6761,2.721,2.8359,2.9129,2.9726,3.086,3.1518,3.1885,3.2318,0.0,3.2944,3.2927,3.2961,3.3028,3.3028,3.3061,3.3111,3.3128,3.3512,3.4258,3.4258,3.4621,3.5345,3.5333,3.5424,3.5577,3.6002,3.6259,3.6444,3.6444,3.6502,3.6643,3.6661,3.6702,3.6702,3.6869,3.7066,3.7276,3.7429,3.7649,3.7864,3.8124,3.8336,3.8554,3.8884,3.9137,3.935,0.0,0.0,0.0,0.0,0.0,0.0,0.0,0.0,0.0,0.0,0.0,0.0,0.0,0.0,3.8491,3.85,0.0,3.9622,3.9691,0.0,0.0,0.0,4.0807,4.0809,4.0798,4.0807,4.0807,0.0,0.0,4.08,4.0788,4.0788,4.0788,4.0808,4.0808,4.08,4.08,4.0843,4.0886,4.0908,4.0917,4.0968,4.0986,4.1006,4.1081,4.1113,4.1117,4.1104,4.1111,4.1108,4.1111,4.1107,4.1113,4.1113,4.1152,4.1171,4.111,4.1101,4.1114,4.1111,4.1108,4.1108,2.4795,2.4975,2.4886,2.538,2.6182,2.6644,2.6981,2.7399,2.8136,2.8708,2.9241,2.9879,3.0678,3.1437,3.1805,3.2071,3.2302,3.2302,3.2659,3.3277,3.3277,3.3573,3.4116,3.4116,3.431,3.4587,3.4572,3.475,3.4994,3.503,3.5077,3.5228,3.5367,3.5577,3.5932,3.6079,3.6105,3.6165,3.6318,3.6502,3.6719,3.6725,3.6886,3.7048,3.7143,3.7241,3.7521,3.7721,3.7949,3.8201,3.8473,3.8766,3.9101,3.9298,0.0,0.0,0.0,0.0,0.0,0.0,0.0,0.0,0.0,4.0111,4.0122,0.0,4.013,0.0,4.0133,4.0185,4.0333,4.0404,0.0,0.0,4.0781,4.0792,4.0804,4.0796,4.0796,4.0812,4.0812,4.08,4.0803,4.0803,4.0803,4.0803,4.0803,4.0803,4.0803,4.0808,4.08,4.0823,4.0867,4.0908,4.0926,4.0972,4.1019,4.1081,4.11,4.1113,4.1117,4.1104,4.1108,4.1108,4.1114,4.1105,4.1113,4.1152,4.1191,4.1171,4.1151,4.111,4.1114,4.1108,4.1108,2.5348,2.5428,2.5428,2.5734,2.6324,2.6445,2.6708,2.7143,2.806,2.8757,2.93,3.0308,3.119,3.199,3.2225,3.2526,3.2789,3.2854,3.321,3.3778,3.3794,3.4072,3.448,3.448,3.4546,3.4594,3.4611,3.4659,3.4707,3.4725,3.4773,3.4851,3.4899,3.5024,3.5321,3.5605,3.58,3.5888,3.6088,3.6276,3.6513,3.6537,3.6626,3.6788,3.6869,3.7009,3.7203,3.7429,3.7631,3.7915,3.8135,3.8415,3.8725,3.8923,3.9173,0.0,0.0,0.0,0.0,0.0,0.0,0.0,0.0,0.0,0.0,0.0,4.0655,4.0655,4.0648,4.0654,4.0588,4.0635,4.0648,4.0636,4.0688,4.0707,4.0707,4.0713,4.0713,4.07,4.072,4.0707,4.0713,4.0713,4.0694,4.0713,4.0713,4.0726,4.079,4.0803,4.0808,4.08,4.0834,4.0868,4.0936,4.0984,4.1007,4.1045,4.1072,4.1105,4.1113,4.1101,4.1108,4.1108,4.1108,4.1116,4.1111,4.1152,4.1191,4.1191,4.1152,4.1133,4.1103,4.1114,4.1108,2.6201,2.6201,2.6201,2.6258,2.6352,2.6194,2.6396,2.6856,2.8111,2.9001,2.974,3.1255,3.2176,3.2695,3.2904,3.324,3.3591,3.3745,3.3949,3.4201,3.4201,3.43,3.4448,3.4448,3.4399,3.4448,3.4399,3.4399,3.4399,3.4399,3.4399,3.4399,3.4546,3.4594,3.4643,3.5055,3.5424,3.5728,3.5888,3.6036,3.6234,3.6268,3.6343,3.6444,3.665,3.6829,3.6948,3.7143,3.7354,3.7631,3.7792,3.8052,3.8336,3.8504,3.8748,0.0,3.9219,0.0,0.0,0.0,0.0,0.0,0.0,0.0,0.0,4.0583,4.0579,4.0579,4.0579,4.0579,4.0579,4.0593,4.0588,4.0582,4.0602,4.0588,4.0598,4.0593,4.0588,4.0588,4.0588,4.0588,4.0588,4.0588,4.0588,4.0602,4.0602,4.0654,4.0746,4.0778,4.0771,4.0796,4.0804,4.0858,4.0945,4.0976,4.0993,4.1007,4.1056,4.1115,4.1109,4.1101,4.1108,4.1108,4.1108,4.1114,4.1105,4.1151,4.1191,4.1191,4.1191,4.1172,4.111,4.1099,4.1111,2.6314,2.6201,2.6201,2.6201,2.6245,2.6659,2.7024,2.7407,2.8228,2.9143,3.0064,3.0852,3.1437,3.1951,3.2342,3.2711,3.2964,3.3277,3.3503,3.3642,3.3745,3.3899,3.4,3.4,3.4,3.4,3.4,3.3949,3.3848,3.3848,3.3899,3.4,3.405,3.4151,3.4349,0.0,0.0,0.0,3.5622,3.5773,3.5878,3.5975,3.6148,3.6343,3.6402,0.0,3.6725,3.6829,3.7009,3.7223,3.7354,0.0,0.0,0.0,0.0,0.0,0.0,0.0,0.0,0.0,0.0,0.0,3.9939,4.0139,4.0323,4.0413,4.0447,4.0447,4.0447,4.0447,4.0447,4.0492,4.0519,4.0519,4.0559,4.0593,4.0583,4.0593,4.0588,4.0588,4.0588,4.0588,4.0588,4.0588,4.0588,4.0588,4.0588,4.0621,4.0673,4.0706,4.0713,4.0726,4.075,4.0828,4.0907,4.0971,4.1062,4.0993,4.1058,4.1139,4.1193,4.1187,4.1136,4.1186,4.1108,4.1153,4.1164,4.1151,4.1308,4.1211,4.123,4.1172,4.1113,4.1125,4.1108,2.6302,2.6201,2.6201,2.6201,0.0,2.6752,2.7079,2.7335,2.8118,2.9058,3.0129,3.0613,3.1102,3.161,3.1951,3.2272,3.2586,3.2819,3.3118,3.3398,3.345,3.3607,3.3797,3.3797,3.3797,3.3797,3.3781,3.3745,3.3694,3.3694,3.3745,3.3813,3.3797,3.3864,3.4,3.4151,3.4529,3.5165,3.5304,3.5487,3.5684,3.5756,3.5932,3.6131,3.6148,0.0,0.0,0.0,0.0,0.0,0.0,0.0,0.0,3.7792,0.0,3.8234,3.8541,3.8796,3.8943,3.9146,3.9324,3.9477,3.9693,3.9897,4.0177,4.0252,4.0307,4.0342,4.0342,4.0381,4.04,4.043,4.0444,4.0444,4.0527,4.0539,4.0543,4.0554,4.0564,4.0549,4.0564,4.0549,4.0549,4.0549,4.0564,4.0569,4.0935,4.1204,4.1147,4.0863,4.0668,4.0707,4.0757,4.0826,4.0937,4.1344,4.1602,4.1673,4.2032,4.2298,4.2378,4.2373,4.2366,4.2396,4.238,4.2382,4.2394,4.2421,4.2441,4.2441,4.2422,4.2422,4.2339,4.1709,4.1116,2.6371,2.6283,2.627,2.627,2.6283,2.682,2.7092,2.7214,2.8052,0.0,0.0,3.0387,3.0851,3.1364,3.1552,3.1894,3.2287,3.2437,3.278,3.3134,3.3203,3.3361,3.3607,3.3591,3.3642,3.3658,3.3658,3.3607,3.3607,3.3555,3.3539,3.3555,3.3555,3.3591,3.3658,3.3848,3.425,3.4739,3.4947,3.5182,3.5441,3.5532,3.5728,3.5932,3.5932,3.6045,3.6216,3.6276,3.6444,3.669,3.6869,3.7027,3.722,3.7466,3.7703,3.7915,3.8153,3.8396,3.8609,3.8778,3.8998,3.9229,3.9477,3.9743,4.004,4.012,4.0196,4.0252,4.0271,4.029,4.0366,4.0363,4.0362,4.0362,4.0432,4.0485,4.0466,4.0495,4.0508,4.0508,4.0489,4.0489,4.0504,4.0677,4.0719,4.0835,4.1508,4.2027,4.195,4.1547,4.1252,4.1306,4.1415,4.1346,4.1429,4.1937,4.2422,4.2544,4.3089,4.3591,4.368,4.37,4.3712,4.3548,4.3687,4.3635,4.3665,4.3573,4.3711,4.3711,4.3711,4.371,4.3576,4.258,4.1609,2.6752,2.6465,2.6452,2.6452,2.6465,2.6875,2.7348,2.7947,2.8392,2.8894,2.9421,3.0068,3.0507,3.0747,3.1321,3.1552,3.1652,3.216,3.2453,3.2563,3.2812,3.3112,3.3346,3.3346,3.3414,3.3487,3.3398,3.3309,3.3203,3.3058,3.3005,3.302,3.3005,3.3181,3.3361,3.3487,3.3797,3.4201,3.4707,3.493,3.4977,3.5337,3.5549,3.5667,3.5773,3.5905,3.6019,3.6148,3.6233,3.6343,3.6485,3.669,3.7027,3.7147,3.7337,3.7649,3.7846,3.8072,3.8328,3.8446,3.8651,3.8999,3.9234,3.9483,3.9807,3.9956,4.0038,4.0058,4.0078,4.0137,4.0138,4.0196,4.0215,4.0252,4.0344,4.0396,4.0415,4.0466,4.0518,4.0556,4.0492,4.0546,4.07,4.12,4.1623,4.1739,4.2354,4.2931,4.2986,4.2876,4.2821,4.2864,4.2912,4.2962,4.2892,4.3149,4.3326,4.34,4.3561,4.3831,4.3899,4.3914,4.3903,4.3762,4.3899,4.3847,4.382,4.371,4.3848,4.3906,4.3906,4.3865,4.3905,4.3512,4.3063,2.7418,2.7331,2.7344,2.7415,2.7556,2.8074,2.8546,2.9025,2.951,2.9769,2.9931,3.0813,3.1363,3.1675,3.209,3.2392,3.2587,3.297,3.3261,3.3475,3.362,3.3861,3.414,3.414,3.4195,3.425,3.4195,3.414,3.4085,3.4029,3.3989,3.3989,3.3989,3.4045,3.4195,3.4399,3.4546,3.4745,3.459,3.4594,3.4899,3.5105,3.5274,3.5566,3.5611,3.5745,3.5888,3.5949,3.6079,3.6233,3.6335,3.6485,3.6708,3.693,3.7126,3.7279,3.754,3.7811,3.7953,3.8241,3.8528,3.8815,3.8989,3.9183,3.9401,3.9628,3.9785,3.9851,3.9895,3.9956,4.0032,4.0077,4.0099,4.0138,4.0234,4.0289,4.0326,4.0398,4.0622,4.1058,4.1133,4.1357,4.1854,4.2258,4.2508,4.2585,4.322,4.3893,4.4355,4.4498,4.418,4.3434,4.3225,4.3292,4.3431,4.3873,4.4141,4.4236,4.4662,4.4935,4.5045,4.5041,4.5031,4.5106,4.509,4.5112,4.5082,4.5095,4.5098,4.5098,4.5097,4.5112,4.5085,4.4784,4.4114,2.7995,2.8109,2.8109,2.8243,2.8533,2.9061,2.9487,2.9837,3.0596,3.0799,3.0759,3.1565,3.2112,3.2384,3.2767,3.3051,3.3376,3.3607,3.3879,3.4237,3.4296,3.4488,3.4794,3.4836,3.4836,3.4893,3.4836,3.4836,3.4852,3.4794,3.4794,3.4794,3.4778,3.4852,3.4852,3.5122,3.5203,3.5252,3.4771,3.4738,3.5185,3.5283,3.5523,3.584,3.595,3.6004,3.5955,3.6027,3.6076,3.614,3.6233,3.636,3.6485,3.6771,3.6948,3.7027,3.7317,3.7558,3.7684,3.8056,3.8391,3.8601,3.8719,3.8862,3.9017,3.9272,3.9483,3.9609,3.9683,3.9807,3.9883,3.9951,3.9996,4.0057,4.0309,4.0482,4.0502,4.0729,4.1165,4.185,4.1963,4.2285,4.2896,4.3258,4.347,4.3739,4.422,4.4874,4.5488,4.564,4.5073,4.4253,4.3781,4.391,4.3974,4.4509,4.4955,4.5083,4.5587,4.5881,4.6053,4.6147,4.6197,4.614,4.6209,4.615,4.6248,4.6225,4.6172,4.6113,4.6072,4.6184,4.6102,4.5724,4.5031,2.8303,2.8109,2.816,2.8328,2.8728,2.9171,2.9539,2.9931,3.1031,3.1598,3.1654,3.1734,3.1895,3.2047,3.2428,3.2825,3.3125,3.3391,3.3637,3.388,3.4074,3.4312,3.4549,3.4666,3.4794,3.4883,3.4872,3.486,3.4818,3.4654,3.4549,3.4534,3.4534,3.4623,3.4767,3.4883,3.5096,3.5331,3.5498,3.5776,3.6097,3.6549,3.6837,3.6837,3.7267,3.7158,3.6501,3.6666,3.6542,3.6104,3.6217,3.631,3.652,3.6661,3.6806,3.7023,3.7105,3.7261,3.7594,3.7863,3.814,3.8313,3.846,3.8614,3.8895,3.8976,3.912,3.9425,3.9607,3.9623,3.9642,3.9773,3.9958,4.0176,4.0715,4.1161,4.1339,4.2067,4.2623,4.268,4.2811,4.2921,4.3209,4.3799,4.447,4.5009,4.5182,4.5374,4.5528,4.5622,4.5618,4.5414,4.5457,4.5457,4.5531,4.5673,4.5731,4.5881,4.6016,4.6135,4.6189,4.6211,4.6216,4.6277,4.6293,4.6295,4.6295,4.6301,4.6289,4.6289,4.6305,4.63,4.629,4.6167,4.5753,2.8937,2.9101,2.924,2.954,2.9925,3.0467,3.0745,3.0975,3.1823,3.2274,3.2387,3.2651,3.2976,3.3178,3.3446,3.3828,3.4153,3.4411,3.4666,3.4874,3.5154,3.5324,3.5508,3.5645,3.5782,3.5827,3.5782,3.5782,3.5782,3.5737,3.5676,3.5676,3.5676,3.5737,3.5782,3.5888,3.6053,3.6303,3.6579,3.6867,3.7126,3.6926,3.69,3.7052,3.7369,3.7513,3.7275,3.7462,3.7495,3.7325,3.7442,3.7558,3.7767,3.7939,3.8066,3.8174,3.7958,3.7934,3.824,3.7972,3.8061,3.876,3.8914,3.9228,3.99,4.0102,4.0271,4.0341,3.9796,3.9589,4.0127,4.034,4.0583,4.1108,4.1647,4.1927,4.199,4.2423,4.2887,4.3406,4.3599,4.3886,4.4381,4.4801,4.5201,4.5547,4.5586,4.5586,4.5586,4.5586,4.5618,4.5684,4.5715,4.5791,4.588,4.5898,4.5964,4.6066,4.6111,4.6142,4.617,4.6236,4.6264,4.6296,4.6293,4.6301,4.6305,4.6287,4.6289,4.6306,4.6303,4.63,4.6303,4.63,4.6085,2.953,2.9844,3.01,3.0407,3.0849,3.1338,3.1636,3.1817,3.2431,3.2775,3.2846,3.3382,3.3675,3.3896,3.421,3.4534,3.4868,3.5082,3.5329,3.5688,3.591,3.6085,3.6211,3.6414,3.6492,3.6492,3.6461,3.6476,3.6492,3.6492,3.6492,3.6492,3.6492,3.6492,3.6507,3.6693,3.6832,3.6999,3.7329,3.761,3.7774,3.7426,3.7265,3.7477,3.7869,3.8053,3.795,3.8241,3.8359,3.8196,3.8334,3.8459,3.8584,3.8833,3.9025,3.9058,3.8796,3.873,3.8915,3.8487,3.8542,3.9281,3.9464,3.9876,4.0559,4.0894,4.1046,4.1048,4.03,4.0132,4.0765,4.1004,4.1327,4.1995,4.2372,4.2659,4.2754,4.3019,4.3605,4.4204,4.4381,4.4652,4.5303,4.551,4.5566,4.5586,4.5586,4.5586,4.5603,4.5622,4.5657,4.5684,4.57,4.5771,4.5861,4.5898,4.5964,4.6047,4.6111,4.613,4.6176,4.6255,4.6288,4.63,4.6293,4.6289,4.6289,4.6289,4.6288,4.6295,4.629,4.6295,4.6303,4.63,4.6296,2.9767,2.9869,3.0215,3.0572,3.0986,3.1413,3.1783,3.2169,3.2574,3.2775,3.2988,3.3452,3.3744,3.3911,3.4074,3.4399,3.4868,3.4935,3.5249,3.5688,3.5894,3.6085,3.6211,3.6399,3.6492,3.6492,3.6554,3.6554,3.6492,3.6492,3.6492,3.6476,3.6507,3.6507,3.6554,3.6816,3.6939,3.706,3.7405,3.7759,3.7918,3.8124,3.8349,3.863,3.9265,3.9175,3.8707,3.8954,3.8921,3.8242,3.8465,3.8545,3.8694,3.8911,3.9172,3.935,3.9388,3.9435,3.9481,3.9536,3.9669,3.9907,4.0068,4.0274,4.0727,4.087,4.1081,4.1134,4.1181,4.1248,4.1549,4.1669,4.1819,4.2152,4.2814,4.3321,4.3577,4.4175,4.4801,4.5036,4.5084,4.5207,4.5457,4.5549,4.5586,4.5586,4.5586,4.5586,4.5622,4.5676,4.569,4.5706,4.575,4.5805,4.5893,4.5917,4.5975,4.6066,4.6107,4.6111,4.6189,4.6236,4.6269,4.6296,4.6303,4.6289,4.6289,4.6289,4.6289,4.6297,4.6303,4.6303,4.63,4.63,4.6296,2.9934,3.0216,3.0368,3.0672,3.1198,3.1482,3.179,3.2241,3.2561,3.286,3.3227,3.3605,3.3925,3.4218,3.4375,3.4616,3.492,3.5148,3.5459,3.5752,3.6006,3.6148,3.6211,3.6461,3.6616,3.6662,3.6739,3.6816,3.6816,3.6816,3.6816,3.6847,3.6832,3.6817,3.6847,3.6908,3.7015,3.715,3.7329,3.7567,3.7876,3.8075,3.8399,3.8805,3.9309,3.9473,3.9292,3.9798,3.9873,3.9679,3.9886,4.0031,4.0112,4.0297,4.0506,4.0701,4.0385,4.0165,4.0176,3.9858,3.9962,4.0539,4.0796,4.1187,4.1753,4.1994,4.2196,4.2357,4.2516,4.2653,4.2691,4.2576,4.2627,4.3237,4.3746,4.4054,4.4263,4.4625,4.4943,4.5061,4.5237,4.5381,4.5438,4.5531,4.5586,4.5586,4.5586,4.5586,4.5622,4.5657,4.569,4.5719,4.5781,4.5814,4.5893,4.5929,4.5994,4.6056,4.6115,4.6151,4.6201,4.6264,4.6296,4.629,4.629,4.6289,4.6289,4.6289,4.6305,4.63,4.629,4.63,4.63,4.6296,4.6269,2.9985,3.0355,3.0406,3.0797,3.1347,3.1529,3.1896,3.2372,3.2561,3.2931,3.3396,3.3758,3.4063,3.4394,3.4727,3.4949,3.5082,3.5359,3.5604,3.5879,3.6148,3.6336,3.6399,3.6662,3.68,3.68,3.6923,3.6999,3.6999,3.6999,3.6999,3.7015,3.7017,3.7002,3.7015,3.7029,3.7118,3.7178,3.7329,3.7567,3.7876,3.8091,3.8343,3.8805,3.9148,3.9484,3.9677,4.0238,4.0517,4.0549,4.0776,4.0918,4.1012,4.1111,4.1296,4.1463,4.113,4.085,4.0883,4.0535,4.0624,4.1262,4.152,4.1912,4.2555,4.2747,4.2918,4.3086,4.3233,4.3358,4.3406,4.325,4.3367,4.3943,4.4248,4.444,4.4515,4.4693,4.4889,4.5038,4.5239,4.5381,4.5419,4.5513,4.5586,4.5586,4.5586,4.5603,4.562,4.5654,4.5703,4.5712,4.5786,4.5841,4.5905,4.5953,4.6016,4.6093,4.615,4.6183,4.6231,4.6269,4.6303,4.6297,4.6303,4.6305,4.6288,4.6289,4.6305,4.6301,4.6293,4.63,4.6296,4.6292,4.6264,2.9819,3.0355,3.0393,3.0872,3.1508,3.1616,3.2028,3.2632,3.2704,3.3072,3.3605,3.3827,3.4157,3.4496,3.4964,3.5294,3.5489,3.5554,3.5812,3.6133,3.6414,3.6538,3.6723,3.6862,3.7015,3.7015,3.6999,3.6999,3.706,3.706,3.706,3.6999,3.6999,3.7091,3.6999,3.7131,3.7235,3.7298,3.7508,3.7759,3.7934,3.8107,3.8375,3.8733,3.8985,3.9239,3.9677,4.0188,4.0451,4.0514,4.0758,4.0995,4.1134,4.1186,4.1342,4.156,4.1569,4.1569,4.1552,4.1595,4.1654,4.1906,4.2127,4.232,4.2534,4.2727,4.286,4.3049,4.3142,4.3232,4.3411,4.3579,4.3758,4.3992,4.4188,4.4364,4.4468,4.4632,4.4815,4.5061,4.5279,4.54,4.5419,4.5513,4.5586,4.5586,4.5586,4.5622,4.5673,4.5687,4.5731,4.5786,4.5827,4.588,4.5929,4.6005,4.6056,4.6122,4.6157,4.6215,4.6231,4.6269,4.6303,4.6295,4.6306,4.6288,4.6288,4.6301,4.63,4.6293,4.6303,4.63,4.6292,4.6288,4.626,2.9806,3.0368,3.0432,3.0885,3.1522,3.1582,3.1996,3.2704,3.2846,3.3213,3.3813,3.4157,3.4428,3.4794,3.5243,3.5589,3.5864,3.6085,3.6304,3.6429,3.66,3.6739,3.6923,3.7029,3.7225,3.7301,3.7361,3.7361,3.7361,3.7361,3.7377,3.7361,3.7361,3.7361,3.7361,3.7389,3.7373,3.7405,3.7583,3.7759,3.7934,3.8123,3.8391,3.875,3.8914,3.9222,3.9661,4.002,4.032,4.05,4.068,4.0918,4.1117,4.1192,4.1328,4.1542,4.1604,4.1604,4.1604,4.1815,4.1945,4.2048,4.2181,4.2369,4.257,4.2649,4.2765,4.2956,4.3105,4.3214,4.3322,4.3603,4.3837,4.3851,4.4135,4.4325,4.4411,4.4659,4.4914,4.508,4.53,4.54,4.5419,4.5513,4.5586,4.5586,4.5603,4.564,4.5673,4.5684,4.5731,4.5776,4.5847,4.5905,4.5953,4.6037,4.6093,4.6146,4.619,4.622,4.6255,4.6273,4.6284,4.6297,4.6287,4.6289,4.6301,4.6293,4.629,4.6306,4.6303,4.6296,4.6292,4.6279,4.6231,2.9664,3.0139,3.0368,3.0823,3.1522,3.1596,3.2082,3.2704,3.3002,3.3437,3.3951,3.4293,3.4698,3.5126,3.5504,3.5846,3.618,3.6538,3.6754,3.6831,3.6846,3.6968,3.715,3.7389,3.7492,3.7658,3.7658,3.7642,3.7658,3.7642,3.7658,3.7642,3.7658,3.7614,3.7583,3.7626,3.761,3.7642,3.7759,3.7934,3.8049,3.8164,3.8448,3.875,3.8876,3.9185,3.9661,3.9849,4.0104,4.0436,4.068,4.0918,4.1152,4.1174,4.1293,4.1498,4.156,4.1604,4.1604,4.1797,4.1962,4.2048,4.2139,4.2328,4.2512,4.2609,4.2709,4.2956,4.3087,4.3232,4.3339,4.3584,4.3804,4.3883,4.4135,4.4344,4.444,4.4719,4.4962,4.5106,4.526,4.5381,4.5419,4.5513,4.5586,4.5586,4.5622,4.5657,4.5706,4.57,4.5765,4.5824,4.5874,4.5917,4.5975,4.6056,4.6119,4.6176,4.6209,4.6226,4.6255,4.628,4.6295,4.6303,4.6289,4.6307,4.6297,4.629,4.6303,4.63,4.63,4.6296,4.6288,4.6236,4.6206,2.9378,2.9792,3.0228,3.0748,3.1347,3.173,3.2241,3.2717,3.3157,3.366,3.4074,3.4414,3.4883,3.5489,3.5861,3.6178,3.6492,3.6862,3.7136,3.7288,3.7285,3.7314,3.7417,3.7685,3.7817,3.7876,3.7876,3.7876,3.7876,3.7876,3.7876,3.7876,3.7849,3.7807,3.7743,3.7838,3.7796,3.7759,3.7992,3.8164,3.818,3.8351,3.8488,3.8805,3.8805,3.9061,3.9573,3.978,3.9986,4.0436,4.0728,4.0935,4.1076,4.1174,4.1265,4.1408,4.1515,4.1604,4.1648,4.1754,4.1902,4.2005,4.2097,4.2246,4.257,4.2649,4.2765,4.3067,4.3142,4.3286,4.3463,4.3686,4.3883,4.4023,4.4237,4.4411,4.4667,4.487,4.5014,4.5129,4.5281,4.5419,4.5419,4.5532,4.5586,4.5603,4.5657,4.569,4.57,4.5746,4.5824,4.586,4.5912,4.5972,4.6016,4.6084,4.6162,4.6177,4.622,4.625,4.6269,4.629,4.6303,4.6287,4.6289,4.6303,4.6295,4.629,4.6303,4.63,4.63,4.6296,4.6264,4.6231,4.6209,2.9378,2.9869,3.0228,3.0748,3.1347,3.1743,3.23,3.2917,3.3423,3.3922,3.4414,3.4964,3.5294,3.5569,3.6115,3.6429,3.6616,3.7089,3.7314,3.7405,3.7642,3.7743,3.7743,3.786,3.7934,3.7934,3.7934,3.7876,3.7876,3.7934,3.7934,3.7934,3.796,3.7886,3.7844,3.7895,3.7895,3.786,3.8049,3.8237,3.8237,3.8351,3.8544,3.875,3.8805,3.9077,3.9537,3.9849,4.0121,4.0483,4.0662,4.084,4.1047,4.1163,4.1237,4.1363,4.1515,4.1604,4.1648,4.1797,4.1962,4.2005,4.224,4.2468,4.257,4.2747,4.2918,4.3086,4.3233,4.3411,4.3513,4.3734,4.3992,4.4296,4.4411,4.4524,4.4738,4.4895,4.5057,4.5233,4.5341,4.54,4.5476,4.5531,4.5622,4.5657,4.5673,4.5726,4.575,4.5791,4.5833,4.5887,4.5937,4.5994,4.6076,4.6138,4.6183,4.6195,4.6231,4.6279,4.628,4.63,4.6307,4.6289,4.6305,4.6293,4.6293,4.6293,4.6287,4.63,4.6296,4.6288,4.625,4.6215,4.6209,2.9287,2.9677,3.0216,3.0748,3.1347,3.1803,3.2359,3.3058,3.3632,3.4182,3.4683,3.5228,3.5634,3.5925,3.6367,3.6739,3.6907,3.7314,3.761,3.7902,3.8173,3.8173,3.8148,3.8164,3.8205,3.8262,3.8221,3.8221,3.8221,3.8148,3.8107,3.8091,3.8116,3.81,3.8049,3.8075,3.8042,3.8033,3.818,3.8294,3.8294,3.8351,3.856,3.875,3.8805,3.9056,3.9531,3.9883,4.0138,4.0387,4.0583,4.0745,4.0953,4.1088,4.1226,4.1335,4.1515,4.1604,4.171,4.1876,4.2005,4.2072,4.2305,4.2508,4.2591,4.2786,4.2938,4.316,4.334,4.3497,4.3682,4.3942,4.4237,4.444,4.4605,4.4712,4.484,4.4962,4.5125,4.5256,4.5361,4.5419,4.5495,4.5568,4.5622,4.5693,4.5671,4.5719,4.5765,4.5805,4.5874,4.5925,4.5983,4.6037,4.6113,4.6169,4.6216,4.6226,4.6249,4.6296,4.6295,4.6307,4.6289,4.6306,4.6293,4.6303,4.6287,4.629,4.6306,4.63,4.6292,4.6279,4.6226,4.6196,4.6189,2.9209,2.9431,3.0126,3.0735,3.1408,3.1909,3.2561,3.3129,3.3908,3.4467,3.5001,3.5424,3.594,3.6476,3.6723,3.6997,3.7358,3.7685,3.8033,3.8375,3.8623,3.8606,3.8504,3.8544,3.8583,3.8694,3.8655,3.86,3.8544,3.8504,3.8448,3.8432,3.8448,3.8335,3.8278,3.8335,3.8351,3.8221,3.8351,3.8335,3.8335,3.8408,3.856,3.875,3.8914,3.9106,3.9528,3.9795,4.0003,4.0239,4.0554,4.0648,4.0745,4.1041,4.1163,4.1255,4.1436,4.1631,4.1797,4.1894,4.2023,4.2121,4.2351,4.2552,4.2688,4.2862,4.305,4.3251,4.341,4.3667,4.3942,4.4277,4.4468,4.4578,4.4764,4.4889,4.4943,4.5038,4.5151,4.5277,4.538,4.5419,4.5495,4.5549,4.564,4.5706,4.5719,4.5765,4.581,4.5847,4.5912,4.5972,4.6026,4.6075,4.6127,4.6196,4.6259,4.6279,4.6284,4.6297,4.6306,4.6289,4.6305,4.6295,4.629,4.6303,4.6303,4.6303,4.63,4.6296,4.6284,4.6236,4.6201,4.6164,4.6166,2.9209,2.9496,3.0292,3.0986,3.1556,3.2273,3.2988,3.3632,3.4264,3.4817,3.5424,3.5846,3.6226,3.6554,3.7013,3.7282,3.7535,3.7976,3.8448,3.8694,3.875,3.8843,3.8805,3.8821,3.8805,3.8805,3.875,3.875,3.875,3.8694,3.8694,3.8694,3.86,3.856,3.8504,3.8464,3.8391,3.8335,3.8391,3.8391,3.8391,3.8408,3.8504,3.8805,3.904,3.9268,3.9495,3.9692,3.9816,4.0037,4.0303,4.0583,4.068,4.0965,4.1134,4.1237,4.1338,4.1561,4.178,4.1937,4.2083,4.2264,4.245,4.2627,4.2806,4.3013,4.3232,4.341,4.3618,4.3865,4.4207,4.4383,4.4578,4.4764,4.4878,4.4995,4.5167,4.5235,4.5277,4.5361,4.5419,4.5494,4.5568,4.564,4.5673,4.5703,4.575,4.581,4.5852,4.5906,4.5949,4.6016,4.6066,4.6119,4.6183,4.6226,4.6273,4.6303,4.63,4.6288,4.6289,4.6305,4.6297,4.6293,4.629,4.6306,4.63,4.63,4.6296,4.6288,4.626,4.6226,4.6203,4.6162,4.6122,2.9365,2.9831,3.0457,3.1061,3.179,3.2431,3.3129,3.3839,3.4534,3.5133,3.5718,3.6148,3.6538,3.6892,3.7238,3.7535,3.796,3.8544,3.8892,3.904,3.9131,3.9239,3.9276,3.9239,3.9185,3.904,3.8914,3.8914,3.8914,3.8843,3.8805,3.8805,3.8711,3.8711,3.8655,3.856,3.8504,3.8448,3.8391,3.8391,3.8391,3.8408,3.8504,3.875,3.904,3.9251,3.9495,3.964,3.9782,3.9935,4.0237,4.0485,4.0631,4.0935,4.1088,4.1209,4.1321,4.1561,4.1823,4.1987,4.2115,4.2387,4.257,4.2747,4.292,4.316,4.3375,4.3548,4.3749,4.4036,4.4411,4.4632,4.4789,4.4865,4.5019,4.5133,4.5254,4.5277,4.5339,4.5419,4.5457,4.5531,4.5603,4.5673,4.5722,4.575,4.5776,4.5819,4.5874,4.5925,4.5994,4.6056,4.6111,4.6157,4.6234,4.6269,4.6278,4.6305,4.6289,4.6307,4.6297,4.6293,4.6306,4.6303,4.6306,4.6303,4.63,4.6296,4.6292,4.6284,4.6275,4.6228,4.6183,4.6146,4.6095,2.9521,3.0152,3.0609,3.1286,3.2023,3.2646,3.3339,3.4045,3.4654,3.5394,3.6037,3.6414,3.6876,3.7298,3.7519,3.796,3.8488,3.8947,3.9218,3.9379,3.952,3.9573,3.9625,3.9625,3.952,3.9362,3.9255,3.9131,3.9077,3.8985,3.8969,3.8914,3.886,3.8805,3.8805,3.8711,3.8616,3.856,3.852,3.8391,3.8391,3.8408,3.856,3.875,3.8969,3.9181,3.9392,3.9623,3.9731,3.9851,4.0137,4.032,4.0517,4.0789,4.1134,4.1192,4.1321,4.1561,4.1909,4.2019,4.2151,4.2468,4.2693,4.2865,4.3014,4.3286,4.3529,4.373,4.3974,4.4248,4.4542,4.4764,4.4914,4.501,4.5179,4.529,4.5337,4.5339,4.5419,4.5457,4.5531,4.5603,4.5657,4.5726,4.5754,4.5781,4.5805,4.5841,4.5912,4.596,4.6037,4.6084,4.6154,4.6206,4.6257,4.627,4.6287,4.6289,4.6305,4.6297,4.6303,4.6303,4.6303,4.63,4.6303,4.63,4.6296,4.6292,4.6308,4.6299,4.6259,4.6209,4.6154,4.6122,4.6037,2.9741,3.0432,3.1123,3.185,3.2632,3.3353,3.3977,3.4735,3.5148,3.5797,3.6414,3.6693,3.7042,3.7476,3.8017,3.856,3.9002,3.9272,3.9484,3.9625,3.9729,3.9729,3.9781,3.9781,3.9729,3.9625,3.9573,3.952,3.9415,3.9379,3.9255,3.9218,3.904,3.8969,3.8914,3.8821,3.8711,3.8672,3.856,3.8504,3.8464,3.8408,3.8504,3.875,3.8914,3.9094,3.9342,3.959,3.9696,3.9749,4.0104,4.0337,4.0517,4.0707,4.0926,4.1128,4.123,4.1516,4.1927,4.205,4.2239,4.2516,4.279,4.3014,4.3213,4.3442,4.373,4.3986,4.4277,4.4578,4.4813,4.4933,4.5057,4.517,4.5275,4.5378,4.5458,4.5494,4.553,4.553,4.5603,4.5673,4.5706,4.5754,4.5781,4.5838,4.586,4.5893,4.5953,4.5997,4.6066,4.613,4.6189,4.6249,4.6284,4.6288,4.6289,4.63,4.6293,4.629,4.63,4.63,4.63,4.6277,4.6296,4.6296,4.6292,4.6284,4.6275,4.624,4.6216,4.6169,4.6122,4.6056,4.5964,2.9985,3.0609,3.1334,3.1982,3.2775,3.3479,3.4249,3.4935,3.5539,3.6085,3.6631,3.7042,3.746,3.7902,3.8221,3.8727,3.9218,3.9537,3.9729,3.9867,3.9986,4.0037,4.007,4.007,4.0087,4.0037,3.9986,3.9833,3.9625,3.959,3.9537,3.9432,3.9309,3.9202,3.9148,3.8969,3.886,3.8821,3.8711,3.86,3.852,3.8464,3.856,3.875,3.886,3.904,3.9309,3.9573,3.9696,3.9765,4.0054,4.0337,4.0517,4.0676,4.0879,4.1128,4.1276,4.1516,4.1927,4.2127,4.2374,4.267,4.2921,4.3159,4.3442,4.3697,4.3955,4.4258,4.4541,4.4815,4.4976,4.508,4.5211,4.5316,4.5399,4.5477,4.5568,4.5616,4.5613,4.5599,4.5651,4.5719,4.5754,4.5781,4.5824,4.588,4.5912,4.5972,4.6007,4.6066,4.6122,4.6164,4.6226,4.6251,4.6289,4.6306,4.6303,4.629,4.6277,4.6292,4.6273,4.6273,4.6269,4.624,4.6264,4.6284,4.626,4.6231,4.6215,4.6196,4.6189,4.6158,4.6085,4.5994,4.5905,3.0318,3.0911,3.1556,3.2273,3.2988,3.3701,3.4452,3.5184,3.5846,3.6461,3.7027,3.7401,3.7886,3.8375,3.8616,3.8947,3.9484,3.9833,3.9969,4.0171,4.0288,4.0404,4.0485,4.0485,4.0387,4.0288,4.0305,4.0138,3.9781,3.9729,3.9625,3.959,3.9537,3.9484,3.9325,3.9202,3.9077,3.8969,3.8931,3.8766,3.8616,3.856,3.8544,3.8805,3.8805,3.8985,3.9272,3.952,3.9713,3.9799,4.007,4.0337,4.0534,4.0745,4.1012,4.1192,4.1383,4.164,4.1934,4.2264,4.2512,4.2786,4.3087,4.3356,4.3612,4.3905,4.4258,4.4632,4.484,4.4991,4.5125,4.5256,4.5338,4.5418,4.5515,4.5603,4.5635,4.5665,4.5712,4.5712,4.5727,4.5761,4.581,4.5833,4.5854,4.5925,4.5972,4.6026,4.6075,4.6141,4.6181,4.6226,4.6267,4.6287,4.6306,4.6293,4.6287,4.63,4.6269,4.6264,4.626,4.6236,4.6231,4.6226,4.624,4.624,4.6215,4.6209,4.6216,4.6196,4.6185,4.6123,4.6016,4.5917,4.5822,3.081,3.1556,3.2273,3.2988,3.3687,3.4452,3.5184,3.5831,3.6399,3.6892,3.7358,3.7828,3.823,3.8639,3.9148,3.9573,3.9884,4.0037,4.0221,4.0436,4.0485,4.0485,4.0534,4.0485,4.0534,4.0485,4.0485,4.0238,3.9986,3.9884,3.9781,3.9677,3.9694,3.9625,3.9484,3.9379,3.9255,3.9094,3.8985,3.8876,3.8672,3.8694,3.875,3.8805,3.8914,3.9094,3.9325,3.9573,3.9713,3.9764,4.0087,4.0355,4.0534,4.0776,4.1059,4.1335,4.1542,4.1719,4.2079,4.2351,4.2631,4.2938,4.3214,4.3495,4.3841,4.421,4.4568,4.4821,4.5038,4.5192,4.5277,4.5341,4.5438,4.5532,4.5605,4.5651,4.568,4.5723,4.5766,4.5827,4.5827,4.5827,4.586,4.588,4.5898,4.5964,4.6007,4.6075,4.6146,4.6189,4.6234,4.6261,4.6286,4.6286,4.6278,4.6296,4.6273,4.6288,4.626,4.6231,4.6226,4.622,4.6215,4.6209,4.6222,4.6209,4.6183,4.6176,4.6189,4.6166,4.6123,4.6026,4.5941,4.5835,4.5752,3.1542,3.1909,3.2704,3.3479,3.4167,3.4905,3.5544,3.6133,3.6708,3.7254,3.7695,3.8173,3.8678,3.9169,3.9677,3.9935,4.0188,4.0288,4.0436,4.0583,4.0631,4.0648,4.0728,4.0728,4.068,4.0631,4.0583,4.0485,4.0288,4.0155,4.0054,3.9833,3.9781,3.9729,3.9642,3.9537,3.9432,3.9272,3.9094,3.8931,3.8876,3.8805,3.886,3.8931,3.8969,3.9148,3.9379,3.9573,3.9729,3.9833,4.0205,4.0485,4.0614,4.0901,4.1226,4.1471,4.1762,4.1977,4.2187,4.253,4.2804,4.3087,4.3426,4.3795,4.4151,4.4513,4.4846,4.5038,4.517,4.5317,4.5438,4.5495,4.5568,4.564,4.5687,4.5727,4.5766,4.5808,4.5848,4.5905,4.5929,4.5929,4.5941,4.5964,4.5997,4.6027,4.6084,4.6146,4.6196,4.6236,4.6264,4.6285,4.6287,4.6303,4.6277,4.6279,4.624,4.6236,4.6245,4.6215,4.6209,4.6203,4.619,4.6176,4.6162,4.6154,4.6127,4.6119,4.613,4.6095,4.6056,4.596,4.5848,4.5737,4.5629,3.2475,3.2761,3.3325,3.4016,3.4677,3.5335,3.5928,3.6507,3.7103,3.7653,3.8116,3.8678,3.9292,3.9713,4.007,4.0271,4.0453,4.0551,4.068,4.0776,4.0823,4.0918,4.0948,4.0948,4.0918,4.0793,4.0793,4.0697,4.0534,4.0436,4.0238,4.0003,4.0003,3.9884,3.9729,3.9694,3.959,3.9432,3.9255,3.9094,3.9023,3.8985,3.8969,3.9023,3.9094,3.9255,3.9484,3.9694,3.9849,3.9986,4.0337,4.06,4.0793,4.1088,4.1408,4.1675,4.1959,4.2251,4.2472,4.2765,4.3013,4.3321,4.3697,4.4109,4.4532,4.4821,4.5014,4.5192,4.5319,4.5458,4.555,4.562,4.5687,4.5735,4.5795,4.5822,4.5854,4.5898,4.5933,4.5975,4.6026,4.6066,4.6066,4.6066,4.6084,4.613,4.6162,4.6209,4.6236,4.627,4.6287,4.6307,4.6295,4.6284,4.626,4.625,4.6206,4.6195,4.6203,4.6196,4.6183,4.6169,4.6154,4.6138,4.6093,4.6084,4.6075,4.6075,4.6047,4.5997,4.5941,4.5867,4.5771,4.5648,4.553,3.3618,3.4221,3.4274,3.4728,3.5385,3.5928,3.6507,3.7118,3.7653,3.8173,3.8678,3.9398,3.9884,4.0138,4.0387,4.0631,4.084,4.0871,4.0948,4.1071,4.1163,4.1117,4.1117,4.1117,4.1134,4.1029,4.1029,4.0888,4.0745,4.068,4.0485,4.0288,4.0238,4.0087,3.9935,3.9849,3.9694,3.959,3.9432,3.9309,3.9202,3.9148,3.9218,3.9131,3.9309,3.9484,3.9554,3.9746,3.9986,4.0138,4.0485,4.0776,4.0965,4.1318,4.1631,4.1917,4.2192,4.2494,4.2786,4.3013,4.3304,4.3612,4.3999,4.4449,4.477,4.4967,4.5148,4.5317,4.5438,4.555,4.5637,4.5703,4.5746,4.5819,4.5874,4.5917,4.5944,4.5966,4.6017,4.6056,4.6104,4.613,4.615,4.615,4.6162,4.6203,4.6201,4.6245,4.6254,4.6288,4.6284,4.6306,4.6292,4.6275,4.6226,4.6195,4.6203,4.617,4.6176,4.6181,4.6174,4.6158,4.6102,4.6075,4.6056,4.6037,4.6016,4.5986,4.5944,4.5898,4.5835,4.5757,4.5648,4.5494,4.54,3.318,3.3854,3.4685,3.5422,3.6039,3.6677,3.7222,3.7711,3.823,3.8805,3.9398,4.002,4.0387,4.0583,4.0793,4.0918,4.1071,4.1088,4.1163,4.1163,4.1209,4.1209,4.1209,4.1209,4.118,4.118,4.1134,4.1134,4.1041,4.0918,4.084,4.068,4.0534,4.0337,4.0188,4.0003,3.9798,3.9677,3.9642,3.952,3.952,3.9468,3.9537,3.9468,3.952,3.9729,3.9833,3.9986,4.0188,4.0436,4.068,4.0948,4.1226,4.1542,4.1874,4.2151,4.2476,4.2768,4.3068,4.3251,4.3477,4.3968,4.4345,4.4693,4.4943,4.5148,4.5298,4.5438,4.555,4.5637,4.5731,4.5776,4.5814,4.5899,4.596,4.5986,4.6027,4.6047,4.6074,4.6119,4.6154,4.6189,4.6203,4.6231,4.6245,4.6265,4.6257,4.6261,4.6269,4.6285,4.6284,4.626,4.6265,4.6248,4.6203,4.6183,4.6169,4.6154,4.6138,4.613,4.6141,4.6074,4.6036,4.6008,4.5986,4.5953,4.5917,4.5873,4.5848,4.5808,4.5723,4.5632,4.5475,4.5341,4.5256,3.3193,3.3925,3.5025,3.5867,3.6473,3.7263,3.7828,3.823,3.8733,3.9382,4.0104,4.0485,4.0776,4.0965,4.1123,4.1244,4.1363,4.1408,4.1408,4.1453,4.1498,4.1453,4.1453,4.1453,4.1515,4.1391,4.13,4.1318,4.1226,4.1152,4.1059,4.0918,4.0793,4.06,4.0337,4.0155,3.9952,3.9833,3.9781,3.9729,3.9677,3.9677,3.9729,3.9729,3.9781,3.9935,4.0138,4.0238,4.0468,4.0728,4.0965,4.1226,4.1542,4.1831,4.2151,4.2476,4.2788,4.3068,4.3305,4.3566,4.3809,4.4288,4.4595,4.4895,4.5106,4.5277,4.5438,4.555,4.5618,4.57,4.5814,4.5841,4.5893,4.5953,4.6017,4.6056,4.6102,4.6146,4.615,4.619,4.6209,4.6231,4.6241,4.6258,4.6261,4.6261,4.6286,4.6268,4.6256,4.6253,4.625,4.6228,4.6196,4.6183,4.6181,4.6154,4.6138,4.6122,4.6104,4.6085,4.6056,4.6008,4.5968,4.5964,4.5917,4.5854,4.5814,4.5771,4.5757,4.5727,4.5616,4.5476,4.54,4.5256,4.5148,3.4086,3.4805,3.5411,3.5951,3.6505,3.7623,3.823,3.8614,3.9143,3.98,4.0517,4.0935,4.1152,4.1226,4.138,4.1515,4.1692,4.1736,4.1797,4.1841,4.1797,4.1902,4.1902,4.1858,4.1754,4.1736,4.1648,4.1533,4.1426,4.1318,4.1209,4.118,4.1059,4.084,4.0534,4.0337,4.0238,4.0087,4.0003,3.9884,3.9833,3.9833,3.9884,3.9935,4.0087,4.0238,4.0387,4.0566,4.0806,4.1088,4.1255,4.1569,4.1917,4.2192,4.2516,4.2882,4.316,4.3426,4.3682,4.4005,4.4317,4.4605,4.4846,4.5061,4.5256,4.5419,4.5531,4.5635,4.5712,4.5766,4.5835,4.5917,4.5975,4.6047,4.6093,4.6127,4.6169,4.6203,4.622,4.6225,4.6267,4.63,4.6288,4.6288,4.6265,4.6282,4.628,4.6267,4.6236,4.6215,4.6196,4.6196,4.6162,4.6119,4.6122,4.6093,4.6084,4.6085,4.6056,4.6035,4.5983,4.5941,4.5917,4.5887,4.5814,4.5742,4.568,4.5635,4.5565,4.5512,4.5438,4.5319,4.5254,4.5167,4.5033,3.3716,3.435,3.5302,3.5997,3.6538,3.717,3.7713,3.8221,3.9202,4.0195,4.0908,4.138,4.1577,4.1648,4.1675,4.1805,4.1884,4.1927,4.1987,4.1987,4.203,4.2005,4.2005,4.203,4.1987,4.1945,4.1876,4.1833,4.1815,4.1587,4.1498,4.1426,4.129,4.0965,4.0697,4.0502,4.0387,4.037,4.032,4.0271,4.0221,4.0238,4.0238,4.0288,4.0436,4.0583,4.068,4.0901,4.1163,4.1436,4.1657,4.1917,4.2292,4.2613,4.2902,4.325,4.3529,4.3822,4.4209,4.4515,4.4682,4.4881,4.5033,4.5216,4.5419,4.5531,4.5616,4.5712,4.5814,4.5893,4.5933,4.6007,4.6075,4.613,4.6189,4.6209,4.6254,4.6264,4.6287,4.6282,4.6288,4.6262,4.6245,4.6218,4.6206,4.6197,4.6197,4.6211,4.6196,4.6151,4.6118,4.6146,4.6122,4.6075,4.6056,4.6037,4.6016,4.5983,4.596,4.5944,4.5899,4.5874,4.5814,4.5757,4.5696,4.5616,4.553,4.5419,4.5341,4.5256,4.5192,4.5148,4.508,4.501,4.4914,3.4037,3.4593,3.5457,3.6095,3.6592,3.723,3.7787,3.834,3.9319,4.0106,4.0613,4.0994,4.1297,4.1481,4.1689,4.2056,4.2145,4.2181,4.2222,4.2199,4.224,4.224,4.224,4.2199,4.2264,4.2199,4.2157,4.2132,4.2072,4.1866,4.1719,4.1631,4.1453,4.1244,4.0965,4.0823,4.0631,4.0583,4.0517,4.0468,4.0485,4.0534,4.0583,4.068,4.0823,4.0901,4.1088,4.13,4.1613,4.1874,4.2127,4.2351,4.2709,4.3013,4.3286,4.3597,4.4017,4.4319,4.4655,4.4903,4.5036,4.5129,4.5244,4.54,4.5549,4.5648,4.5742,4.5827,4.5917,4.5975,4.6027,4.6093,4.6154,4.6203,4.624,4.6255,4.628,4.6297,4.6288,4.6288,4.6256,4.6216,4.6183,4.6157,4.615,4.6123,4.6096,4.6127,4.6146,4.6099,4.6052,4.6056,4.6056,4.6005,4.5983,4.596,4.5925,4.5887,4.586,4.5833,4.5791,4.5742,4.5696,4.5632,4.5565,4.5475,4.5321,4.5197,4.5087,4.5038,4.4991,4.4919,4.487,4.4821,4.4789,3.5065,3.5464,3.5924,3.6354,3.6784,3.7641,3.8442,3.9098,3.9317,3.9557,3.9811,4.0068,4.0542,4.1085,4.1175,4.1594,4.221,4.2318,4.239,4.2498,4.248,4.2534,4.257,4.257,4.253,4.253,4.249,4.2387,4.2287,4.2121,4.1995,4.1823,4.1692,4.1515,4.1335,4.1198,4.1012,4.0853,4.0758,4.071,4.0776,4.0776,4.0871,4.1012,4.1198,4.1318,4.148,4.1701,4.1984,4.2234,4.2476,4.2806,4.3123,4.341,4.3682,4.4079,4.4541,4.4791,4.5021,4.5208,4.5341,4.5436,4.5483,4.5596,4.57,4.5771,4.5854,4.5929,4.6016,4.6056,4.6122,4.6162,4.6216,4.6231,4.6261,4.6276,4.6286,4.6289,4.6284,4.6245,4.6206,4.615,4.6083,4.6056,4.6037,4.6007,4.5988,4.6007,4.6016,4.6035,4.5986,4.5994,4.5968,4.5893,4.5887,4.586,4.5819,4.5776,4.5746,4.5715,4.5665,4.5599,4.5547,4.5475,4.5419,4.5301,4.5132,4.4995,4.4876,4.4821,4.477,4.4789,4.4738,4.4712,4.4659,3.5985,3.6364,3.6746,3.6995,3.7294,3.7806,3.8342,3.8812,3.9037,3.9476,4.0125,4.0273,4.0401,4.0689,4.0689,4.0889,4.1269,4.1612,4.1865,4.2119,4.2372,4.268,4.2788,4.2716,4.2768,4.2709,4.2688,4.2627,4.249,4.2369,4.2187,4.2019,4.1945,4.1858,4.1754,4.1648,4.1408,4.118,4.1024,4.1041,4.1088,4.1134,4.1244,4.138,4.1587,4.1701,4.1831,4.2169,4.2454,4.2673,4.2939,4.3286,4.3529,4.3828,4.4091,4.4602,4.4905,4.5106,4.5341,4.5457,4.5565,4.5706,4.5725,4.5789,4.5854,4.5912,4.5972,4.6056,4.6084,4.6127,4.6177,4.6226,4.6253,4.6276,4.6268,4.6269,4.6282,4.6245,4.6221,4.617,4.6127,4.6075,4.5997,4.5944,4.5929,4.5893,4.5867,4.5887,4.5899,4.5919,4.5899,4.5887,4.5866,4.5786,4.5742,4.5712,4.5684,4.5671,4.5618,4.5566,4.5494,4.5438,4.538,4.53,4.5197,4.5065,4.49,4.4796,4.4693,4.4632,4.4597,4.4597,4.4597,4.457,4.4496,3.6886,3.7173,3.7451,3.7685,3.7911,3.8172,3.8467,3.8737,3.8757,3.9134,3.9618,3.9722,3.994,4.0195,4.0213,4.0413,4.0813,4.1194,4.1431,4.1576,4.1995,4.1977,4.2159,4.2468,4.2523,4.2595,4.2755,4.288,4.2709,4.2512,4.2351,4.231,4.2216,4.215,4.2055,4.1941,4.177,4.1569,4.1453,4.1391,4.1453,4.1515,4.1604,4.1719,4.1917,4.2044,4.221,4.2591,4.2844,4.3105,4.3391,4.366,4.3949,4.425,4.4565,4.5,4.5182,4.5362,4.5532,4.5668,4.577,4.5869,4.5938,4.5986,4.5994,4.6035,4.6085,4.6122,4.6176,4.6215,4.623,4.6273,4.6286,4.6289,4.6282,4.6261,4.6236,4.6177,4.6135,4.6074,4.6017,4.5983,4.5905,4.5854,4.5814,4.5737,4.5708,4.5727,4.5761,4.5791,4.5757,4.5757,4.5731,4.5684,4.5616,4.5565,4.5531,4.5514,4.5477,4.5419,4.532,4.5239,4.5194,4.5061,4.49,4.4796,4.4693,4.4613,4.4532,4.4468,4.4383,4.4325,4.4354,4.4401,4.4325,3.6407,3.6405,3.6993,3.6416,3.7344,3.6911,3.7013,3.7697,3.6658,3.7839,3.8368,3.8726,3.9203,3.963,3.9703,4.0033,4.0382,4.073,4.0895,4.0965,4.128,4.139,4.1522,4.1687,4.1967,4.228,4.2612,4.2869,4.2864,4.2747,4.2631,4.2609,4.2445,4.2382,4.2328,4.2216,4.2092,4.2037,4.1866,4.1805,4.1805,4.1866,4.1909,4.2103,4.2269,4.2432,4.2631,4.292,4.3214,4.3495,4.3795,4.4042,4.4402,4.4745,4.5071,4.5284,4.5433,4.5568,4.5733,4.5835,4.5928,4.6026,4.6083,4.6107,4.6142,4.6127,4.615,4.617,4.6206,4.6231,4.6265,4.6249,4.6256,4.6241,4.6236,4.6183,4.613,4.6074,4.6007,4.5953,4.5886,4.5827,4.5757,4.5696,4.5629,4.5599,4.5565,4.5547,4.5565,4.5599,4.5599,4.5563,4.5547,4.5513,4.5438,4.5381,4.5341,4.5339,4.5277,4.5213,4.5087,4.5019,4.4967,4.4827,4.47,4.4613,4.4524,4.444,4.4364,4.4296,4.4158,4.4048,4.4067,4.4147,4.4135,2.767,2.7769,2.7968,2.8135,2.8267,2.8264,2.8496,2.8384,2.8318,3.2374,3.7816,3.8644,3.8925,3.9176,3.925,3.9471,3.9571,4.0154,4.029,4.0529,4.0787,4.0911,4.1175,4.1291,4.1429,4.1677,4.209,4.2701,4.2887,4.2847,4.2788,4.2824,4.2667,4.2566,4.253,4.2476,4.2472,4.2387,4.2328,4.2187,4.2103,4.2163,4.2246,4.2374,4.2534,4.2768,4.2995,4.3267,4.3545,4.386,4.4188,4.4503,4.4915,4.5161,4.5381,4.5539,4.567,4.5783,4.5883,4.5997,4.6063,4.6118,4.6167,4.6214,4.6218,4.6182,4.6186,4.6212,4.6246,4.625,4.6243,4.6234,4.6215,4.619,4.6154,4.6102,4.6037,4.5964,4.5899,4.5814,4.5737,4.568,4.5601,4.5531,4.5457,4.5438,4.54,4.536,4.53,4.5301,4.532,4.532,4.5361,4.5339,4.5237,4.5154,4.5109,4.5084,4.5014,4.4943,4.487,4.4796,4.4719,4.4595,4.4458,4.4411,4.4325,4.4248,4.4158,4.4067,4.3974,4.3878,4.3744,4.3763,4.3814,2.4313,2.4433,2.476,2.4941,2.4971,2.5051,2.512,2.5132,2.5149,2.7934,3.2801,3.4979,3.6976,3.86,3.911,3.86,3.8723,3.9537,3.977,4.0001,3.9769,4.0298,4.0511,4.0637,4.0829,4.0997,4.1489,4.2038,4.2629,4.2632,4.2523,4.2904,4.2862,4.2802,4.2822,4.2765,4.2727,4.2706,4.2688,4.2609,4.2432,4.253,4.2552,4.2691,4.2844,4.3069,4.3338,4.3612,4.3905,4.425,4.4584,4.4919,4.5225,4.5436,4.5587,4.5722,4.5847,4.5958,4.6047,4.6107,4.6164,4.6199,4.6198,4.6226,4.621,4.6191,4.6191,4.6221,4.6212,4.623,4.6187,4.6169,4.6127,4.6093,4.6027,4.5956,4.5886,4.578,4.5677,4.5596,4.5545,4.5512,4.5438,4.532,4.526,4.5218,4.5192,4.5103,4.5057,4.4972,4.501,4.5029,4.5057,4.508,4.5014,4.4943,4.487,4.4796,4.4719,4.4674,4.4621,4.4532,4.444,4.4354,4.4248,4.4188,4.4116,4.4036,4.3923,4.3846,4.3749,4.3682,4.3529,4.3408,4.341,2.1916,2.2431,2.2643,2.2926,2.3112,2.3148,2.2978,2.3016,2.3227,2.3619,2.5069,2.8714,3.3233,3.6276,3.7566,3.7585,3.6922,3.5204,3.6281,3.6844,3.7638,3.7502,3.8275,3.9444,4.003,4.0489,4.0892,4.1503,4.2121,4.2024,4.2212,4.2868,4.3069,4.3048,4.3049,4.3013,4.2921,4.2862,4.288,4.29,4.288,4.2899,4.288,4.2975,4.316,4.3375,4.3631,4.3905,4.4199,4.4538,4.4938,4.5245,4.5472,4.5677,4.5789,4.591,4.5988,4.6091,4.6164,4.6186,4.62,4.6211,4.621,4.62,4.6191,4.6172,4.6181,4.6144,4.6157,4.6162,4.6102,4.6056,4.6017,4.5925,4.5854,4.5789,4.5692,4.558,4.5475,4.5381,4.5341,4.532,4.5216,4.5106,4.5038,4.5014,4.4943,4.4865,4.4764,4.4674,4.4648,4.464,4.464,4.4667,4.4693,4.4648,4.4595,4.4505,4.4402,4.4402,4.4355,4.4277,4.4177,4.4092,4.4029,4.3961,4.3897,4.3832,4.3716,4.3597,4.3497,4.3428,4.3286,4.3142,4.3068,1.2583,1.2906,1.3086,1.3332,1.3604,1.3857,1.3672,1.3795,1.423,1.5904,1.9233,2.0552,2.3602,2.7905,2.7886,2.8572,3.0201,2.9531,2.8356,2.798,3.2196,3.3359,3.4696,3.6896,3.9317,4.016,4.0415,4.0824,4.1333,4.135,4.1635,4.2335,4.2286,4.2541,4.3105,4.3087,4.3032,4.3032,4.3087,4.3123,4.3105,4.3105,4.3142,4.3232,4.3375,4.3582,4.3846,4.4121,4.4412,4.4764,4.5182,4.549,4.5688,4.5841,4.5944,4.6035,4.6118,4.6143,4.6198,4.6191,4.6184,4.6163,4.6162,4.6105,4.6091,4.6054,4.6036,4.5949,4.5968,4.6018,4.5997,4.5953,4.5886,4.5728,4.5607,4.5543,4.5456,4.5381,4.5279,4.5194,4.5129,4.5042,4.49,4.4821,4.4745,4.4693,4.464,4.4532,4.4412,4.4327,4.4221,4.421,4.4199,4.4258,4.4298,4.4327,4.4269,4.417,4.4128,4.406,4.403,4.4005,4.3947,4.3822,4.3804,4.3767,4.3701,4.36,4.3479,4.3375,4.3269,4.3141,4.3031,4.29,4.2765]},{"header":{"parameterUnit":"m.s-1","parameterCategory":1,"la1":31.0,"la2":29.5877,"lo1":-88.7671,"lo2":-86.6584,"dy":0.0162,"dx":0.0185,"nx":115,"ny":88,"refTime":"2023-09-20T12:00:00:Z","depth":0,"parameterNumber":3,"parameterNumberName":"V-component_of_WINDS"},"data":[0.0,0.0,0.0,0.0,0.0,0.0,0.0,0.0,0.0,0.0,0.0,0.0,0.0,0.0,0.0,0.0,0.0,0.0,0.0,0.0,0.0,0.0,0.0,0.0,0.0,0.0,0.0,0.0,0.0,0.0,0.0,0.0,0.0,0.0,0.0,0.0,0.0,0.0,0.0,0.0,0.0,0.0,0.0,0.0,0.0,0.0,0.0,0.0,0.0,0.0,0.0,0.0,0.0,0.0,0.0,0.0,0.0,0.0,0.0,0.0,0.0,0.0,0.0,0.0,0.0,0.0,0.0,0.0,0.0,0.0,0.0,0.0,0.0,0.0,0.0,0.0,0.0,0.0,0.0,0.0,0.0,0.0,0.0,0.0,0.0,0.0,0.0,0.0,0.0,0.0,0.0,0.0,0.0,0.0,0.0,0.0,0.0,0.0,0.0,0.0,0.0,0.0,0.0,0.0,0.0,0.0,0.0,0.0,0.0,0.0,0.0,0.0,0.0,0.0,0.0,0.0,0.0,0.0,0.0,0.0,0.0,0.0,0.0,0.0,0.0,0.0,0.0,0.0,0.0,0.0,0.0,0.0,0.0,0.0,0.0,0.0,0.0,0.0,0.0,0.0,0.0,0.0,0.0,0.0,0.0,0.0,0.0,0.0,0.0,0.0,0.0,0.0,0.0,0.0,0.0,0.0,0.0,0.0,0.0,0.0,0.0,0.0,0.0,0.0,0.0,0.0,0.0,0.0,0.0,0.0,0.0,0.0,0.0,0.0,0.0,0.0,0.0,0.0,0.0,0.0,0.0,0.0,0.0,0.0,0.0,0.0,0.0,0.0,0.0,0.0,0.0,0.0,0.0,0.0,0.0,0.0,0.0,0.0,0.0,0.0,0.0,0.0,0.0,0.0,0.0,0.0,0.0,0.0,0.0,0.0,0.0,0.0,0.0,0.0,0.0,0.0,0.0,0.0,0.0,0.0,0.0,0.0,0.0,0.0,0.0,0.0,0.0,0.0,0.0,0.0,0.0,0.0,0.0,0.0,0.0,0.0,0.0,0.0,0.0,0.0,0.0,0.0,0.0,0.0,0.0,0.0,0.0,0.0,0.0,0.0,0.0,0.0,0.0,0.0,0.0,0.0,0.0,0.0,0.0,0.0,0.0,0.0,0.0,0.0,0.0,0.0,0.0,0.0,0.0,0.0,0.0,0.0,0.0,0.0,0.0,0.0,0.0,0.0,0.0,0.0,0.0,0.0,0.0,0.0,0.0,0.0,0.0,0.0,0.0,0.0,0.0,0.0,0.0,0.0,0.0,0.0,0.0,0.0,0.0,0.0,0.0,0.0,0.0,0.0,0.0,0.0,0.0,0.0,0.0,0.0,0.0,0.0,0.0,0.0,0.0,0.0,0.0,0.0,0.0,0.0,0.0,0.0,0.0,0.0,0.0,0.0,0.0,0.0,0.0,0.0,0.0,0.0,0.0,0.0,0.0,0.0,0.0,0.0,0.0,0.0,0.0,0.0,0.0,0.0,0.0,0.0,0.0,0.0,0.0,0.0,0.0,0.0,0.0,0.0,0.0,0.0,0.0,0.0,0.0,0.0,0.0,0.0,0.0,0.0,0.0,0.0,0.0,0.0,0.0,0.0,0.0,0.0,0.0,0.0,0.0,0.0,0.0,0.0,0.0,0.0,0.0,0.0,0.0,0.0,0.0,0.0,0.0,0.0,0.0,0.0,0.0,0.0,0.0,0.0,0.0,0.0,0.0,0.0,0.0,0.0,0.0,0.0,0.0,0.0,0.0,0.0,0.0,0.0,0.0,0.0,0.0,0.0,0.0,0.0,0.0,0.0,0.0,0.0,0.0,0.0,0.0,0.0,0.0,0.0,0.0,0.0,0.0,0.0,0.0,0.0,0.0,0.0,0.0,0.0,0.0,0.0,0.0,0.0,0.0,0.0,0.0,0.0,0.0,0.0,0.0,0.0,0.0,0.0,0.0,0.0,0.0,0.0,0.0,0.0,0.0,0.0,0.0,0.0,0.0,0.0,0.0,0.0,0.0,0.0,0.0,0.0,0.0,0.0,0.0,0.0,0.0,0.0,0.0,0.0,0.0,0.0,0.0,0.0,0.0,0.0,0.0,0.0,0.0,0.0,0.0,0.0,0.0,0.0,0.0,0.0,0.0,0.0,0.0,0.0,0.0,0.0,0.0,0.0,0.0,0.0,0.0,0.0,0.0,0.0,0.0,0.0,0.0,0.0,0.0,0.0,0.0,0.0,0.0,0.0,0.0,0.0,0.0,0.0,0.0,0.0,0.0,0.0,0.0,0.0,0.0,0.0,0.0,0.0,0.0,0.0,0.0,0.0,0.0,0.0,0.0,0.0,0.0,0.0,0.0,0.0,0.0,0.0,0.0,0.0,0.0,0.0,0.0,0.0,0.0,0.0,0.0,0.0,0.0,0.0,0.0,0.0,0.0,0.0,0.0,0.0,0.0,0.0,0.0,0.0,0.0,0.0,0.0,0.0,0.0,0.0,0.0,0.0,0.0,0.0,0.0,0.0,0.0,0.0,0.0,0.0,0.0,0.0,0.0,0.0,0.0,0.0,0.0,0.0,0.0,0.0,0.0,0.0,0.0,0.0,0.0,0.0,0.0,0.0,0.0,0.0,0.0,0.0,0.0,0.0,0.0,0.0,0.0,0.0,0.0,0.0,0.0,0.0,0.0,0.0,0.0,0.0,0.0,0.0,0.0,0.0,0.0,0.0,0.0,0.0,0.0,0.0,0.0,0.0,0.0,0.0,0.0,0.0,0.0,0.0,0.0,0.0,0.0,0.0,0.0,0.0,0.0,0.0,0.0,0.0,0.0,0.0,0.0,0.0,0.0,0.0,0.0,0.0,0.0,0.0,0.0,0.0,0.0,0.0,0.0,0.0,0.0,0.0,0.0,0.0,0.0,0.0,0.0,0.0,0.0,0.0,0.0,0.0,0.0,0.0,0.0,0.0,0.0,0.0,0.0,0.0,0.0,0.0,0.0,0.0,0.0,0.0,0.0,0.0,0.0,0.0,0.0,0.0,0.0,0.0,0.0,0.0,0.0,0.0,0.0,0.0,0.0,0.0,0.0,0.0,0.0,0.0,0.0,0.0,0.0,0.0,0.0,0.0,0.0,0.0,0.0,0.0,0.0,0.0,0.0,0.0,0.0,0.0,0.0,0.0,0.0,0.0,0.0,0.0,0.0,0.0,0.0,0.0,0.0,0.0,0.0,0.0,0.0,0.0,0.0,0.0,0.0,0.0,0.0,0.0,0.0,0.0,0.0,0.0,0.0,0.0,0.0,0.0,0.0,0.0,0.0,0.0,0.0,0.0,0.0,0.0,0.0,0.0,0.0,0.0,0.0,0.0,0.0,0.0,0.0,0.0,0.0,0.0,0.0,0.0,0.0,0.0,0.0,0.0,0.0,0.0,0.0,0.0,0.0,0.0,0.0,0.0,0.0,0.0,0.0,0.0,0.0,0.0,0.0,0.0,0.0,0.0,0.0,0.0,0.0,0.0,0.0,0.0,0.0,0.0,0.0,0.0,0.0,0.0,0.0,0.0,0.0,0.0,0.0,0.0,0.0,0.0,0.0,0.0,0.0,0.0,0.0,0.0,0.0,0.0,0.0,0.0,0.0,0.0,0.0,0.0,0.0,0.0,0.0,0.0,0.0,0.0,0.0,0.0,0.0,0.0,0.0,0.0,0.0,0.0,0.0,0.0,0.0,0.0,0.0,0.0,0.0,0.0,0.0,0.0,0.0,0.0,0.0,0.0,0.0,0.0,0.0,0.0,0.0,0.0,0.0,0.0,0.0,0.0,0.0,0.0,0.0,0.0,0.0,0.0,0.0,0.0,0.0,0.0,0.0,0.0,0.0,0.0,0.0,0.0,0.0,0.0,0.0,0.0,0.0,0.0,0.0,0.0,0.0,0.0,0.0,0.0,0.0,0.0,0.0,0.0,0.0,0.0,0.0,0.0,0.0,0.0,0.0,0.0,0.0,0.0,0.0,0.0,0.0,0.0,0.0,0.0,0.0,0.0,0.0,0.0,0.0,0.0,0.0,0.0,0.0,0.0,0.0,0.0,0.0,0.0,0.0,0.0,0.0,0.0,0.0,0.0,0.0,0.0,0.0,0.0,0.0,0.0,0.0,0.0,0.0,0.0,0.0,0.0,0.0,0.0,0.0,0.0,0.0,0.0,0.0,0.0,0.0,0.0,0.0,0.0,0.0,0.0,0.0,0.0,0.0,0.0,0.5658,0.0,0.0,0.0,0.0,0.0,0.0,0.0,0.0,0.0,0.0,0.0,0.0,0.0,0.0,0.0,0.0,0.0,0.0,0.0,0.0,0.0,0.0,0.0,0.0,0.0,0.0,0.0,0.0,0.0,0.0,0.0,0.0,0.0,0.0,0.0,0.0,0.0,0.0,0.0,0.0,0.0,0.0,0.0,0.0,0.0,0.0,0.0,0.0,0.0,0.0,0.0,0.0,0.0,0.0,0.0,0.0,0.0,0.0,0.0,0.0,0.0,0.0,0.0,0.0,0.0,0.0,0.0,0.0,0.0,0.0,0.0,0.0,0.0,0.0,0.0,0.0,0.0,0.0,0.0,0.0,0.0,0.0,0.0,0.0,0.0,0.0,0.0,0.0,0.0,0.0,0.0,0.0,0.0,0.0,0.0,0.0,0.0,0.0,0.0,0.0,0.0,0.0,0.0,0.0,0.0,0.0,0.0,0.0,0.0,0.0,0.2188,0.3028,0.369,0.4312,0.484,0.0,0.0,0.0,0.0,0.0,0.0,0.0,0.0,0.0,0.0,0.0,0.0,0.0,0.0,0.0,0.0,0.0,0.0,0.0,0.0,0.0,0.0,0.0,0.0,0.0,0.0,0.0,0.0,0.0,0.0,0.0,0.0,0.0,0.0,0.0,0.0,0.0,0.0,0.0,0.0,0.0,0.0,0.0,0.0,0.0,0.0,0.0,0.0,0.0,0.0,0.0,0.0,0.0,0.0,0.0,0.0,0.0,0.0,0.0,0.0,0.0,0.0,0.0,0.0,0.0,0.0,0.0,0.0,0.0,0.0,0.0,0.0,0.0,0.0,0.0,0.0,0.0,0.0,0.0,0.0,0.0,0.0,0.0,0.0,0.0,0.0,0.0,0.0,0.0,0.0,0.0,0.0,0.0,0.0,0.0,0.0,0.0,0.0,0.0,0.0,0.0,0.0,0.0,0.0,0.0,0.0,0.0,0.0,0.0,0.0,0.0,0.0,0.2896,0.352,0.4188,0.0,0.0,0.0,0.0,0.0,0.0,0.0,0.0,0.0,0.0,0.0,0.0,0.0,0.0,0.0,0.0,0.0,0.0,0.0,0.0,0.0,0.0,0.0,0.0,0.0,0.0,0.0,0.0,0.0,0.0,0.0,0.0,0.0,0.0,0.0,0.0,0.0,0.0,0.0,0.0,0.0,0.0,0.0,0.0,0.0,0.0,0.0,0.0,0.0,0.0,0.0,0.0,0.0,0.0,0.0,0.0,0.0,0.0,0.0,0.0,0.0,0.0,0.0,0.0,0.0,0.0,0.0,0.0,0.0,0.0,0.0,0.0,0.0,0.0,0.0,0.0,0.0,0.0,0.0,0.0,0.0,0.0,0.0,0.0,0.0,0.0,0.0,0.0,0.0,0.0,0.0,0.0,0.0,0.0,0.0,0.0,0.0,0.0,0.0,0.0,0.0,0.0,0.0,0.0,0.0,0.0,0.0,0.0,0.0,0.0,0.0671,0.1477,0.219,0.0,0.3851,0.0,0.0,0.0,0.0,0.0,0.0,0.0,0.0,0.0,0.0,0.0,0.0,0.0,0.0,0.0,0.0,0.0,0.0,0.0,0.0,0.0,0.0,0.0,0.0,0.0,0.0,0.0,0.0,0.0,0.0,0.0,0.0,0.0,0.0,0.0,0.0,0.0,0.0,0.0,0.0,0.0,0.0,0.0,0.0,0.0,0.0,0.0,0.0,0.0,0.0,0.0,0.0,0.0,0.0,0.0,0.0,0.0,0.0,0.0,0.0,0.0,0.0,0.0,0.0,0.0,0.0,0.0,0.0,0.0,0.0,0.0,0.0,0.0,0.0,0.0,0.0,0.0,0.0,0.0,0.0,0.0,0.0,0.0,0.0,0.0,0.0,0.0,0.0,0.0,0.0,0.0,0.0,0.0,0.0,0.0,0.0,0.0,0.0,0.0,0.0,0.0,0.0,0.0,0.0,0.0,0.0,0.0,0.0,0.0,0.0,-0.0,0.0882,0.1811,0.2457,0.0,0.0,0.0,0.0,0.0,0.0,0.0,0.0,0.0,0.0,0.0,0.0,0.0,0.0,0.0,0.0,0.0,0.0,0.0,0.0,0.0,0.0,0.0,0.0,0.0,0.0,0.0,0.0,0.0,0.0,0.0,0.0,0.0,0.0,0.0,0.0,0.0,0.0,0.0,0.0,0.0,0.0,0.0,0.0,0.0,0.0,0.0,0.0,0.0,0.0,0.0,0.0,0.0,0.0,0.0,0.0,0.0,0.0,0.0,0.0,0.0,0.0,0.0,0.0,0.0,0.0,0.0,0.0,0.0,0.0,0.0,0.0,0.0,0.0,0.0,0.0,0.0,0.0,0.0,0.0,0.0,0.0,0.0,0.0,0.0,0.0,0.0,0.0,0.0,0.0,0.0,0.0,0.0,0.0,0.0,0.0,0.0,0.0,0.0,0.0,0.0,0.0,0.0,0.0,0.0,0.0,0.0,0.0,0.0,0.0,-0.1521,-0.0532,0.0579,0.1362,0.185,0.1989,0.0,0.0,0.0,0.0,0.0,0.0,0.0,0.0,0.0,0.0,0.0,0.0,0.0,0.0,0.0,0.0,0.0,0.0,0.0,0.0,0.0,0.0,0.0,0.0,0.0,0.0,0.0,0.0,0.0,0.0,0.0,0.0,0.0,0.0,0.0,0.0,0.0,0.0,0.0,0.0,0.0,0.0,0.0,0.0,0.0,0.0,0.0,0.0,0.0,0.0,0.0,0.0,0.0,0.0,0.0,0.0,0.0,0.0,0.0,0.0,0.0,0.0,0.0,0.0,0.0,0.0,0.0,0.0,0.0,0.0,0.0,0.0,0.0,0.0,0.0,0.0,0.0,0.0,0.0,0.0,0.0,0.0,0.0,0.0,0.0,0.0,0.0,0.0,0.0,0.0,0.0,0.0,0.0,0.0,0.0,0.0,0.0,0.0,0.0,0.0,0.0,0.0,0.0,0.0,0.0,0.0,0.0,0.0,-0.2624,-0.1865,-0.0754,0.0603,0.0853,0.1154,0.0,0.0,0.0,0.0,0.0,0.0,0.0,0.0,0.0,0.0,0.0,0.0,0.0,0.0,0.0,0.0,0.0,0.0,0.0,0.0,0.0,0.0,0.0,0.0,0.0,0.0,0.0,0.0,0.0,0.0,0.0,0.0,0.0,0.0,0.0,0.0,0.0,0.0,0.0,0.0,0.0,0.0,0.0,0.0,0.0,0.0,0.0,0.0,0.0,0.0,0.0,0.0,0.0,0.0,0.0,0.0,0.0,0.0,0.0,0.0,0.0,0.0,0.0,0.0,0.0,0.0,0.0,0.0,0.0,0.0,0.0,0.0,0.0,0.0,0.0,0.0,0.0,0.0,0.0,0.0,0.0,0.0,0.0,0.0,0.0,0.0,0.0,0.0,0.0,0.0,0.0,0.0,0.0,0.0,0.0,0.0,0.0,0.0,0.0,0.0,0.0,0.0,0.0,0.0,0.0,0.0,0.0,0.0,0.0,-0.3225,-0.206,-0.1033,-0.0252,0.0202,0.0504,0.0,0.0,0.0,0.0,0.0,0.0,0.0,0.0,0.0,0.0,0.0,0.0,0.0,0.0,0.0,0.0,0.0,0.0,0.0,0.0,0.0,0.0,0.0,0.0,0.0,0.0,0.0,0.0,0.0,0.0,0.0,0.0,0.0,0.0,0.0,0.0,0.0,0.0,0.0,0.0,0.0,0.0,0.0,0.0,0.0,0.0,0.0,0.0,0.0,0.0,0.0,0.0,0.0,0.0,0.0,0.0,0.0,0.0,0.0,0.0,0.0,0.0,0.0,0.0,0.0,0.0,0.0,0.0,0.0,0.0,0.0,0.0,0.0,0.0,0.0,0.0,0.0,0.0,0.0,0.0,0.0,0.0,0.0,0.0,0.0,0.0,0.0,0.0,0.0,0.0,0.0,0.0,0.0,0.0,0.0,0.0,0.0,0.0,0.0,0.0,0.0,0.0,0.0,0.0,0.0,0.0,0.0,0.0,0.0,-0.34,0.0,-0.1393,-0.0942,-0.0418,-0.0104,0.0,0.0,0.0,0.0,0.0,0.0,0.0,0.0,0.0,0.0,0.0,0.0,0.0,0.0,0.0,0.0,0.0,0.0,0.0,0.0,0.0,0.0,0.0,0.0,0.0,0.0,0.0,0.0,0.0,0.0,0.0,0.0,0.0,0.0,0.0,0.0,0.0,0.0,0.0,0.0,0.0,0.0,0.0,0.0,0.0,0.0,0.0,0.0,0.0,0.0,0.0,0.0,0.0,0.0,0.0,0.0,0.0,0.0,0.0,0.0,0.0,0.0,0.0,0.0,0.0,0.0,0.0,0.0,0.0,0.0,0.0,0.0,0.0,0.0,0.0,0.0,0.0,0.0,0.0,0.0,0.0,0.0,0.0,0.0,0.0,0.0,0.0,0.0,0.0,0.0,0.0,0.0,0.0,0.0,0.0,0.0,0.0,0.0,0.0,0.0,0.0,0.0,0.0,0.0,0.0,0.0,0.0,0.0,-0.4405,-0.2961,-0.2348,-0.1843,-0.1514,-0.1007,-0.0672,0.0,0.0,0.0,0.0,0.0,0.0,0.0,0.0,0.0,0.0,0.0,0.0,0.0,0.0,0.0,0.0,0.0,0.0,0.0,0.0,0.0,0.0,0.0,0.0,0.0,0.0,0.0,0.0,0.0,0.0,0.0,0.0,0.0,0.0,0.0,0.0,0.0,0.0,0.0,0.0,0.0,0.0,0.0,0.0,0.0,0.0,0.0,0.0,0.0,0.0,0.0,0.0,0.0,0.0,0.0,0.0,0.0,0.0,0.0,0.0,0.0,0.0,0.0,0.0,0.0,0.0,0.0,0.0,0.0,0.0,0.0,0.0,0.0,0.0,0.0,0.0,0.0,0.0,0.0,0.0,0.0,0.0,0.0,0.0,0.0,0.0,0.0,0.0,0.0,0.0,0.0,0.0,0.0,0.0,0.0,0.0,0.0,0.0,0.0,0.0,0.0,0.0,0.0,0.0,0.0,0.0,0.0,0.0,0.0,-0.3302,-0.2742,-0.2352,-0.2017,-0.1626,-0.1234,0.0,0.0,0.0,0.0,0.0,0.0,0.0,0.0,0.0,0.0,0.0,0.0,0.0,0.0,0.0,0.0,0.0,0.0,0.0,0.0,0.0,0.0,0.0,0.0,0.0,0.0,0.0,0.0,0.0,0.0,0.0,0.0,0.0,0.0,0.0,0.0,0.0,0.0,0.0,0.0,0.0,0.0,0.0,0.0,0.0,0.0,0.0,0.0,0.0,0.0,0.0,0.0,0.0,0.0,0.0,0.0,0.0,0.0,0.0,0.0,0.0,0.0,0.0,0.0,0.0,0.0,0.0,0.0,0.0,0.0,0.0,0.0,0.0,0.0,0.0,0.0,0.0,0.0,0.0,0.0,0.0,0.0,0.0,0.0,0.0,0.0,0.0,0.0,0.0,0.0,0.0,0.0,0.0,0.0,0.0,0.0,0.0,0.0,0.0,0.0,0.0,0.0,0.0,0.0,0.0,0.0,0.0,0.0,0.0,-0.3883,-0.3288,-0.2745,-0.241,-0.213,-0.1738,-0.1234,0.0,0.0,0.0,0.0,0.0,0.0,0.0,0.0,0.0,0.0,0.0,0.0,0.0,0.0,0.0,0.0,0.0,0.0,0.0,0.0,0.0,0.0,0.0,0.0,0.0,0.0,0.0,0.0,0.0,0.0,0.0,0.0,0.0,0.0,0.0,0.0,0.0,0.0,0.0,0.0,0.0,0.0,0.0,0.0,0.0,0.0,0.0,0.0,0.0,0.0,0.0,0.0,0.0,0.0,0.0,0.0,0.0,0.0,0.0,0.0,0.0,0.0,0.0,0.0,0.0,0.0,0.0,0.0,0.0,0.0,0.0,0.0,0.0,0.0,0.0,0.0,0.0,0.0,0.0,0.0,0.0,0.0,0.0,0.0,0.0,0.0,0.0,0.0,0.0,0.0,0.0,0.0,0.0,0.0,0.0,0.0,0.0,0.0,0.0,0.0,0.0,0.0,0.0,0.0,0.0,0.0,0.0,0.0,-0.4729,-0.3889,-0.3268,-0.2819,-0.2424,-0.2141,0.0,0.0,0.0,0.0,0.0,0.0,0.0,0.0,0.0,0.0,0.0,0.0,0.0,0.0,0.0,0.0,0.0,0.0,0.0,0.0,0.0,0.0,0.0,0.0,0.0,0.0,0.0,0.0,0.0,0.0,0.0,0.0,0.0,0.0,0.0,0.0,0.0,0.0,0.0,0.0,0.0,0.0,0.0,0.0,0.0,0.0,0.0,0.0,0.0,0.0,0.0,0.0,0.0,0.0,0.0,0.0,0.0,0.0,0.0,0.0,0.0,0.0,0.0,0.0,0.0,0.0,0.0,0.0,0.0,0.0,0.0,0.0,0.0,0.0,0.0,0.0,0.0,0.0,0.0,0.0,0.0,0.0,0.0,0.0,0.0,0.0,0.0,0.0,0.0,0.0,0.0,0.0,0.0,0.0,0.0,0.0,0.0,0.0,0.0,0.0,0.0,0.0,0.0,0.0,0.0,0.0,0.0,0.0,0.0,-0.4665,-0.4477,-0.4142,-0.3664,-0.3122,-0.2647,0.0,0.0,0.0,0.0,0.0,0.0,0.0,0.0,0.0,0.0,0.0,0.0,0.0,0.0,0.0,0.0,0.0,0.0,0.0,0.0,0.0,0.0,0.0,0.0,0.0,0.0,0.0,0.0,0.0,0.0,0.0,0.0,0.0,0.0,0.0,0.0,0.0,0.0,0.0,0.0,0.0,0.0,0.0,0.0,0.0,0.0,0.0,0.0,0.0,0.0,0.0,0.0,0.0,0.0,0.0,0.0,0.0,0.0,0.0,0.0,0.0,0.0,0.0,0.0,0.0,0.0,0.0,0.0,0.0,0.0,0.0,0.0,0.0,0.0,0.0,0.0,0.0,0.0,0.0,0.0,0.0,0.0,0.0,0.0,0.0,0.0,0.0,0.0,0.0,0.0,0.0,0.0,0.0,0.0,0.0,0.0,0.0,0.0,0.0,0.0,0.0,0.0,0.0,0.0,0.0,0.0,0.0,0.0,-0.5041,-0.4975,-0.4908,-0.4659,-0.4339,-0.3678,-0.3075,0.0,0.0,0.0,0.0,0.0,0.0,0.0,0.0,0.0,0.0,0.0,0.0,0.0,0.0,0.0,0.0,0.0,0.0,0.0,0.0,0.0,0.0,0.0,0.0,0.0,0.0,0.0,0.0,0.0,0.0,0.0,0.0,0.0,0.0,0.0,0.0,0.0,0.0,0.0,0.0,0.0,0.0,0.0,0.0,0.0,0.0,0.0,0.0,0.0,0.0,0.0,0.0,0.0,0.0,0.0,0.0,0.0,0.0,0.0,0.0,0.0,0.0,0.0,0.0,0.0,0.0,0.0,0.0,0.0,0.0,0.0,0.0,0.0,0.0,0.0,0.0,0.0,0.0,0.0,0.0,0.0,0.0,0.0,0.0,0.0,0.0,0.0,0.0,0.0,0.0,0.0,0.0,0.0,0.0,0.0,0.0,0.0,0.0,0.0,0.0,0.0,0.0,0.0,0.0,0.0,0.0,0.0,0.0,-0.5428,-0.5425,-0.5223,-0.5024,-0.4821,-0.4146,-0.3475,0.0,0.0,0.0,0.0,0.0,0.0,0.0,0.0,0.0,0.0,0.0,0.0,0.0,0.0,0.0,0.0,0.0,0.0,0.0,0.0,0.0,0.0,0.0,0.0,0.0,0.0,0.0,0.0,0.0,0.0,0.0,0.0,0.0,0.0,0.0,0.0,0.0,0.0,0.0,0.0,0.0,0.0,0.0,0.0,0.0,0.0,0.0,0.0,0.0,0.0,0.0,0.0,0.0,0.0,0.0,0.0,0.0,0.0,0.0,0.0,0.0,0.0,0.0,0.0,0.0,0.0,0.0,0.0,0.0,0.0,0.0,0.0,0.0,0.0,0.0,0.0,0.0,0.0,0.0,0.0,0.0,0.0,0.0,0.0,0.0,0.0,0.0,0.0,0.0,0.0,0.0,0.0,0.0,0.0,0.0,0.0,0.0,0.0,0.0,0.0,0.0,0.0,0.0,0.0,0.0,0.0,0.0,0.0,-0.5428,-0.5428,-0.5359,-0.5223,-0.5024,-0.4509,-0.3896,0.0,0.0,0.0,0.0,0.0,0.0,0.0,0.0,0.0,0.0,0.0,0.0,0.0,0.0,0.0,0.0,0.0,0.0,0.0,0.0,0.0,0.0,0.0,0.0,0.0,0.0,0.0,0.0,0.0,0.0,0.0,0.0,0.0,0.0,0.0,0.0,0.0,0.0,0.0,0.0,0.0,0.0,0.0,0.0,0.0,0.0,0.0,0.0,0.1479,0.0,0.0,0.0,0.0,0.0,0.0,0.0,0.0,0.0,0.0,0.0,0.0,0.0,0.0,0.0,0.0,0.0,0.0,0.0,0.0,0.0,0.0,0.0,0.0,0.0,0.0,0.0,0.0,0.0,0.0,0.0,0.0,0.0,0.0,0.0,0.0,0.0,0.0,0.0,0.0,0.0,0.0,0.0,0.0,0.0,0.0,0.0,0.0,0.0,0.0,0.0,0.0,0.0,0.0,0.0,0.0,0.0,0.0,0.0,-0.5491,-0.5491,-0.5491,-0.5422,-0.5223,-0.4764,-0.4231,0.0,0.0,0.0,0.0,0.0,0.0,0.0,0.0,0.0,0.0,0.0,0.0,0.0,0.0,0.0,0.0,0.0,0.0,0.0,0.0,0.0,0.0,0.0,0.0,0.0,0.0,0.0,0.0,0.0,0.0,0.0,0.0,0.0,0.0,0.0,0.0,0.0,0.0,0.0,0.0,0.0,0.0,0.0,0.0,0.0,0.0,0.0,0.0,0.0,0.0,0.0,0.0,0.0,0.0,0.0,0.0,0.0,0.0,0.0,0.0,0.0,0.0,0.0,0.0,0.0,0.0,0.0,0.0,0.0,0.0,0.0,0.0,0.0,0.0,0.0,0.0,0.0,0.0,0.0,0.0,0.0,0.0,0.0,0.0,0.0,0.0,0.0,0.0,0.0,0.0,0.0,0.0,0.0,0.0,0.0,0.0,0.0,0.0,0.0,0.0,0.0,0.0,0.0,0.0,0.0,0.0,0.0,-0.5575,-0.5652,-0.5722,-0.5744,-0.5624,-0.5497,-0.5094,-0.4619,-0.3941,0.0,0.0,0.0,0.0,0.0,0.0,0.0,0.0,0.0,0.0,0.0,0.0,0.0,0.0,0.0,0.0,0.0,0.0,0.0,0.0,0.0,0.0,0.0,0.0,0.0,0.0,0.0,0.0,0.0,0.0,0.0,0.0,0.0,0.0,0.0,0.0,0.0,0.0,-0.0975,-0.1063,0.0,0.0,0.0,0.0,0.0,0.0,0.0,0.0,0.1362,0.0,0.0,0.0,0.0,0.0,0.0,0.0,0.0,0.0,0.0,0.0,0.0,0.0,0.0,0.0,0.0,0.0,0.0,0.0,0.0,0.0,0.0,0.0,0.0,0.0,0.0,0.0,0.0,0.0,0.0,0.0,0.0,0.0,0.0,0.0,0.0,0.0,0.0,0.0,0.0,0.0,0.0,0.0,0.0,0.0,0.0,0.0,0.0,0.0,0.0,0.0,0.0,0.0,0.0,0.0,0.0,-0.5554,-0.5752,-0.5892,-0.6104,-0.6227,-0.6157,-0.5948,-0.5593,-0.5095,-0.4514,0.0,0.0,0.0,0.0,0.0,0.0,0.0,0.0,0.0,0.0,0.0,0.0,0.0,0.0,0.0,0.0,0.0,0.0,0.0,0.0,0.0,0.0,0.0,0.0,0.0,0.0,0.0,0.0,0.0,0.0,0.0,0.0,0.0,0.0,0.0,0.0,0.0,0.0,0.0,-0.1208,-0.1212,0.0,0.0,0.0,0.0,0.0,0.0,0.0,0.0,0.1729,0.0,0.0,0.0,0.0,0.0,0.0,0.0,0.0,0.0,0.0,0.0,0.0,0.0,0.0,0.0,0.0,0.0,0.0,0.0,0.0,0.0,0.0,0.0,0.0,0.0,0.0,0.0,0.0,0.0,0.0,0.0,0.0,0.0,0.0,0.0,0.0,0.0,0.0,0.0,0.0,0.0,0.0,0.0,0.0,0.0,0.0,0.0,0.0,0.0,0.0,0.0,0.0,0.0,0.0,0.0,-0.6,-0.629,-0.6546,-0.662,-0.6695,-0.6666,-0.6527,-0.595,-0.5447,0.0,0.0,0.0,0.0,0.0,0.0,0.0,0.0,0.0,0.0,0.0,0.0,0.0,0.0,0.0,0.0,0.0,0.0,0.0,0.0,0.0,0.0,0.0,0.0,0.0,0.0,0.0,0.0,0.0,0.0,0.0,0.0,0.0,0.0,0.0,0.0,0.0,0.0,0.0,0.0,-0.1443,-0.1451,-0.1332,0.0,0.0,0.0,0.0,0.0,0.0,0.1312,0.1531,0.0,0.0,0.0,0.0,0.0,0.0,0.0,0.0,0.0,0.0,0.0,0.0,0.0,0.0,0.0,0.0,0.0,0.0,0.0,0.0,0.0,0.0,0.0,0.0,0.0,0.0,0.0,0.0,0.0,0.0,0.0,0.0,0.0,0.0,0.0,0.0,0.0,0.0,0.0,0.0,0.0,0.0,0.0,0.0,0.0,0.0,0.0,0.0,0.0,0.0,0.0,0.0,0.0,0.0,0.0,-0.6516,-0.6913,-0.7149,-0.7149,-0.719,-0.7207,-0.7058,-0.6404,-0.5815,0.0,0.0,0.0,0.0,0.0,0.0,0.0,0.0,0.0,0.0,0.0,0.0,0.0,0.0,0.0,0.0,0.0,0.0,0.0,0.0,0.0,0.0,0.0,0.0,0.0,0.0,0.0,0.0,0.0,0.0,0.0,0.0,0.0,0.0,0.0,0.0,0.0,0.0,0.0,0.0,0.0,-0.171,-0.16,-0.1312,0.0,0.0,0.0,0.0,0.1035,0.1185,0.0,0.0,0.0,0.0,0.0,0.0,0.0,0.0,0.0,0.0,0.0,0.0,0.0,0.0,0.0,0.0,0.0,0.0,0.0,0.0,0.0,0.0,0.0,0.0,0.0,0.0,0.0,0.0,0.0,0.0,0.0,0.0,0.0,0.0,0.0,0.0,0.0,0.0,0.0,0.0,0.0,0.0,0.0,0.0,0.0,0.0,0.0,0.0,0.0,0.0,0.0,0.0,0.0,0.0,0.0,0.0,-0.6956,-0.7329,-0.763,-0.7703,-0.7864,-0.7804,-0.7419,-0.7034,-0.6423,0.0,0.0,0.0,0.0,0.0,0.0,0.0,0.0,0.0,0.0,0.0,0.0,0.0,0.0,0.0,0.0,0.0,0.0,0.0,0.0,0.0,0.0,0.0,0.0,0.0,0.0,0.0,0.0,0.0,0.0,0.0,0.0,0.0,0.0,0.0,0.0,0.0,0.0,0.0,0.0,0.0,-0.2035,-0.1968,-0.1531,-0.1175,0.0,0.0,0.0076,0.0466,0.0935,0.0,0.0,0.0,0.0,0.0,0.0,0.0,0.0,0.0,0.0,0.0,0.0,0.0,0.0,0.0,0.0,0.0,0.0,0.0,0.0,0.0,0.0,0.0,0.0,0.0,0.0,0.0,0.0,0.0,0.0,0.0,0.0,0.0,0.0,0.0,0.0,0.0,0.0,0.0,0.0,0.0,0.0,0.0,0.0,0.0,0.0,0.0,0.0,0.0,0.0,0.0,0.0,0.0,0.0,0.0,-0.8208,-0.7847,-0.8155,-0.8416,-0.8491,-0.858,-0.8475,-0.8169,-0.771,-0.7092,0.0,0.0,0.0,0.0,0.0,0.0,0.0,0.0,0.0,0.0,0.0,0.0,0.0,0.0,0.0,0.0,0.0,0.0,0.0,0.0,0.0,0.0,0.0,0.0,0.0,0.0,0.0,0.0,0.0,0.0,0.0,0.0,0.0,0.0,0.0,0.0,0.0,0.0,0.0,0.0,0.0,0.0,-0.2125,-0.1826,0.0,0.0,0.0,-0.0543,0.0078,0.0,0.0,0.0,0.0,0.0,0.0,0.0,0.0,0.0,0.0,0.0,0.0,0.0,0.0,0.0,0.0,0.0,0.0,0.0,0.0,0.0,0.0,0.0,0.0,0.0,0.0,0.0,0.0,0.0,0.0,0.0,0.0,0.0,0.0,0.0,0.0,0.0,0.0,0.0,0.0,0.0,0.0,0.0,0.0,0.0,0.0,0.0,0.0,0.0,0.0,0.0,0.0,0.0,0.0,0.0,0.0,0.0,-0.8703,-0.9079,-0.9236,-0.9231,-0.9231,-0.9079,-0.8856,-0.8322,0.0,0.0,0.0,0.0,0.0,0.0,0.0,0.0,0.0,0.0,0.0,0.0,0.0,0.0,0.0,0.0,0.0,0.0,0.0,0.0,0.0,0.0,0.0,0.0,0.0,0.0,0.0,0.055,0.0,0.0,0.0,0.0,0.0,0.0,0.0,0.0,0.0,0.0,0.0,0.0,0.0,0.0,-0.2459,-0.2348,-0.2199,-0.1886,0.0,0.0,-0.1022,-0.0236,0.0471,0.1022,0.0,0.0,0.0,0.0,0.0,0.0,0.0,0.0,0.0,0.0,0.0,0.0,0.0,0.0,0.0,0.0,0.0,0.0,0.0,0.0,0.0,0.0,0.0,0.0,0.0,0.0,0.0,0.0,0.0,0.0,0.0,0.0,0.0,0.0,0.0,0.0,0.0,0.0,0.0,0.0,0.0,0.0,0.0,0.0,0.0,0.0,0.0,0.0,0.0,0.0,0.0,0.0,0.0,0.0,-0.9711,-0.9544,-0.9695,-0.9841,-0.9841,-0.9846,-0.962,-0.9246,-0.8861,-0.8246,0.0,0.0,0.0,0.0,0.0,0.0,0.0,0.0,0.0,0.0,0.0,0.0,0.0,0.0,0.0,0.0,0.0,0.0,0.0,0.0,0.0,0.0,0.0,0.0,0.0,0.0,0.0,0.0,0.0,0.0,0.0,0.0,0.0,0.0,0.0,0.0,0.0,0.0,0.0,0.0,0.0,-0.2741,-0.2746,-0.2589,-0.2277,0.0,-0.1572,-0.11,-0.0471,-0.0079,0.0393,0.1179,0.0,0.0,0.0,0.0,0.0,0.0,0.0,0.0,0.0,0.0,0.0,0.0,0.0,0.0,0.0,0.0,0.0,0.0,0.0,0.0,0.0,0.0,0.0,0.0,0.0,0.0,0.0,0.0,0.0,0.0,0.0,0.0,0.0,0.0,0.0,0.0,0.0,0.0,0.0,0.0,0.0,0.0,0.0,0.0,0.0,0.0,0.0,0.0,0.0,0.0,0.0,0.0,0.0,-1.0703,-1.0363,-1.0513,-1.0663,-1.0663,-1.0669,-1.0438,-1.0073,-0.9685,-0.9084,0.0,0.0,0.0,0.0,0.0,0.0,0.0,0.0,0.0,0.0,0.0,0.0,0.0,0.0,0.0,0.0,0.0,0.0,0.0,0.0,0.0,0.0,0.0,0.0,0.0,0.0,0.0,0.0,-0.1035,-0.1052,-0.1067,0.0,0.0,0.0,0.0,0.0,0.0,0.0,0.0,0.0,0.0,-0.2982,-0.2982,-0.2702,0.0,0.0,-0.1706,-0.1229,-0.0983,-0.041,0.0082,0.041,0.0903,0.0,0.0,0.0,0.0,0.0,0.0,0.0,0.0,0.0,0.0,0.0,0.0,0.0,0.0,0.0,0.0,0.0,0.0,0.0,0.0,0.0,0.0,0.0,0.0,0.0,0.0,0.0,0.0,0.0,0.0,0.0,0.0,0.0,0.0,0.0,0.0,0.0,0.0,0.0,0.0,0.0,0.0,0.0,0.0,0.0,0.0,0.0,0.0,0.0,0.0,0.0,0.0,-1.1809,-1.1377,-1.1614,-1.1803,-1.1733,-1.1733,-1.1575,-1.1118,-1.0741,-1.0203,0.0,0.0,0.0,0.0,0.0,0.0,0.0,0.0,0.0,0.0,0.0,0.0,0.0,0.0,0.0,0.0,0.0,0.0,0.0,0.0,0.0,0.0,0.0,0.0,0.0,0.0,0.0,0.0,-0.1441,-0.1465,-0.1491,0.0,0.0,0.0,0.0,0.0,0.0,0.0,0.0,0.0,0.0,-0.3261,-0.3284,-0.3006,-0.2792,-0.2628,-0.208,-0.1598,-0.1345,-0.0841,-0.0421,-0.0168,0.0,0.0,0.0,0.0,0.0,0.0,0.0,0.0,0.0,0.0,0.0,0.0,0.0,0.0,0.0,0.0,0.0,0.0,0.0,0.0,0.0,0.0,0.0,0.0,0.0,0.0,0.0,-1.0914,0.0,0.0,-1.0552,0.0,0.0,0.0,0.0,0.0,0.0,0.0,0.0,0.0,0.0,0.0,0.0,0.0,0.0,0.0,0.0,0.0,0.0,0.0,0.0,0.0,0.0,-1.3105,-1.2746,-1.3084,-1.3239,-1.3239,-1.3252,-1.2995,-1.2587,-1.2123,-1.1644,-1.0997,0.0,0.0,0.0,0.0,0.0,0.0,0.0,0.0,0.0,0.0,0.0,0.0,0.0,0.0,0.0,0.0,0.0,0.0,0.0,0.0,0.0,0.0,0.0,0.0,0.0,0.0,-0.1881,-0.1806,-0.1728,0.0,0.0,0.0,0.0,0.0,0.0,0.0,0.0,0.0,-0.348,-0.3572,-0.36,-0.3678,-0.3524,-0.3191,-0.2775,-0.2524,-0.2188,-0.1516,-0.1431,-0.1093,0.0,0.0,0.0,0.0,0.0,0.0,0.0,0.0,0.0,0.0,0.0,0.0,0.0,0.0,0.0,0.0,0.0,0.0,0.0,0.0,0.0,0.0,0.0,0.0,0.0,0.0,0.0,-1.3986,-1.3613,0.0,0.0,0.0,0.0,0.0,0.0,0.0,0.0,0.0,0.0,0.0,-1.557,-1.5495,0.0,0.0,0.0,0.0,0.0,0.0,0.0,0.0,0.0,0.0,0.0,0.0,-1.4065,-1.3973,-1.4073,-1.4123,-1.413,-1.4123,-1.3888,-1.3502,-1.3186,-1.2466,-1.1261,0.0,0.0,0.0,0.0,0.0,0.0,0.0,0.0,0.0,0.0,0.0,0.0,0.0,0.0,0.0,0.0,0.0,0.0,0.0,0.0,0.0,0.0,0.0,0.0,0.0,-0.1887,0.0,0.0,0.0,0.0,0.0,0.0,0.0,0.0,0.0,0.0,-0.3094,-0.3296,-0.3652,-0.3824,-0.3833,-0.3948,-0.3746,-0.3523,0.0,0.0,0.0,0.0,0.0,0.0,0.0,0.0,0.0,0.0,0.0,0.0,0.0,0.0,0.1653,0.1944,0.2019,0.2103,0.2103,0.0,0.0,0.0,0.0,0.0,0.0,0.0,0.0,0.0,0.0,0.0,0.0,0.0,0.0,-1.6036,-1.5588,-1.5145,0.0,0.0,0.0,0.0,0.0,0.0,0.0,0.0,-1.5921,-1.6331,-1.6514,-1.6446,-1.651,-1.681,-1.6749,-1.6234,0.0,0.0,0.0,0.0,0.0,0.0,0.0,0.0,-1.5068,-1.5076,-1.5196,-1.5249,-1.5249,-1.517,-1.5018,-1.4707,-1.4226,-1.3406,-1.2104,-1.1282,-1.0626,0.0,0.0,0.0,0.0,0.0,0.0,0.0,0.0,0.0,0.0,0.0,0.0,0.0,0.0,0.0,0.0,0.0,0.0,0.0,0.0,0.0,0.0,0.0,-0.2313,0.0,0.0,0.0,0.0,0.0,0.0,0.0,0.0,0.0,-0.3218,-0.3414,-0.3623,-0.3906,-0.4081,-0.4176,-0.4212,0.0,0.0,0.0,0.0,0.0,0.0,0.0,-0.1615,-0.1436,-0.1166,-0.0718,-0.009,0.0269,0.0538,0.0628,0.0,0.0,0.1729,0.1807,0.1807,0.1893,0.1967,0.2042,0.2042,0.2029,0.2019,0.0,0.0,0.0,0.0,-2.0018,0.0,0.0,0.0,-1.8027,-1.7419,0.0,-1.6421,0.0,0.0,0.0,0.0,-1.5085,-1.5597,0.0,0.0,-1.693,-1.7273,-1.7282,-1.7508,-1.7637,-1.7844,-1.7853,-1.7697,-1.7525,-1.6476,0.0,0.0,0.0,0.0,0.0,0.0,-1.6222,-1.623,-1.6547,-1.6722,-1.6714,-1.655,-1.6312,-1.6079,-1.5228,-1.4314,-1.3502,-1.2784,-1.2112,-1.1359,-0.9923,0.0,0.0,0.0,0.0,0.0,0.0,0.0,0.0,0.0,0.0,0.0,0.0,0.0,0.0,0.0,0.0,0.0,0.0,0.0,0.0,-0.3129,0.0,0.0,0.0,0.0,0.0,0.0,0.0,0.0,0.0,-0.3621,-0.3718,-0.3708,-0.3904,-0.4418,0.0,0.0,0.0,0.0,-0.421,-0.3944,-0.3496,-0.3136,-0.2956,-0.2511,-0.2064,-0.1525,0.0,0.0,-0.0179,-0.0,0.009,0.0628,0.0987,0.1346,0.1345,0.1431,0.1522,0.1701,0.1939,0.209,0.2086,0.1972,0.1945,-2.4518,0.0,0.0,0.0,0.0,-2.1813,-2.1317,-2.0838,-2.033,-1.9712,-1.9094,-1.864,0.0,0.0,0.0,0.0,0.0,0.0,-1.7345,-1.7777,-1.8129,-1.8472,-1.8906,-1.8906,-1.8841,-1.8875,-1.8508,-1.8293,-1.8267,-1.8115,-1.7517,-1.6522,0.0,0.0,0.0,0.0,-1.7476,-1.7476,-1.7407,-1.7375,-1.7375,-1.7221,-1.6894,-1.6574,-1.5997,-1.5423,-1.4867,-1.4068,-1.3215,-1.2369,-1.1257,0.0,0.0,0.0,0.0,0.0,0.0,0.0,0.0,0.0,0.0,0.0,0.0,0.0,0.0,0.0,0.0,0.0,0.0,0.0,-0.3622,-0.3808,-0.3916,0.0,0.0,0.0,0.0,0.0,0.0,0.0,0.0,0.0,-0.4577,-0.431,-0.4318,0.0,0.0,-0.4889,-0.4919,-0.4746,-0.4478,-0.421,-0.3944,0.0,-0.2956,-0.2778,-0.251,-0.1794,-0.1525,-0.1346,-0.1076,-0.0718,-0.0359,0.009,0.0269,0.0538,0.0807,0.1166,0.1436,0.1524,0.1517,0.16,0.16,0.1592,0.1585,-2.704,-2.6117,-2.5084,-2.4368,-2.3917,-2.3433,-2.3015,-2.2482,-2.2181,-2.1644,-2.0969,-2.0577,-2.0126,-1.9592,-1.917,0.0,0.0,0.0,-1.8693,-1.9029,-1.911,-1.9392,-1.9703,-1.964,-1.9667,-1.9762,-1.9482,-1.9358,-1.9429,-1.9659,-1.9258,-1.8434,0.0,-1.8162,-1.8101,-1.832,-1.8362,-1.8282,-1.8112,-1.8112,-1.8112,-1.7797,-1.7383,-1.6984,-1.6574,-1.6177,-1.5793,-1.4922,-1.4146,-1.3294,-1.2357,-1.1494,0.0,0.0,0.0,0.0,0.0,0.0,0.0,0.0,0.0,0.0,0.0,-0.3276,-0.3276,0.0,0.0,0.0,-0.3946,-0.4216,-0.4333,-0.4422,0.0,0.0,0.0,0.0,0.0,0.0,0.0,-0.4559,-0.4565,-0.4743,-0.5099,-0.4924,-0.4832,-0.5099,-0.5191,-0.5191,-0.5191,0.0,-0.4837,-0.4478,-0.421,-0.3855,-0.3315,-0.3045,-0.2688,-0.1884,-0.1705,-0.1525,-0.1436,-0.1166,-0.0897,-0.0628,-0.0269,0.009,0.0359,0.0628,0.0897,0.1076,0.1256,0.1436,0.1436,0.1436,0.1436,-2.9098,-2.8759,-2.6802,-2.5675,-2.5197,-2.4771,-2.4308,-2.3863,-2.3691,-2.3274,-2.2604,-2.2421,-2.2172,-2.171,-2.0988,0.0,-1.9991,-1.9981,-2.0001,-2.0042,-2.0042,-2.0062,-2.0092,-2.0102,-2.0335,-2.0686,-2.0686,-2.0803,-2.0924,-2.1021,-2.0867,-2.0644,-1.9854,-1.9381,-1.9073,-1.9073,-1.9002,-1.8772,-1.878,-1.87,-1.87,-1.8282,-1.7878,-1.7481,-1.7057,-1.6664,-1.6366,-1.5597,-1.4908,-1.4223,-1.3294,-1.2528,-1.1843,0.0,0.0,0.0,0.0,0.0,0.0,0.0,0.0,0.0,0.0,0.0,0.0,0.0,0.0,-0.4471,-0.4727,0.0,-0.5041,-0.4961,0.0,0.0,0.0,-0.501,-0.483,-0.4919,-0.501,-0.501,0.0,0.0,-0.5371,-0.546,-0.546,-0.546,-0.5463,-0.5463,-0.5371,-0.5371,-0.5196,-0.4839,-0.448,-0.421,-0.3674,-0.3226,-0.2688,-0.2063,-0.1795,-0.1705,-0.1525,-0.1346,-0.1436,-0.1346,-0.0718,-0.009,-0.0,0.0,0.018,0.0538,0.0987,0.1256,0.1346,0.1436,0.1436,-2.9549,-2.9372,-2.8882,-2.8187,-2.747,-2.6995,-2.663,-2.6229,-2.5669,-2.5176,-2.4645,-2.4087,-2.3223,-2.232,-2.1757,-2.1328,-2.0977,-2.0977,-2.1108,-2.1302,-2.1302,-2.1492,-2.1839,-2.1839,-2.1753,-2.1717,-2.1814,-2.1714,-2.1655,-2.1783,-2.1706,-2.1272,-2.1041,-2.0644,-2.002,-1.9794,-1.9706,-1.9636,-1.9311,-1.9002,-1.8709,-1.8612,-1.829,-1.787,-1.7716,-1.7465,-1.6902,-1.6402,-1.5816,-1.5144,-1.4384,-1.3633,-1.2705,-1.2015,0.0,0.0,0.0,0.0,0.0,0.0,0.0,0.0,0.0,-0.537,-0.5282,0.0,-0.5372,0.0,-0.564,-0.5827,-0.6028,-0.5948,0.0,0.0,-0.5369,-0.528,-0.5191,-0.5099,-0.5099,-0.5282,-0.5282,-0.5371,-0.5644,-0.5644,-0.5644,-0.5644,-0.5644,-0.5644,-0.5644,-0.5463,-0.5371,-0.5193,-0.4837,-0.448,-0.4121,-0.3405,-0.2778,-0.2423,-0.2064,-0.1795,-0.1705,-0.1525,-0.1436,-0.1436,-0.1256,-0.0807,-0.0179,0.0,0.0,0.018,0.0269,0.0538,0.1256,0.1436,0.1436,-3.0614,-3.0573,-3.0573,-3.0264,-2.9623,-2.8483,-2.7778,-2.7381,-2.6979,-2.6466,-2.5922,-2.5319,-2.4478,-2.3456,-2.3199,-2.2775,-2.2325,-2.2265,-2.219,-2.2146,-2.2157,-2.2232,-2.2392,-2.2392,-2.2327,-2.2252,-2.2262,-2.2187,-2.2111,-2.2229,-2.2153,-2.1883,-2.1807,-2.1568,-2.1118,-2.0557,-2.0255,-2.0098,-1.9696,-1.939,-1.9109,-1.902,-1.8763,-1.8442,-1.8282,-1.7951,-1.7546,-1.7057,-1.6558,-1.5899,-1.5311,-1.465,-1.3808,-1.3118,-1.2351,0.0,0.0,0.0,0.0,0.0,0.0,0.0,0.0,0.0,0.0,0.0,-0.5985,-0.5985,-0.6166,-0.6257,-0.6428,-0.6254,-0.6166,-0.5983,-0.5899,-0.5902,-0.5902,-0.5722,-0.5722,-0.5811,-0.5813,-0.5902,-0.5994,-0.5994,-0.5991,-0.5994,-0.5994,-0.5905,-0.5733,-0.5644,-0.5463,-0.5371,-0.5104,-0.4656,-0.4212,-0.3496,-0.2957,-0.269,-0.2242,-0.1974,-0.1795,-0.1615,-0.1436,-0.1436,-0.1436,-0.1166,-0.0448,-0.009,0.0,0.0,0.0,0.0,0.0897,0.1256,0.1436,-3.1784,-3.1784,-3.1784,-3.1712,-3.1405,-2.9607,-2.8555,-2.8177,-2.7988,-2.7521,-2.6778,-2.6226,-2.5594,-2.4862,-2.4683,-2.4261,-2.374,-2.3519,-2.3224,-2.2852,-2.2852,-2.2703,-2.2478,-2.2478,-2.2553,-2.2478,-2.2553,-2.2553,-2.2553,-2.2553,-2.2553,-2.2553,-2.2327,-2.2252,-2.2176,-2.1482,-2.0867,-2.042,-2.0098,-1.9872,-1.9673,-1.9487,-1.9222,-1.9073,-1.8674,-1.8362,-1.8121,-1.7716,-1.7221,-1.6558,-1.6139,-1.5567,-1.4908,-1.43,-1.3626,0.0,-1.2272,0.0,0.0,0.0,0.0,0.0,0.0,0.0,0.0,-0.67,-0.6609,-0.6609,-0.6609,-0.6609,-0.6609,-0.652,-0.6428,-0.6337,-0.634,-0.6428,-0.6612,-0.652,-0.6428,-0.6428,-0.6428,-0.6428,-0.6428,-0.6428,-0.6428,-0.634,-0.634,-0.6257,-0.5908,-0.5822,-0.573,-0.5552,-0.5191,-0.4746,-0.4123,-0.3585,-0.3136,-0.2957,-0.2511,-0.2155,-0.1885,-0.1615,-0.1436,-0.1436,-0.1436,-0.1256,-0.0807,-0.0269,0.0,0.0,0.0,0.0,0.0538,0.1076,0.1346,-3.164,-3.1784,-3.1784,-3.1784,-3.1697,-3.0939,-3.0411,-3.004,-2.9487,-2.8639,-2.767,-2.7056,-2.6496,-2.5873,-2.5382,-2.4874,-2.4504,-2.4177,-2.3897,-2.3666,-2.3519,-2.3298,-2.315,-2.315,-2.315,-2.315,-2.315,-2.3224,-2.3372,-2.3372,-2.3298,-2.315,-2.3075,-2.2927,-2.2628,0.0,0.0,0.0,-2.0566,-2.0342,-2.0196,-1.9942,-1.9627,-1.9222,-1.9152,0.0,-1.8612,-1.8362,-1.7951,-1.7456,-1.7221,0.0,0.0,0.0,0.0,0.0,0.0,0.0,0.0,0.0,0.0,0.0,-0.9589,-0.8899,-0.8021,-0.7764,-0.7588,-0.7588,-0.7588,-0.7588,-0.7588,-0.7231,-0.6962,-0.6962,-0.6605,-0.652,-0.67,-0.652,-0.6428,-0.6428,-0.6428,-0.6428,-0.6428,-0.6428,-0.6428,-0.6428,-0.6428,-0.6343,-0.626,-0.6174,-0.5994,-0.5905,-0.5455,-0.4832,-0.43,-0.3855,-0.3502,-0.3136,-0.2781,-0.2426,-0.2159,-0.1888,-0.1706,-0.1438,-0.1436,-0.1257,-0.0808,-0.0359,0.0,0.0,0.0,0.0,0.009,0.0808,0.1436,-3.1625,-3.1784,-3.1784,-3.1784,0.0,-3.1322,-3.1014,-3.0762,-3.0021,-2.9058,-2.7973,-2.7443,-2.6918,-2.6289,-2.5873,-2.5441,-2.5004,-2.4731,-2.4394,-2.4043,-2.397,-2.3751,-2.3446,-2.3446,-2.3446,-2.3446,-2.3434,-2.3519,-2.3593,-2.3593,-2.3519,-2.3457,-2.3446,-2.3383,-2.315,-2.2927,-2.2317,-2.1339,-2.1108,-2.0799,-2.0498,-2.0333,-2.002,-1.9618,-1.9627,0.0,0.0,0.0,0.0,0.0,0.0,0.0,0.0,-1.6237,0.0,-1.5061,-1.4314,-1.3548,-1.2936,-1.2437,-1.1929,-1.1413,-1.0636,-0.9763,-0.8632,-0.8372,-0.8201,-0.8025,-0.8025,-0.8032,-0.8036,-0.7676,-0.7496,-0.7496,-0.7146,-0.6966,-0.7058,-0.6877,-0.6697,-0.6786,-0.6697,-0.6786,-0.6786,-0.6786,-0.6697,-0.6789,-0.685,-0.6895,-0.6886,-0.6563,-0.6169,-0.5902,-0.5547,-0.5013,-0.4574,-0.4254,-0.3823,-0.3463,-0.3124,-0.268,-0.2314,-0.2035,-0.1757,-0.148,-0.1387,-0.1295,-0.0833,-0.0278,0.0,0.0,0.0,0.0,0.0647,0.091,0.1166,-3.1567,-3.1742,-3.1727,-3.1727,-3.1742,-3.1264,-3.1028,-3.0895,-3.0083,0.0,0.0,-2.7723,-2.7175,-2.6552,-2.6358,-2.5943,-2.5453,-2.5229,-2.4814,-2.4406,-2.4345,-2.4127,-2.3751,-2.374,-2.3666,-2.3677,-2.3677,-2.3751,-2.3751,-2.3824,-2.3813,-2.3824,-2.3824,-2.374,-2.3677,-2.3372,-2.2777,-2.2025,-2.1731,-2.1349,-2.0876,-2.0722,-2.042,-2.002,-2.002,-1.9775,-1.946,-1.939,-1.9073,-1.8594,-1.8282,-1.7959,-1.7554,-1.6976,-1.6394,-1.5899,-1.5318,-1.4643,-1.3957,-1.3542,-1.2954,-1.2369,-1.1413,-1.0371,-0.9244,-0.8894,-0.8636,-0.8372,-0.8376,-0.838,-0.8304,-0.812,-0.8028,-0.8028,-0.7768,-0.7595,-0.7591,-0.7323,-0.7143,-0.7143,-0.7139,-0.7139,-0.7051,-0.7081,-0.718,-0.72,-0.7319,-0.7411,-0.7397,-0.6859,-0.6349,-0.5989,-0.5636,-0.526,-0.4904,-0.4593,-0.4272,-0.3816,-0.3391,-0.2953,-0.248,-0.2099,-0.1813,-0.1521,-0.143,-0.1238,-0.0762,-0.0285,0.0,0.0,0.0,0.0286,0.1236,0.1208,0.0999,-3.1322,-3.1539,-3.1524,-3.1524,-3.1539,-3.119,-3.0776,-3.0233,-2.9789,-2.9275,-2.8661,-2.8039,-2.759,-2.7323,-2.6633,-2.6358,-2.6208,-2.5581,-2.5241,-2.5099,-2.4838,-2.4502,-2.4116,-2.4116,-2.4055,-2.3886,-2.4043,-2.42,-2.4345,-2.4574,-2.4646,-2.4657,-2.4646,-2.4441,-2.4127,-2.3886,-2.3446,-2.2852,-2.2111,-2.1721,-2.1645,-2.1128,-2.0731,-2.0489,-2.0342,-2.0108,-1.9863,-1.9627,-1.9469,-1.9222,-1.8993,-1.8594,-1.7959,-1.7619,-1.7212,-1.6566,-1.6162,-1.5673,-1.5195,-1.4566,-1.3782,-1.2766,-1.2089,-1.1322,-1.0202,-0.9685,-0.9428,-0.934,-0.9253,-0.9174,-0.9082,-0.8727,-0.8548,-0.8464,-0.8116,-0.7852,-0.7856,-0.7591,-0.7418,-0.7425,-0.7231,-0.7149,-0.7177,-0.7265,-0.7339,-0.736,-0.7468,-0.757,-0.7483,-0.7079,-0.6686,-0.6406,-0.5935,-0.5561,-0.5172,-0.4821,-0.4458,-0.3892,-0.362,-0.3161,-0.2397,-0.2109,-0.1917,-0.1528,-0.1533,-0.134,-0.0861,-0.0286,0.0,0.0,0.0,0.0383,0.1341,0.1424,0.141,-3.196,-3.2572,-3.2587,-3.2527,-3.2407,-3.2012,-3.1565,-3.1125,-3.0693,-3.003,-2.9285,-2.8986,-2.8739,-2.8395,-2.7895,-2.7544,-2.7344,-2.6818,-2.6457,-2.6154,-2.6031,-2.5749,-2.5378,-2.5378,-2.5303,-2.5228,-2.5303,-2.5378,-2.5452,-2.5526,-2.5612,-2.5612,-2.5612,-2.5538,-2.5303,-2.4992,-2.4755,-2.4442,-2.3113,-2.2252,-2.1807,-2.1512,-2.1195,-2.0741,-2.0664,-2.043,-2.0098,-2.0029,-1.9794,-1.9469,-1.932,-1.8993,-1.8603,-1.8112,-1.7708,-1.7383,-1.6812,-1.6343,-1.611,-1.5257,-1.4405,-1.3555,-1.3045,-1.2448,-1.1671,-1.0804,-1.0289,-1.0028,-0.9854,-0.9685,-0.9703,-0.9345,-0.9074,-0.899,-0.8552,-0.8288,-0.8204,-0.7944,-0.7712,-0.761,-0.7531,-0.7385,-0.738,-0.7451,-0.7495,-0.7509,-0.7621,-0.774,-0.7821,-0.7446,-0.7096,-0.6685,-0.6364,-0.5892,-0.5429,-0.5193,-0.4737,-0.3967,-0.3809,-0.3339,-0.2558,-0.2262,-0.2065,-0.1674,-0.1575,-0.1477,-0.1181,-0.0492,0.0,0.0,0.0295,0.0689,0.1082,0.1368,0.154,-3.2778,-3.3499,-3.3499,-3.3362,-3.3114,-3.2703,-3.232,-3.1997,-3.1545,-3.0934,-3.0227,-2.9954,-2.9684,-2.9416,-2.899,-2.8605,-2.8255,-2.795,-2.7558,-2.7112,-2.7037,-2.6824,-2.6458,-2.637,-2.637,-2.6294,-2.637,-2.637,-2.6382,-2.6458,-2.6458,-2.6458,-2.6446,-2.6382,-2.6382,-2.5989,-2.5812,-2.5612,-2.4234,-2.3102,-2.2415,-2.2262,-2.1875,-2.1429,-2.1282,-2.0997,-2.0654,-2.0487,-2.0203,-1.9724,-1.9469,-1.9231,-1.8993,-1.8434,-1.8121,-1.7959,-1.7302,-1.682,-1.668,-1.5763,-1.4929,-1.4432,-1.3997,-1.3476,-1.296,-1.21,-1.1322,-1.0799,-1.0448,-1.0202,-1.0222,-0.9868,-0.9602,-0.9432,-0.9121,-0.8882,-0.8701,-0.8379,-0.8095,-0.7945,-0.7872,-0.7742,-0.766,-0.7628,-0.7665,-0.7712,-0.7797,-0.7913,-0.7918,-0.7842,-0.7442,-0.7009,-0.6739,-0.6269,-0.5497,-0.5465,-0.5023,-0.4143,-0.3988,-0.351,-0.2716,-0.2418,-0.2219,-0.1712,-0.1412,-0.141,-0.1413,-0.0706,0.0,0.0,0.0402,0.0806,0.1006,0.1297,0.1573,-3.3285,-3.3499,-3.3559,-3.3315,-3.3048,-3.2684,-3.2378,-3.2097,-3.1994,-3.1875,-3.1516,-3.0512,-3.0003,-2.9754,-2.9455,-2.9041,-2.8669,-2.8268,-2.7975,-2.7681,-2.7347,-2.7049,-2.6872,-2.6721,-2.6458,-2.6406,-2.6517,-2.6629,-2.6716,-2.6832,-2.6872,-2.686,-2.686,-2.6808,-2.6557,-2.6406,-2.6088,-2.567,-2.5204,-2.4703,-2.4233,-2.3509,-2.3018,-2.3018,-2.2392,-2.1888,-2.1501,-2.1063,-2.0569,-1.991,-1.9664,-1.9408,-1.9011,-1.878,-1.8451,-1.8057,-1.7797,-1.7375,-1.6738,-1.6072,-1.5506,-1.5285,-1.486,-1.4341,-1.3678,-1.3326,-1.2711,-1.1866,-1.117,-1.0895,-1.0901,-1.0564,-1.0241,-1.0017,-0.9869,-0.9597,-0.9259,-0.9038,-0.8866,-0.8586,-0.8225,-0.7955,-0.8008,-0.7822,-0.7841,-0.7936,-0.7967,-0.8001,-0.8028,-0.7942,-0.7736,-0.7294,-0.6895,-0.649,-0.5792,-0.5608,-0.5109,-0.4216,-0.4026,-0.353,-0.2724,-0.2321,-0.222,-0.1717,-0.1212,-0.1111,-0.1111,-0.0808,0.0,0.0,0.0606,0.0909,0.1313,0.1511,0.1598,-3.4181,-3.4681,-3.4539,-3.4283,-3.3973,-3.3541,-3.326,-3.3072,-3.2667,-3.2415,-3.2246,-3.1531,-3.1021,-3.0804,-3.0513,-3.006,-2.9689,-2.939,-2.9089,-2.8748,-2.8467,-2.8224,-2.7992,-2.7849,-2.7705,-2.7615,-2.7705,-2.7705,-2.7705,-2.7795,-2.7873,-2.7873,-2.7873,-2.7795,-2.7705,-2.7663,-2.7415,-2.6986,-2.6577,-2.6176,-2.5636,-2.4325,-2.3395,-2.3153,-2.2676,-2.2207,-2.1957,-2.152,-2.1106,-2.069,-2.0435,-2.0181,-1.987,-1.954,-1.9291,-1.9033,-1.8411,-1.7689,-1.6727,-1.6412,-1.6254,-1.6055,-1.5624,-1.5255,-1.4918,-1.4596,-1.4063,-1.3498,-1.2452,-1.1727,-1.1696,-1.1377,-1.1159,-1.1015,-1.0577,-1.0259,-1.0081,-0.9599,-0.9312,-0.9127,-0.8771,-0.853,-0.8225,-0.8101,-0.797,-0.8031,-0.8038,-0.8038,-0.8038,-0.8038,-0.7736,-0.7338,-0.7138,-0.6639,-0.5837,-0.5534,-0.5135,-0.4334,-0.3831,-0.3429,-0.2723,-0.2221,-0.202,-0.1718,-0.1212,-0.0808,-0.0606,-0.0404,0.0101,0.0505,0.0707,0.0909,0.1516,0.1617,0.1609,-3.4882,-3.5409,-3.5243,-3.4979,-3.4563,-3.42,-3.3925,-3.3675,-3.3002,-3.2632,-3.2561,-3.2096,-3.1817,-3.1609,-3.1211,-3.0823,-3.0444,-3.0228,-2.9908,-2.9419,-2.9209,-2.8961,-2.8803,-2.8578,-2.851,-2.851,-2.8486,-2.8498,-2.851,-2.851,-2.851,-2.851,-2.851,-2.851,-2.8522,-2.8411,-2.8262,-2.7881,-2.7371,-2.6951,-2.6449,-2.5126,-2.42,-2.3761,-2.3206,-2.2752,-2.2466,-2.1967,-2.1482,-2.1172,-2.0922,-2.0773,-2.0624,-2.0108,-1.9777,-1.958,-1.8922,-1.806,-1.7326,-1.7135,-1.7059,-1.6978,-1.6548,-1.6111,-1.5874,-1.5493,-1.5143,-1.4738,-1.368,-1.2943,-1.256,-1.2243,-1.2046,-1.1844,-1.1354,-1.1032,-1.066,-1.0229,-0.9867,-0.9598,-0.9332,-0.8983,-0.8499,-0.8127,-0.8035,-0.8038,-0.8038,-0.8038,-0.7939,-0.7942,-0.7743,-0.7338,-0.7238,-0.6637,-0.5834,-0.5534,-0.5135,-0.4332,-0.3831,-0.3327,-0.2622,-0.2222,-0.192,-0.1617,-0.1212,0.0,0.0,0.0,0.0303,0.1111,0.1313,0.1111,0.1516,0.1617,0.1718,-3.5474,-3.5439,-3.5222,-3.4861,-3.4414,-3.4131,-3.3787,-3.3312,-3.286,-3.2632,-3.2417,-3.2023,-3.1743,-3.1622,-3.136,-3.0973,-3.0444,-3.0368,-2.9973,-2.9419,-2.9197,-2.8961,-2.8803,-2.8566,-2.851,-2.851,-2.8431,-2.8431,-2.851,-2.851,-2.851,-2.8498,-2.8522,-2.8522,-2.8431,-2.825,-2.8089,-2.78,-2.7301,-2.6809,-2.655,-2.608,-2.5503,-2.4967,-2.418,-2.3539,-2.3143,-2.249,-2.1797,-2.1089,-2.0885,-2.082,-2.0791,-2.0256,-1.9745,-1.9299,-1.8998,-1.881,-1.8621,-1.8226,-1.8078,-1.7977,-1.7422,-1.6888,-1.6455,-1.6202,-1.577,-1.5073,-1.4887,-1.4405,-1.3701,-1.3138,-1.2586,-1.2286,-1.2176,-1.1811,-1.1067,-1.1014,-1.0756,-1.0087,-0.9686,-0.9197,-0.8528,-0.8134,-0.8038,-0.8038,-0.8038,-0.8038,-0.7942,-0.7746,-0.7543,-0.7444,-0.7042,-0.6539,-0.5737,-0.5536,-0.5035,-0.4334,-0.3629,-0.3325,-0.2724,-0.2221,-0.1919,-0.1718,-0.1516,0.0,0.0,0.0,0.0,0.101,0.1516,0.1516,0.1617,0.1617,0.1718,-3.5359,-3.5067,-3.4935,-3.4668,-3.4196,-3.3908,-3.3646,-3.3241,-3.2846,-3.2574,-3.2228,-3.189,-3.1636,-3.1492,-3.1088,-3.0761,-3.0355,-3.0152,-2.9754,-2.9341,-2.9028,-2.8882,-2.8803,-2.8486,-2.8351,-2.8259,-2.8191,-2.8122,-2.8122,-2.8122,-2.8122,-2.8146,-2.839,-2.8378,-2.8146,-2.8066,-2.7893,-2.7615,-2.7371,-2.7044,-2.6644,-2.629,-2.5779,-2.52,-2.4444,-2.3953,-2.3609,-2.2746,-2.2216,-2.1881,-2.1544,-2.1397,-2.1328,-2.0977,-2.0527,-1.9961,-1.9806,-1.959,-1.9163,-1.8692,-1.8423,-1.8475,-1.7951,-1.7589,-1.7402,-1.7073,-1.6621,-1.626,-1.5896,-1.5524,-1.5013,-1.4142,-1.3543,-1.3425,-1.2958,-1.2528,-1.2068,-1.1541,-1.0998,-1.0507,-0.9719,-0.8924,-0.8627,-0.8233,-0.8038,-0.8038,-0.8038,-0.8038,-0.7942,-0.7743,-0.7543,-0.7241,-0.6842,-0.6337,-0.5737,-0.5436,-0.5037,-0.4232,-0.3528,-0.3025,-0.2522,-0.202,-0.1718,-0.1313,-0.1313,0.0,0.0,0.0,0.0606,0.0909,0.1313,0.1617,0.1617,0.1718,0.1919,-3.5264,-3.492,-3.4824,-3.4505,-3.4059,-3.3811,-3.3465,-3.3086,-3.2846,-3.2503,-3.2109,-3.1757,-3.1487,-3.1241,-3.0724,-3.0381,-3.0228,-2.9934,-2.9611,-2.9184,-2.8882,-2.8645,-2.8566,-2.8259,-2.8111,-2.8111,-2.795,-2.7881,-2.7881,-2.7881,-2.7881,-2.7893,-2.8148,-2.8137,-2.7893,-2.7777,-2.7592,-2.751,-2.7371,-2.7044,-2.6644,-2.6302,-2.5863,-2.52,-2.47,-2.4196,-2.3841,-2.2882,-2.2344,-2.2246,-2.1909,-2.1642,-2.1463,-2.1401,-2.1041,-2.0447,-2.0283,-2.0145,-1.972,-1.9226,-1.8943,-1.8913,-1.8486,-1.8224,-1.8064,-1.7707,-1.734,-1.6972,-1.6595,-1.6211,-1.5798,-1.4892,-1.43,-1.4172,-1.3528,-1.2953,-1.2764,-1.1975,-1.1296,-1.0605,-0.9616,-0.8924,-0.8726,-0.8333,-0.8038,-0.8038,-0.8038,-0.7939,-0.7839,-0.764,-0.7341,-0.7036,-0.6537,-0.6137,-0.5636,-0.5236,-0.4836,-0.4033,-0.3328,-0.2825,-0.2322,-0.1919,-0.1516,-0.101,-0.0707,-0.0606,-0.0303,0.0202,0.0606,0.0808,0.1212,0.1617,0.1718,0.1819,0.202,-3.5379,-3.492,-3.481,-3.4438,-3.3937,-3.3756,-3.3311,-3.2775,-3.2704,-3.2359,-3.189,-3.1683,-3.1299,-3.0924,-3.0394,-3.0011,-2.9779,-2.9702,-2.939,-2.887,-2.8578,-2.8419,-2.8179,-2.803,-2.7893,-2.7893,-2.7881,-2.7881,-2.78,-2.78,-2.78,-2.7881,-2.7881,-2.7824,-2.7881,-2.7476,-2.7302,-2.7348,-2.7126,-2.6809,-2.6561,-2.6313,-2.5884,-2.5274,-2.4956,-2.4519,-2.3841,-2.2969,-2.2422,-2.2227,-2.19,-2.1454,-2.1186,-2.1212,-2.0951,-2.0382,-2.0275,-2.0275,-2.0266,-1.9951,-1.9645,-1.943,-1.9088,-1.8511,-1.8164,-1.7807,-1.7535,-1.7066,-1.6777,-1.6487,-1.6123,-1.5432,-1.4854,-1.44,-1.3721,-1.3141,-1.2856,-1.2273,-1.159,-1.0507,-0.9521,-0.8825,-0.8726,-0.8333,-0.8038,-0.8038,-0.8038,-0.7942,-0.7643,-0.7441,-0.7039,-0.6537,-0.6237,-0.5837,-0.5436,-0.4937,-0.4435,-0.3934,-0.3228,-0.2624,-0.2322,-0.1919,-0.1516,-0.1111,-0.0505,-0.0303,0.0303,0.0808,0.0909,0.1212,0.1516,0.1617,0.1819,0.192,0.2121,-3.5365,-3.4935,-3.4854,-3.4452,-3.3951,-3.3868,-3.3423,-3.2704,-3.2561,-3.2214,-3.1669,-3.1299,-3.0999,-3.0648,-3.01,-2.9599,-2.9172,-2.8961,-2.8749,-2.859,-2.8339,-2.8191,-2.795,-2.7777,-2.7545,-2.7476,-2.7394,-2.7394,-2.7394,-2.7394,-2.7406,-2.7394,-2.7394,-2.7394,-2.7394,-2.729,-2.7278,-2.7301,-2.7056,-2.6809,-2.6561,-2.6324,-2.5895,-2.5285,-2.5031,-2.4509,-2.3831,-2.3222,-2.2696,-2.2334,-2.2087,-2.1642,-2.1177,-2.0988,-2.0718,-2.0374,-2.0292,-2.0292,-2.0292,-1.9945,-1.9671,-1.9496,-1.9112,-1.8643,-1.8179,-1.7994,-1.7714,-1.7246,-1.6871,-1.6588,-1.6305,-1.5655,-1.4987,-1.4885,-1.4022,-1.334,-1.305,-1.2175,-1.1198,-1.0511,-0.9422,-0.8825,-0.8726,-0.8333,-0.8038,-0.8038,-0.7939,-0.7842,-0.7643,-0.7338,-0.7039,-0.6739,-0.6239,-0.5636,-0.5236,-0.4636,-0.4033,-0.3632,-0.3027,-0.2523,-0.2222,-0.1818,-0.1515,-0.101,-0.0404,0.0202,0.0808,0.1212,0.1313,0.1415,0.1516,0.1718,0.1819,0.2122,0.2322,-3.5509,-3.5133,-3.4935,-3.4534,-3.3951,-3.3882,-3.3368,-3.2704,-3.2431,-3.2009,-3.1522,-3.1149,-3.0698,-3.0267,-2.9792,-2.9287,-2.8779,-2.8419,-2.8203,-2.8134,-2.8018,-2.7857,-2.7615,-2.729,-2.7115,-2.6985,-2.6985,-2.6974,-2.6985,-2.6974,-2.6985,-2.6974,-2.6985,-2.7079,-2.7056,-2.6962,-2.6951,-2.6974,-2.6809,-2.6561,-2.6396,-2.6229,-2.5812,-2.5285,-2.5126,-2.4605,-2.3831,-2.359,-2.3154,-2.253,-2.2087,-2.1642,-2.1195,-2.0979,-2.0701,-2.0464,-2.0382,-2.0292,-2.0292,-1.9936,-1.9679,-1.9496,-1.9204,-1.8735,-1.8265,-1.8087,-1.78,-1.7246,-1.6864,-1.6487,-1.6204,-1.5648,-1.5083,-1.479,-1.4022,-1.3346,-1.2953,-1.1878,-1.1002,-1.031,-0.9517,-0.8924,-0.8726,-0.8333,-0.8038,-0.8038,-0.7942,-0.7743,-0.7444,-0.7238,-0.6942,-0.6542,-0.6039,-0.5536,-0.5035,-0.4435,-0.3731,-0.3229,-0.2725,-0.2423,-0.2222,-0.1616,-0.1111,-0.0707,-0.0202,0.0404,0.101,0.1313,0.1516,0.1617,0.1617,0.1718,0.192,0.2221,0.2422,-3.5797,-3.5504,-3.5082,-3.4601,-3.4059,-3.373,-3.3241,-3.2717,-3.23,-3.1803,-3.136,-3.0986,-3.0457,-2.9779,-2.93,-2.8907,-2.851,-2.803,-2.7731,-2.7592,-2.7464,-2.736,-2.7185,-2.688,-2.6727,-2.6644,-2.6644,-2.6644,-2.6644,-2.6644,-2.6644,-2.6644,-2.6749,-2.6843,-2.6798,-2.6494,-2.6588,-2.6809,-2.6479,-2.6229,-2.624,-2.599,-2.5717,-2.52,-2.52,-2.4765,-2.4013,-2.3784,-2.3436,-2.253,-2.1998,-2.1651,-2.1383,-2.0979,-2.0799,-2.0645,-2.0473,-2.0292,-2.0201,-2.0027,-1.9762,-1.9587,-1.9296,-1.892,-1.8179,-1.7994,-1.7714,-1.7073,-1.6777,-1.64,-1.5927,-1.5363,-1.479,-1.4304,-1.363,-1.305,-1.2073,-1.1292,-1.0703,-1.0212,-0.9418,-0.8726,-0.8726,-0.8336,-0.8038,-0.7939,-0.7743,-0.7543,-0.7238,-0.6939,-0.6542,-0.6139,-0.5739,-0.5238,-0.4836,-0.4133,-0.343,-0.2925,-0.2523,-0.2323,-0.1919,-0.1313,-0.0707,-0.0404,0.0101,0.0707,0.1111,0.1313,0.1516,0.1617,0.1617,0.1718,0.202,0.2322,0.2725,-3.5797,-3.5439,-3.5082,-3.4601,-3.4059,-3.3744,-3.3157,-3.2489,-3.1996,-3.1495,-3.0986,-3.0394,-3.0011,-2.9714,-2.8986,-2.859,-2.8351,-2.7696,-2.736,-2.7301,-2.6974,-2.6798,-2.6798,-2.6633,-2.6561,-2.6561,-2.6561,-2.6644,-2.6644,-2.6561,-2.6561,-2.6561,-2.6456,-2.6528,-2.6622,-2.6412,-2.6412,-2.6633,-2.6396,-2.6157,-2.6157,-2.599,-2.5633,-2.5285,-2.52,-2.4775,-2.411,-2.359,-2.3047,-2.2325,-2.2078,-2.183,-2.1482,-2.1087,-2.0898,-2.0736,-2.0473,-2.0292,-2.0201,-1.9936,-1.9679,-1.9587,-1.9028,-1.8465,-1.8179,-1.7707,-1.734,-1.6972,-1.6595,-1.6123,-1.573,-1.5166,-1.44,-1.3437,-1.305,-1.2662,-1.1883,-1.1194,-1.0609,-0.9924,-0.9225,-0.8825,-0.8531,-0.8233,-0.7942,-0.7743,-0.7643,-0.7447,-0.7042,-0.6639,-0.6339,-0.5939,-0.5539,-0.5037,-0.4437,-0.3732,-0.3128,-0.2623,-0.2322,-0.2122,-0.1616,-0.0909,-0.0404,-0.0,0.0606,0.1212,0.1212,0.1212,0.1414,0.1617,0.1718,0.192,0.2323,0.2624,0.3029,-3.5846,-3.5524,-3.5067,-3.4601,-3.4059,-3.366,-3.3072,-3.2345,-3.1776,-3.1185,-3.0685,-3.0088,-2.9636,-2.9221,-2.8669,-2.8191,-2.7938,-2.736,-2.6951,-2.6539,-2.6113,-2.6113,-2.6218,-2.6229,-2.6135,-2.6052,-2.6146,-2.6146,-2.6146,-2.6218,-2.6313,-2.6302,-2.6196,-2.6185,-2.6396,-2.629,-2.6268,-2.6385,-2.624,-2.6074,-2.6074,-2.599,-2.5644,-2.5285,-2.52,-2.4882,-2.4344,-2.361,-2.3057,-2.2618,-2.2264,-2.2008,-2.166,-2.1275,-2.1006,-2.0835,-2.0473,-2.0292,-2.0119,-1.9862,-1.9587,-1.9396,-1.8835,-1.8373,-1.8079,-1.7613,-1.7239,-1.6784,-1.6312,-1.5832,-1.5255,-1.449,-1.363,-1.2953,-1.237,-1.198,-1.1492,-1.1002,-1.0314,-0.9723,-0.9126,-0.8726,-0.8432,-0.8137,-0.7942,-0.7646,-0.754,-0.7241,-0.6942,-0.6539,-0.6039,-0.5639,-0.5138,-0.4636,-0.4034,-0.333,-0.2928,-0.2423,-0.1918,-0.1718,-0.1111,-0.0404,0.0,0.0505,0.1212,0.1516,0.1414,0.1313,0.1415,0.1617,0.1819,0.2122,0.2423,0.2927,0.3331,-3.591,-3.5703,-3.5118,-3.4587,-3.3977,-3.3479,-3.2846,-3.2273,-3.1482,-3.0898,-3.0292,-2.9856,-2.9234,-2.8498,-2.8179,-2.7753,-2.7267,-2.688,-2.6385,-2.5884,-2.5443,-2.5432,-2.5728,-2.5633,-2.5538,-2.5369,-2.5464,-2.5549,-2.5633,-2.5728,-2.5812,-2.5801,-2.5812,-2.5979,-2.6063,-2.5979,-2.599,-2.6146,-2.599,-2.5979,-2.5979,-2.5906,-2.5644,-2.5285,-2.5031,-2.4913,-2.4461,-2.3911,-2.3329,-2.3115,-2.2479,-2.2185,-2.2008,-2.1365,-2.1087,-2.0907,-2.0546,-2.0192,-1.9936,-1.987,-1.9596,-1.9196,-1.8635,-1.8172,-1.79,-1.7426,-1.6958,-1.6494,-1.6015,-1.5356,-1.449,-1.3431,-1.2856,-1.2467,-1.1785,-1.1296,-1.0998,-1.0605,-1.0113,-0.9624,-0.9027,-0.8726,-0.8432,-0.8134,-0.7842,-0.7444,-0.7241,-0.6942,-0.6642,-0.6239,-0.5739,-0.5238,-0.4736,-0.4234,-0.363,-0.2927,-0.2526,-0.2122,-0.1515,-0.101,-0.0505,0.0101,0.0606,0.1111,0.1313,0.1516,0.1516,0.1516,0.1617,0.1718,0.2021,0.2221,0.2522,0.3127,0.3633,-3.591,-3.5623,-3.5001,-3.4414,-3.3839,-3.3129,-3.2417,-3.1776,-3.1123,-3.0533,-2.9856,-2.9287,-2.8816,-2.8431,-2.7765,-2.7336,-2.7021,-2.6467,-2.5812,-2.5369,-2.5285,-2.5105,-2.52,-2.5211,-2.52,-2.52,-2.5285,-2.5285,-2.5285,-2.5369,-2.5369,-2.5369,-2.5549,-2.5644,-2.5728,-2.5822,-2.5895,-2.5979,-2.5895,-2.5895,-2.5895,-2.5906,-2.5728,-2.52,-2.4871,-2.4657,-2.444,-2.3967,-2.357,-2.3115,-2.2687,-2.2264,-2.2087,-2.1553,-2.1186,-2.0898,-2.061,-2.0158,-1.9928,-1.9779,-1.9512,-1.8928,-1.8458,-1.8094,-1.7512,-1.7052,-1.6487,-1.6015,-1.5553,-1.4783,-1.3727,-1.3147,-1.2467,-1.1785,-1.1502,-1.1114,-1.022,-0.9821,-0.9624,-0.9126,-0.8726,-0.8329,-0.8137,-0.7842,-0.7643,-0.7341,-0.7042,-0.6642,-0.6342,-0.5942,-0.5438,-0.4836,-0.4334,-0.3731,-0.3128,-0.2423,-0.1818,-0.1516,-0.0909,-0.0303,0.0202,0.0606,0.101,0.1212,0.1313,0.1415,0.1617,0.1617,0.1718,0.192,0.2121,0.2423,0.2826,0.343,0.3934,-3.5782,-3.5394,-3.4883,-3.4346,-3.3646,-3.3002,-3.2273,-3.1556,-3.0823,-3.0139,-2.9443,-2.8882,-2.8419,-2.7926,-2.7429,-2.7021,-2.6456,-2.5633,-2.5137,-2.4871,-2.469,-2.4519,-2.4423,-2.4519,-2.4605,-2.4871,-2.5031,-2.5031,-2.5031,-2.5105,-2.52,-2.52,-2.538,-2.538,-2.5464,-2.5644,-2.5728,-2.5812,-2.5895,-2.5895,-2.5895,-2.5906,-2.5728,-2.5285,-2.4871,-2.4646,-2.444,-2.4054,-2.3551,-2.3173,-2.2765,-2.2441,-2.2176,-2.1651,-2.1275,-2.0997,-2.0602,-2.0158,-1.9837,-1.9579,-1.9304,-1.8651,-1.8179,-1.7707,-1.7232,-1.6676,-1.6109,-1.5635,-1.5064,-1.4202,-1.305,-1.2273,-1.1688,-1.1394,-1.1016,-1.0627,-0.9826,-0.9624,-0.9327,-0.8829,-0.8528,-0.8233,-0.7939,-0.7643,-0.7344,-0.7042,-0.6739,-0.6439,-0.6039,-0.5639,-0.5037,-0.4435,-0.3831,-0.3228,-0.2625,-0.1919,-0.101,-0.0606,-0.0202,0.0404,0.101,0.1212,0.1415,0.1516,0.1415,0.1516,0.1617,0.1718,0.1819,0.2021,0.2223,0.2726,0.3128,0.3632,0.4236,-3.5653,-3.5148,-3.475,-3.4142,-3.3452,-3.2789,-3.2055,-3.1334,-3.0659,-2.9831,-2.9052,-2.8578,-2.7914,-2.7348,-2.701,-2.6456,-2.5717,-2.5052,-2.4625,-2.4368,-2.41,-2.4013,-2.3927,-2.3927,-2.41,-2.4358,-2.4529,-2.469,-2.4775,-2.4956,-2.4946,-2.5031,-2.5115,-2.52,-2.52,-2.538,-2.5559,-2.5644,-2.5738,-2.5895,-2.5895,-2.5906,-2.5644,-2.5285,-2.4946,-2.4721,-2.4495,-2.4044,-2.3637,-2.324,-2.294,-2.2696,-2.2344,-2.1802,-2.1186,-2.0988,-2.0602,-2.0158,-1.9654,-1.9371,-1.8988,-1.8465,-1.7684,-1.721,-1.6943,-1.6292,-1.5629,-1.5057,-1.4394,-1.3528,-1.2667,-1.1785,-1.1198,-1.0806,-1.043,-0.9937,-0.9533,-0.9327,-0.8829,-0.863,-0.8233,-0.7939,-0.7743,-0.7447,-0.7144,-0.6842,-0.6539,-0.6137,-0.5739,-0.5338,-0.4636,-0.4133,-0.3531,-0.2422,-0.1716,-0.1313,-0.0404,0.0202,0.0606,0.101,0.1516,0.1516,0.1516,0.1617,0.1516,0.1617,0.1718,0.1819,0.1921,0.2123,0.2526,0.3029,0.3531,0.3934,0.4636,-3.5444,-3.4854,-3.4264,-3.3563,-3.2775,-3.2069,-3.1408,-3.0596,-3.0152,-2.9378,-2.8578,-2.8155,-2.7661,-2.7103,-2.6373,-2.5644,-2.4967,-2.454,-2.4196,-2.3927,-2.3754,-2.3754,-2.3667,-2.3667,-2.3754,-2.3927,-2.4013,-2.41,-2.4272,-2.4368,-2.4529,-2.4625,-2.4871,-2.4946,-2.5031,-2.5211,-2.538,-2.5475,-2.5644,-2.5728,-2.5822,-2.5906,-2.5728,-2.5285,-2.5031,-2.4786,-2.4464,-2.4024,-2.3734,-2.3531,-2.3038,-2.2706,-2.2344,-2.1872,-2.1418,-2.1069,-2.0782,-2.0249,-1.9662,-1.9163,-1.8696,-1.8156,-1.7397,-1.6727,-1.6372,-1.5812,-1.5057,-1.4292,-1.3431,-1.2467,-1.1903,-1.1203,-1.0609,-1.0117,-0.9727,-0.9335,-0.8733,-0.8329,-0.8131,-0.8131,-0.7939,-0.7643,-0.7444,-0.7144,-0.6842,-0.6442,-0.6139,-0.5737,-0.5236,-0.4834,-0.4334,-0.3833,-0.3331,-0.1918,-0.0707,-0.0303,0.0202,0.0909,0.1212,0.1313,0.1617,0.1617,0.1617,0.1717,0.1718,0.1718,0.1819,0.2021,0.2223,0.2524,0.2928,0.333,0.3934,0.4435,0.5135,-3.5264,-3.475,-3.4045,-3.3409,-3.2632,-3.1909,-3.111,-3.0368,-2.9689,-2.8961,-2.8235,-2.7661,-2.7092,-2.6539,-2.6146,-2.5391,-2.4625,-2.411,-2.3754,-2.3484,-2.3319,-2.3232,-2.3135,-2.3135,-2.3144,-2.3232,-2.3319,-2.358,-2.3927,-2.4024,-2.411,-2.4282,-2.4444,-2.4615,-2.47,-2.4946,-2.5115,-2.5211,-2.538,-2.5549,-2.5738,-2.5822,-2.5644,-2.5285,-2.5115,-2.4871,-2.4444,-2.4013,-2.3734,-2.3541,-2.3125,-2.2706,-2.2344,-2.1971,-2.1507,-2.1069,-2.0692,-2.0249,-1.9662,-1.9088,-1.8535,-1.7893,-1.7124,-1.6459,-1.5812,-1.5153,-1.4388,-1.3426,-1.2457,-1.159,-1.111,-1.0511,-1.0023,-0.9632,-0.9133,-0.8634,-0.8137,-0.7633,-0.7531,-0.7733,-0.7537,-0.7241,-0.7144,-0.6842,-0.6542,-0.6142,-0.5739,-0.5238,-0.4734,-0.4334,-0.3934,-0.3127,-0.2423,-0.1312,-0.0,0.0505,0.0707,0.1313,0.1717,0.1819,0.1818,0.1818,0.1919,0.212,0.202,0.2021,0.2121,0.2322,0.2624,0.2927,0.3331,0.3734,0.4336,0.5037,0.5636,-3.503,-3.4481,-3.3839,-3.3129,-3.2417,-3.1703,-3.0885,-3.005,-2.9287,-2.8486,-2.7649,-2.7174,-2.6528,-2.5884,-2.5559,-2.5052,-2.4196,-2.358,-2.3309,-2.296,-2.2794,-2.2627,-2.2441,-2.2441,-2.2618,-2.2794,-2.2803,-2.3057,-2.3667,-2.3754,-2.3927,-2.4024,-2.411,-2.4196,-2.4454,-2.4615,-2.4775,-2.4946,-2.5041,-2.5295,-2.5559,-2.5644,-2.5633,-2.52,-2.52,-2.4956,-2.454,-2.41,-2.3744,-2.356,-2.3135,-2.2706,-2.2353,-2.2008,-2.1463,-2.0988,-2.052,-2.0085,-1.9554,-1.8928,-1.8265,-1.7613,-1.6864,-1.6103,-1.5337,-1.4478,-1.3426,-1.2273,-1.1492,-1.0801,-1.0314,-0.9723,-0.943,-0.9137,-0.8538,-0.7939,-0.7637,-0.7335,-0.7036,-0.7036,-0.6936,-0.6839,-0.6642,-0.6339,-0.6037,-0.5639,-0.5238,-0.4736,-0.4234,-0.3935,-0.3432,-0.2423,-0.1414,-0.0404,0.0505,0.1212,0.1414,0.1617,0.1919,0.202,0.2121,0.2221,0.2322,0.2423,0.2524,0.2524,0.2624,0.2725,0.2928,0.323,0.3635,0.4137,0.4836,0.5536,0.6134,-3.452,-3.3839,-3.3129,-3.2417,-3.169,-3.0885,-3.005,-2.9275,-2.8566,-2.7926,-2.7267,-2.661,-2.603,-2.5454,-2.47,-2.4013,-2.3493,-2.3232,-2.2872,-2.253,-2.2441,-2.2441,-2.2353,-2.2441,-2.2353,-2.2441,-2.2441,-2.2882,-2.3319,-2.3493,-2.3667,-2.3841,-2.3851,-2.3927,-2.4196,-2.4368,-2.4529,-2.4786,-2.4956,-2.5126,-2.5475,-2.5369,-2.5285,-2.52,-2.5031,-2.4786,-2.4454,-2.4013,-2.3744,-2.3657,-2.3144,-2.2715,-2.2353,-2.1909,-2.1374,-2.0835,-2.0374,-2.0011,-1.9288,-1.8635,-1.7986,-1.7239,-1.648,-1.5724,-1.4669,-1.3516,-1.236,-1.1487,-1.0605,-1.0019,-0.9624,-0.9225,-0.873,-0.8336,-0.8041,-0.7537,-0.7235,-0.6833,-0.6534,-0.6237,-0.6237,-0.6237,-0.6139,-0.5837,-0.5534,-0.5135,-0.4734,-0.4234,-0.3632,-0.3331,-0.2625,-0.1615,-0.0505,0.0505,0.101,0.1718,0.1818,0.192,0.2121,0.2322,0.2423,0.2523,0.2624,0.2725,0.2827,0.3029,0.3128,0.3229,0.3331,0.3633,0.4137,0.4736,0.5336,0.6034,0.6634,-3.3825,-3.3479,-3.2704,-3.1909,-3.1172,-3.0343,-2.9561,-2.887,-2.8167,-2.7441,-2.6764,-2.6113,-2.5359,-2.4594,-2.3841,-2.3406,-2.2969,-2.2794,-2.253,-2.2264,-2.2176,-2.2185,-2.1998,-2.1998,-2.2087,-2.2176,-2.2264,-2.2441,-2.2794,-2.3067,-2.3242,-2.358,-2.3667,-2.3754,-2.3937,-2.411,-2.4282,-2.454,-2.4786,-2.5041,-2.5126,-2.52,-2.5115,-2.5041,-2.4946,-2.47,-2.4368,-2.4013,-2.3754,-2.358,-2.2979,-2.2441,-2.2167,-2.1633,-2.1006,-2.0564,-1.992,-1.9463,-1.9004,-1.8272,-1.7621,-1.6864,-1.5913,-1.4867,-1.3709,-1.2554,-1.1389,-1.0605,-1.0117,-0.9529,-0.8935,-0.8535,-0.8137,-0.7842,-0.7441,-0.6936,-0.6534,-0.6234,-0.5934,-0.5636,-0.5436,-0.5436,-0.5336,-0.5135,-0.4834,-0.4533,-0.4133,-0.3632,-0.2927,-0.2221,-0.1515,-0.0606,0.0404,0.1516,0.1717,0.2122,0.212,0.2221,0.2424,0.2624,0.2725,0.2826,0.3027,0.3229,0.343,0.3531,0.363,0.3731,0.3833,0.4236,0.4638,0.5338,0.5934,0.6734,0.7431,-3.2903,-3.2618,-3.2042,-3.1307,-3.0545,-2.9781,-2.9094,-2.8395,-2.758,-2.6857,-2.6196,-2.5359,-2.4433,-2.3744,-2.3135,-2.2784,-2.2539,-2.2362,-2.2087,-2.1909,-2.182,-2.1642,-2.1544,-2.1544,-2.1642,-2.1919,-2.1919,-2.2097,-2.2353,-2.253,-2.2882,-2.3329,-2.3329,-2.3493,-2.3754,-2.3851,-2.4024,-2.4282,-2.4529,-2.4786,-2.4861,-2.4956,-2.4946,-2.4861,-2.4786,-2.4529,-2.4196,-2.3851,-2.359,-2.3319,-2.2706,-2.2274,-2.1919,-2.1275,-2.0645,-2.0102,-1.9455,-1.8812,-1.8357,-1.7714,-1.7052,-1.6197,-1.5153,-1.3908,-1.2559,-1.1487,-1.0703,-1.0019,-0.9426,-0.8733,-0.8237,-0.7839,-0.7441,-0.7141,-0.6742,-0.6134,-0.5732,-0.5534,-0.5233,-0.5035,-0.4736,-0.4334,-0.4334,-0.4334,-0.4133,-0.3833,-0.343,-0.3029,-0.2221,-0.1313,-0.0404,0.0404,0.1111,0.2021,0.2121,0.2323,0.2422,0.2623,0.2826,0.2927,0.3128,0.333,0.3531,0.3732,0.4033,0.4133,0.4234,0.4234,0.4332,0.4834,0.5336,0.5937,0.6637,0.7434,0.8131,-3.1763,-3.1084,-3.0996,-3.0456,-2.9691,-2.9094,-2.8395,-2.7592,-2.6857,-2.6113,-2.5359,-2.4262,-2.3493,-2.3057,-2.2618,-2.2176,-2.183,-2.1731,-2.1544,-2.1266,-2.1087,-2.1177,-2.1177,-2.1177,-2.1186,-2.1472,-2.1472,-2.1741,-2.2008,-2.2087,-2.2441,-2.2794,-2.2882,-2.3144,-2.3406,-2.359,-2.3851,-2.4024,-2.4282,-2.4444,-2.4615,-2.47,-2.4625,-2.469,-2.4444,-2.4196,-2.412,-2.3764,-2.3319,-2.3057,-2.2441,-2.1909,-2.1553,-2.0826,-2.0192,-1.9546,-1.8896,-1.8257,-1.7613,-1.7052,-1.6298,-1.5337,-1.419,-1.2851,-1.1683,-1.09,-1.0216,-0.9529,-0.8832,-0.8237,-0.7739,-0.7341,-0.6939,-0.6439,-0.6039,-0.5536,-0.5133,-0.4933,-0.4634,-0.4435,-0.4135,-0.3833,-0.3328,-0.3328,-0.343,-0.313,-0.2522,-0.2019,-0.1211,-0.0303,0.0707,0.1415,0.1819,0.2223,0.2423,0.2623,0.2826,0.3026,0.3229,0.3432,0.3533,0.3734,0.3932,0.4234,0.4435,0.4636,0.4836,0.4935,0.5133,0.5534,0.6034,0.6736,0.7434,0.8329,0.8928,-2.9876,-2.917,-2.8975,-2.8941,-2.8924,-2.8143,-2.7418,-2.6775,-2.603,-2.52,-2.4262,-2.3222,-2.2618,-2.2264,-2.1919,-2.1642,-2.1266,-2.1275,-2.1087,-2.1087,-2.0997,-2.0997,-2.0997,-2.0997,-2.1096,-2.1096,-2.1186,-2.1186,-2.1365,-2.1642,-2.183,-2.2087,-2.2353,-2.2706,-2.2969,-2.3329,-2.3677,-2.3841,-2.3937,-2.41,-2.41,-2.4186,-2.411,-2.4186,-2.41,-2.3754,-2.358,-2.3319,-2.2969,-2.253,-2.2087,-2.1544,-2.1006,-2.0374,-1.9637,-1.8988,-1.8249,-1.7606,-1.6965,-1.6494,-1.5717,-1.4286,-1.3136,-1.1975,-1.0998,-1.0216,-0.9525,-0.8832,-0.8237,-0.7739,-0.7039,-0.6739,-0.6337,-0.5839,-0.5338,-0.4935,-0.4533,-0.4332,-0.4031,-0.3731,-0.3531,-0.3331,-0.2826,-0.2322,-0.2424,-0.2425,-0.1716,-0.0908,-0.0101,0.0606,0.1515,0.2121,0.2425,0.2727,0.2826,0.3128,0.333,0.3531,0.3732,0.3833,0.3935,0.4031,0.423,0.4531,0.4935,0.5236,0.5536,0.5734,0.5934,0.6234,0.6833,0.7534,0.8428,0.9225,0.9723,-2.835,-2.7594,-2.7119,-2.7274,-2.7735,-2.7197,-2.661,-2.603,-2.5274,-2.4251,-2.3154,-2.2441,-2.1909,-2.1553,-2.1293,-2.1015,-2.0736,-2.0645,-2.0645,-2.0555,-2.0464,-2.0555,-2.0555,-2.0555,-2.0473,-2.0637,-2.0817,-2.0826,-2.1006,-2.1195,-2.1374,-2.1642,-2.1919,-2.2274,-2.2706,-2.3067,-2.3416,-2.358,-2.3667,-2.3754,-2.3841,-2.3841,-2.3754,-2.3754,-2.3667,-2.3406,-2.3057,-2.2882,-2.2432,-2.1998,-2.1553,-2.1006,-2.0374,-1.9729,-1.8988,-1.8249,-1.7505,-1.6965,-1.6407,-1.5642,-1.4765,-1.3329,-1.2262,-1.1194,-1.031,-0.9624,-0.8832,-0.8237,-0.7736,-0.7238,-0.6337,-0.6137,-0.5737,-0.5236,-0.4634,-0.4232,-0.3932,-0.3632,-0.3328,-0.3027,-0.2725,-0.2322,-0.1615,-0.1009,-0.0908,-0.0908,-0.0505,0.0303,0.111,0.1817,0.2323,0.2726,0.2927,0.3128,0.3432,0.3531,0.3732,0.3934,0.4135,0.4336,0.4435,0.4531,0.473,0.5135,0.5536,0.6037,0.6337,0.6637,0.6736,0.6936,0.7633,0.8531,0.8928,0.9723,1.0216,-2.7113,-2.6347,-2.5492,-2.5644,-2.628,-2.6222,-2.5786,-2.4956,-2.4341,-2.3444,-2.2344,-2.1651,-2.1195,-2.1006,-2.0744,-2.0473,-2.011,-2.0019,-1.9936,-1.9845,-1.9936,-1.9762,-1.9762,-1.9853,-2.0027,-2.0019,-2.0201,-2.0482,-2.0654,-2.0826,-2.0997,-2.1096,-2.1374,-2.183,-2.2353,-2.2706,-2.2882,-2.3144,-2.3329,-2.3493,-2.358,-2.358,-2.3493,-2.3406,-2.3144,-2.2882,-2.2618,-2.2255,-2.1811,-2.1275,-2.0907,-2.0275,-1.9546,-1.8896,-1.8156,-1.7326,-1.6567,-1.5913,-1.5255,-1.4298,-1.3232,-1.237,-1.1389,-1.0507,-0.9723,-0.8931,-0.8233,-0.7637,-0.7036,-0.6534,-0.6034,-0.5536,-0.5035,-0.4535,-0.4033,-0.363,-0.333,-0.2826,-0.2523,-0.2018,-0.1414,-0.0909,-0.0303,0.0303,0.0606,0.0808,0.0909,0.1414,0.2221,0.2624,0.2927,0.323,0.343,0.3731,0.3934,0.4033,0.4133,0.4336,0.4638,0.4839,0.5138,0.5336,0.5536,0.5939,0.6337,0.6836,0.7235,0.7637,0.7932,0.823,0.873,0.9426,0.9826,1.022,1.0708,-2.4835,-2.4052,-2.37,-2.3713,-2.3956,-2.4023,-2.368,-2.2965,-2.2293,-2.1711,-2.1409,-2.0744,-2.0391,-2.0201,-2.0102,-1.9828,-1.9754,-1.9662,-1.9579,-1.9579,-1.9487,-1.9587,-1.9587,-1.9487,-1.9579,-1.9671,-1.9862,-1.9953,-1.9945,-2.0283,-2.0464,-2.0654,-2.0925,-2.1553,-2.2097,-2.2451,-2.2618,-2.2608,-2.2696,-2.2784,-2.2872,-2.2882,-2.2882,-2.2794,-2.253,-2.2264,-2.2087,-2.1633,-2.1087,-2.0546,-2.0093,-1.9546,-1.8719,-1.7978,-1.7225,-1.6386,-1.5629,-1.5089,-1.4045,-1.2975,-1.1556,-1.1086,-1.0708,-0.9817,-0.8931,-0.8233,-0.7633,-0.7036,-0.6337,-0.5737,-0.5233,-0.4734,-0.4234,-0.3833,-0.3331,-0.3029,-0.2626,-0.202,-0.1414,-0.0808,-0.0303,0.0808,0.1514,0.1715,0.2017,0.2219,0.2219,0.2321,0.2927,0.3025,0.3225,0.3632,0.3934,0.4234,0.4435,0.4636,0.4836,0.5138,0.5338,0.5641,0.5839,0.6039,0.6337,0.6736,0.7135,0.7633,0.8131,0.8726,0.9225,0.9723,1.0019,1.0216,1.0511,1.0806,1.1198,-2.285,-2.2145,-2.1835,-2.1688,-2.177,-2.2149,-2.1816,-2.1034,-2.0359,-2.0105,-1.9918,-1.9443,-1.9257,-1.9233,-1.9109,-1.9055,-1.9096,-1.9112,-1.902,-1.912,-1.9028,-1.9028,-1.9028,-1.912,-1.8928,-1.912,-1.9212,-1.9312,-1.9396,-1.9745,-2.0011,-2.0192,-2.0555,-2.1015,-2.1553,-2.182,-2.2176,-2.2264,-2.2344,-2.2432,-2.2441,-2.2353,-2.2264,-2.2087,-2.182,-2.1633,-2.1275,-2.0817,-2.0184,-1.9637,-1.9088,-1.8635,-1.78,-1.7052,-1.6292,-1.5439,-1.4196,-1.3761,-1.3121,-1.1404,-1.0087,-0.9284,-0.9308,-0.8928,-0.8134,-0.7434,-0.6836,-0.6237,-0.5536,-0.5035,-0.4533,-0.4033,-0.3531,-0.313,-0.2524,-0.2222,-0.1616,-0.101,-0.0303,0.0303,0.111,0.222,0.3128,0.3228,0.3328,0.3428,0.3527,0.363,0.3632,0.3729,0.3827,0.4232,0.4638,0.4937,0.5138,0.5338,0.5639,0.5939,0.6139,0.6339,0.6639,0.6836,0.7135,0.7534,0.7932,0.8428,0.9221,0.9813,1.0306,1.0605,1.0801,1.1096,1.1292,1.1487,1.1688,-2.1278,-2.0682,-1.9913,-1.9534,-1.9765,-2.0438,-2.0225,-1.9281,-1.8965,-1.8551,-1.8143,-1.8049,-1.7945,-1.7971,-1.801,-1.7978,-1.8026,-1.8072,-1.8103,-1.8149,-1.8141,-1.8164,-1.8179,-1.8179,-1.8272,-1.8272,-1.8365,-1.8651,-1.8827,-1.9196,-1.9471,-1.9837,-2.011,-2.0473,-2.0835,-2.1105,-2.1463,-2.1722,-2.19,-2.1989,-2.1909,-2.1909,-2.1731,-2.1463,-2.1105,-2.0826,-2.0456,-2.0002,-1.9355,-1.8804,-1.8249,-1.7512,-1.677,-1.6015,-1.5255,-1.4004,-1.2457,-1.2211,-1.1958,-1.0126,-0.8403,-0.74,-0.7713,-0.763,-0.7238,-0.6637,-0.6037,-0.5436,-0.4836,-0.4435,-0.3934,-0.343,-0.2928,-0.2322,-0.1615,-0.1111,-0.0505,0.0101,0.0707,0.1514,0.2422,0.3328,0.393,0.4232,0.4433,0.4734,0.4732,0.4734,0.4836,0.4839,0.4935,0.5037,0.5441,0.5737,0.5939,0.6139,0.6439,0.6739,0.6939,0.7138,0.7335,0.7733,0.8031,0.8428,0.8726,0.932,1.0109,1.0699,1.1189,1.1487,1.1683,1.1688,1.1883,1.198,1.2175,-1.964,-1.893,-1.8221,-1.7844,-1.749,-1.703,-1.7171,-1.779,-1.7483,-1.7165,-1.7239,-1.6991,-1.6838,-1.6958,-1.6958,-1.6937,-1.6989,-1.713,-1.7234,-1.7231,-1.7335,-1.7461,-1.7505,-1.7475,-1.7606,-1.78,-1.79,-1.8094,-1.8365,-1.8643,-1.9004,-1.9371,-1.9671,-1.9853,-2.0027,-2.0201,-2.0645,-2.1096,-2.1356,-2.1365,-2.1275,-2.1186,-2.1015,-2.0744,-2.0283,-2.0002,-1.9729,-1.8996,-1.835,-1.7785,-1.7131,-1.6292,-1.5629,-1.4771,-1.3902,-1.216,-1.0988,-1.031,-1.0156,-0.8939,-0.7217,-0.5815,-0.6121,-0.6232,-0.6037,-0.5739,-0.5238,-0.4638,-0.4133,-0.363,-0.2925,-0.2423,-0.1817,-0.1111,-0.0404,0.0202,0.0808,0.1514,0.2119,0.2723,0.363,0.4234,0.4834,0.5133,0.5436,0.5737,0.5937,0.5939,0.5839,0.5842,0.5839,0.5939,0.6242,0.6537,0.6836,0.7036,0.7338,0.754,0.7736,0.8035,0.8329,0.8627,0.9027,0.9422,0.9813,1.0404,1.1091,1.1585,1.1975,1.2273,1.2473,1.2473,1.2473,1.257,1.2759,-1.7891,-1.7334,-1.6772,-1.6288,-1.5703,-1.4844,-1.5056,-1.5749,-1.5856,-1.5811,-1.5706,-1.5547,-1.5632,-1.5732,-1.5739,-1.5817,-1.5974,-1.6019,-1.6111,-1.6168,-1.6331,-1.6324,-1.6395,-1.6622,-1.675,-1.6993,-1.7274,-1.7434,-1.78,-1.8265,-1.8635,-1.8727,-1.9128,-1.932,-1.9387,-1.9446,-1.9812,-2.0275,-2.0555,-2.0637,-2.0555,-2.0473,-2.0292,-2.0011,-1.9546,-1.9271,-1.8904,-1.8079,-1.7419,-1.6763,-1.6008,-1.514,-1.428,-1.3318,-1.215,-1.0596,-0.9604,-0.8817,-0.8336,-0.7437,-0.5924,-0.4922,-0.4828,-0.4935,-0.5037,-0.4839,-0.4336,-0.3934,-0.3229,-0.2624,-0.1917,-0.1212,-0.0505,0.0101,0.0808,0.1615,0.2221,0.2925,0.353,0.4031,0.4634,0.5138,0.5636,0.6037,0.6337,0.6734,0.6933,0.6936,0.6839,0.6639,0.6736,0.6736,0.7039,0.7338,0.7633,0.7932,0.8233,0.8435,0.8634,0.8931,0.9324,0.9616,0.9916,1.0507,1.1091,1.1585,1.1975,1.2268,1.2559,1.2856,1.3147,1.334,1.3244,1.3152,1.334,-1.3884,-1.316,-1.3373,-1.1482,-1.2044,-1.0584,-1.0439,-1.1705,-1.0685,-1.3029,-1.3587,-1.4095,-1.4269,-1.4522,-1.4549,-1.467,-1.4798,-1.4925,-1.4986,-1.491,-1.5127,-1.5167,-1.5318,-1.5379,-1.5691,-1.5913,-1.6251,-1.6778,-1.7318,-1.7707,-1.7986,-1.8087,-1.8566,-1.8759,-1.8735,-1.8796,-1.9072,-1.9379,-1.9745,-1.9828,-1.9828,-1.9745,-1.9654,-1.9188,-1.8819,-1.845,-1.7986,-1.7232,-1.648,-1.5724,-1.4867,-1.3992,-1.2732,-1.1468,-1.0199,-0.911,-0.8113,-0.7319,-0.6631,-0.6034,-0.4929,-0.4128,-0.393,-0.3629,-0.3429,-0.363,-0.3328,-0.2723,-0.2017,-0.1312,-0.0606,0.0303,0.111,0.1615,0.2221,0.2825,0.3327,0.4031,0.4734,0.5236,0.5634,0.6237,0.6736,0.7135,0.7431,0.7733,0.7932,0.8031,0.7932,0.7733,0.7733,0.7829,0.8031,0.8333,0.8627,0.8924,0.9122,0.9327,0.9624,0.992,1.0306,1.06,1.09,1.1385,1.1873,1.2268,1.2662,1.2953,1.3141,1.3437,1.3817,1.41,1.4106,1.3919,1.4022,0.4817,0.5147,0.5563,0.5916,0.6137,0.6331,0.6187,0.6684,0.6538,-0.1343,-1.1652,-1.3212,-1.3593,-1.3585,-1.3611,-1.3687,-1.3819,-1.3924,-1.407,-1.4153,-1.4244,-1.4187,-1.4379,-1.452,-1.4773,-1.5066,-1.5528,-1.6071,-1.6678,-1.7203,-1.7505,-1.752,-1.8001,-1.8288,-1.8272,-1.8249,-1.8357,-1.8651,-1.8735,-1.9004,-1.9188,-1.9104,-1.892,-1.8535,-1.8164,-1.7606,-1.7044,-1.6285,-1.5527,-1.4675,-1.3721,-1.2446,-1.0783,-0.9702,-0.8616,-0.7621,-0.652,-0.5824,-0.5329,-0.4834,-0.3929,-0.2922,-0.242,-0.1816,-0.1715,-0.2117,-0.2017,-0.1311,-0.0605,0.0101,0.0807,0.1817,0.2624,0.3027,0.3531,0.3932,0.4433,0.5135,0.5839,0.6337,0.6734,0.7235,0.7836,0.8233,0.8528,0.873,0.9031,0.9229,0.9422,0.932,0.9324,0.9324,0.9126,0.9327,0.9719,1.001,1.0207,1.0408,1.0703,1.0998,1.1292,1.1585,1.1878,1.2262,1.2748,1.305,1.334,1.3528,1.3817,1.4106,1.4394,1.4682,1.4956,1.4962,1.4873,1.2255,1.2449,1.2752,1.2914,1.3068,1.3041,1.3077,1.3223,1.3232,0.7878,-0.1432,-0.5384,-0.8963,-1.1893,-1.2802,-1.1893,-1.2024,-1.2942,-1.2922,-1.3094,-1.2539,-1.3191,-1.3358,-1.3597,-1.376,-1.4116,-1.4896,-1.5613,-1.6151,-1.6579,-1.6857,-1.7008,-1.7426,-1.7729,-1.7628,-1.7714,-1.7807,-1.7908,-1.79,-1.8087,-1.845,-1.8272,-1.8172,-1.7792,-1.7419,-1.6857,-1.6096,-1.5337,-1.4478,-1.3318,-1.2155,-1.0681,-0.9304,-0.8319,-0.7322,-0.6426,-0.5629,-0.483,-0.4332,-0.3629,-0.2823,-0.1714,-0.1109,-0.0605,0.0302,0.0101,0.0202,0.0908,0.1311,0.1917,0.2421,0.333,0.363,0.4033,0.4533,0.5033,0.5634,0.6434,0.7132,0.763,0.7928,0.823,0.873,0.9324,0.9517,0.9715,1.0019,1.0413,1.0609,1.0797,1.0806,1.0811,1.0609,1.0511,1.0703,1.0998,1.1292,1.1585,1.1878,1.197,1.2165,1.2559,1.2953,1.3244,1.3528,1.3721,1.4016,1.4202,1.4484,1.4777,1.5064,1.5255,1.5629,1.5906,1.6015,1.7123,1.6674,1.714,1.712,1.6869,1.7051,1.7473,1.7423,1.7109,1.6461,1.3753,0.7226,-0.0798,-0.6396,-0.8759,-0.8764,-0.7596,-0.4635,-0.6479,-0.876,-0.9297,-1.0577,-1.1885,-1.2531,-1.3006,-1.3547,-1.418,-1.4799,-1.5331,-1.5817,-1.6204,-1.6563,-1.6857,-1.7174,-1.7066,-1.7052,-1.7124,-1.7426,-1.7434,-1.7333,-1.7434,-1.7441,-1.7434,-1.7145,-1.6676,-1.6109,-1.5343,-1.4478,-1.3619,-1.2247,-1.0685,-0.9205,-0.812,-0.7132,-0.6232,-0.5434,-0.4529,-0.383,-0.3127,-0.2017,-0.1008,-0.0101,0.0202,0.1008,0.1916,0.2319,0.2521,0.2822,0.3228,0.343,0.3932,0.4435,0.4634,0.5131,0.5732,0.6232,0.7033,0.773,0.8326,0.8924,0.9122,0.9324,0.9817,1.031,1.0605,1.0703,1.0998,1.1394,1.1785,1.197,1.2068,1.217,1.217,1.2073,1.1975,1.2068,1.2262,1.2657,1.2942,1.2942,1.3033,1.3431,1.3823,1.422,1.4412,1.4496,1.4688,1.4879,1.5159,1.5439,1.5832,1.6021,1.6292,1.6669,1.6965,3.4807,3.4751,3.4767,3.4506,3.4316,3.4298,3.4709,3.4576,3.3934,3.1046,2.4952,2.2626,1.6991,0.8598,0.8592,0.7389,0.4581,0.5607,0.4111,0.2202,-0.0843,-0.5732,-0.9135,-0.9285,-1.202,-1.3049,-1.3523,-1.3957,-1.4637,-1.505,-1.5463,-1.5934,-1.6444,-1.665,-1.6655,-1.6539,-1.6411,-1.6734,-1.6864,-1.677,-1.6871,-1.6871,-1.6777,-1.6487,-1.6109,-1.554,-1.4777,-1.3806,-1.284,-1.1473,-0.9604,-0.8021,-0.693,-0.6137,-0.5133,-0.4028,-0.3225,-0.2116,-0.1109,-0.0202,0.0806,0.1612,0.2116,0.3123,0.383,0.4029,0.423,0.4526,0.473,0.4431,0.4834,0.5236,0.5634,0.6528,0.7325,0.7826,0.8425,0.8924,0.9521,0.9916,1.0212,1.0502,1.1091,1.1487,1.178,1.1975,1.217,1.2559,1.284,1.313,1.3414,1.3516,1.3619,1.3426,1.3227,1.313,1.3323,1.3715,1.3913,1.3998,1.4094,1.4298,1.4598,1.5089,1.5083,1.507,1.5261,1.5547,1.5825,1.6109,1.6501,1.6885,1.7059,1.7333,1.7714]}]]